[[{"header":{"parameterUnit":"m.s-1","parameterCategory":1,"la1":30.6,"la2":29.2853,"lo1":-89.7004,"lo2":-87.6739,"dy":0.0162,"dx":0.0183,"nx":112,"ny":82,"refTime":"2024-09-19T18:00:00:Z","depth":0,"parameterNumber":2,"parameterNumberName":"U-component_of_WINDS"},"data":[0.0,0.0,0.0,0.0,0.0,0.0,0.0,0.0,0.0,0.0,0.0,0.0,0.0,0.0,0.0,0.0,0.0,0.0,0.0,0.0,0.0,0.0,0.0,0.0,0.0,0.0,0.0,0.0,0.0,0.0,0.0,0.0,0.0,0.0,0.0,0.0,0.0,0.0,0.0,0.0,0.0,0.0,0.0,0.0,0.0,0.0,0.0,0.0,0.0,0.0,0.0,0.0,0.0,0.0,0.0,0.0,0.0,0.0,0.0,0.0,0.0,0.0,0.0,0.0,0.0,0.0,0.0,0.0,0.0,0.0,0.0,0.0,0.0,0.0,0.0,0.0,0.0,0.0,0.0,0.0,0.0,0.0,0.0,0.0,0.0,0.0,0.0,0.0,0.0,0.0,0.0,0.8704,0.8704,0.8443,0.7833,0.773,0.7723,0.7774,0.0,0.0,0.0,0.0,0.0,0.0,0.0,0.0,0.0,0.0,0.0,0.0,0.0,0.0,0.0,0.0,0.0,0.0,0.0,0.0,0.0,0.0,0.0,0.0,0.0,0.0,0.0,0.0,0.0,0.0,0.0,0.0,0.0,0.0,0.0,0.0,0.0,0.0,0.0,0.0,0.0,0.0,0.0,0.0,0.0,0.0,0.0,0.0,0.0,0.0,0.0,0.0,0.0,0.0,0.0,0.0,0.0,0.0,0.0,0.0,0.0,0.0,0.0,0.0,0.0,0.0,0.0,0.0,0.0,0.0,0.0,0.0,0.0,0.0,0.0,0.0,0.0,0.0,0.0,0.0,0.0,0.0,0.0,0.0,0.0,0.0,0.0,0.0,0.0,0.0,0.0,0.0,0.0,0.0,0.0,0.0,0.0,0.0,0.0,0.0,0.0,0.0,0.0,0.0,0.8704,0.8704,0.8704,0.8543,0.8158,0.7862,0.7818,0.8107,0.0,0.0,0.0,0.0,0.0,0.0,0.0,0.0,0.0,0.0,0.0,0.0,0.0,0.0,0.0,0.0,0.0,0.0,0.0,0.0,0.0,0.0,0.0,0.0,0.0,0.0,0.0,0.0,0.0,0.0,0.0,0.0,0.0,0.0,0.0,0.0,0.0,0.0,0.0,0.0,0.0,0.0,0.0,0.0,0.0,0.0,0.0,0.0,0.0,0.0,0.0,0.0,0.0,0.0,0.0,0.0,0.0,0.0,0.0,0.0,0.0,0.0,0.0,0.0,0.0,0.0,0.0,0.0,0.0,0.0,0.0,0.0,0.0,0.0,0.0,0.0,0.0,0.0,0.0,0.0,0.0,0.0,0.0,0.0,0.0,0.0,0.0,0.0,0.0,0.0,0.0,0.0,0.0,0.0,0.0,0.0,0.0,0.0,0.0,0.0,0.0,0.0,0.0,0.8523,0.8619,0.8685,0.8704,0.8487,0.7972,0.7789,0.7767,0.792,0.7156,0.0,0.0,0.0,0.0,0.0,0.0,0.0,0.0,0.0,0.0,0.0,0.0,0.0,0.0,0.0,0.0,0.0,0.0,0.0,0.0,0.0,0.0,0.0,0.0,0.0,0.0,0.0,0.0,0.0,0.0,0.0,0.0,0.0,0.0,0.0,0.0,0.0,0.0,0.0,0.0,0.0,0.0,0.0,0.0,0.0,0.0,0.0,0.0,0.0,0.0,0.0,0.0,0.0,0.0,0.0,0.0,0.0,0.0,0.0,0.0,0.0,0.0,0.0,0.0,0.0,0.0,0.0,0.0,0.0,0.0,0.0,0.0,0.0,0.0,0.0,0.0,0.0,0.0,0.0,0.0,0.0,0.0,0.0,0.0,0.0,0.0,0.0,0.0,0.0,0.0,0.0,0.0,0.0,0.0,0.0,0.0,0.0,0.0,0.0,0.0,0.0,0.0,0.8805,0.8659,0.8652,0.8685,0.8421,0.776,0.7625,0.7581,0.7581,0.6968,0.0,0.0,0.0,0.0,0.0,0.0,0.0,0.0,0.0,0.0,0.0,0.0,0.0,0.0,0.0,0.0,0.0,0.0,0.0,0.0,0.0,0.0,0.0,0.0,0.0,0.0,0.0,0.0,0.0,0.0,0.0,0.0,0.0,0.0,0.0,0.0,0.0,0.0,0.0,0.0,0.0,0.0,0.0,0.0,0.0,0.0,0.0,0.0,0.0,0.0,0.0,0.0,0.0,0.0,0.0,0.0,0.0,0.0,0.0,0.0,0.0,0.0,0.0,0.0,0.0,0.0,0.0,0.0,0.0,0.0,0.0,0.0,0.0,0.0,0.0,0.0,0.0,0.0,0.0,0.0,0.0,0.0,0.0,0.0,0.0,0.0,0.0,0.0,0.0,0.0,0.0,0.0,0.0,0.0,0.0,0.0,0.0,0.0,0.0,0.0,0.0,0.0,0.883,0.8988,0.8563,0.8631,0.8421,0.776,0.7414,0.7229,0.7229,0.6667,0.0,0.0,0.0,0.0,0.0,0.0,0.0,0.0,0.0,0.0,0.0,0.0,0.0,0.0,0.0,0.0,0.0,0.0,0.0,0.0,0.0,0.0,0.0,0.0,0.0,0.0,0.0,0.0,0.0,0.0,0.0,0.0,0.0,0.0,0.0,0.0,0.0,0.0,0.0,0.0,0.0,0.0,0.0,0.0,0.0,0.0,0.0,0.0,0.0,0.0,0.0,0.0,0.0,0.0,0.0,0.0,0.0,0.0,0.0,0.0,0.0,0.0,0.0,0.0,0.0,0.0,0.0,0.0,0.0,0.0,0.0,0.0,0.0,0.0,0.0,0.0,0.0,0.0,0.0,0.0,0.0,0.0,0.0,0.0,0.0,0.0,0.0,0.0,0.0,0.0,0.0,0.0,0.0,0.0,0.0,0.0,0.0,0.0,0.0,0.0,0.0,0.0,0.8604,0.8777,0.0,0.8514,0.8265,0.7801,0.7492,0.724,0.703,0.0,0.0,0.0,0.0,0.0,0.0,0.0,0.0,0.0,0.0,0.0,0.0,0.0,0.0,0.0,0.0,0.0,0.0,0.0,0.0,0.0,0.0,0.0,0.0,0.0,0.0,0.0,0.0,0.0,0.0,0.0,0.0,0.0,0.0,0.0,0.0,0.0,0.0,0.0,0.0,0.0,0.0,0.0,0.0,0.0,0.0,0.0,0.0,0.0,0.0,0.0,0.0,0.0,0.0,0.0,0.0,0.0,0.0,0.0,0.0,0.0,0.0,0.0,0.0,0.0,0.0,0.0,0.0,0.0,0.0,0.0,0.0,0.0,0.0,0.0,0.0,0.0,0.0,0.0,0.0,0.0,0.0,0.0,0.0,0.0,0.0,0.0,0.0,0.0,0.0,0.0,0.0,0.0,0.0,0.0,0.0,0.0,0.0,0.0,0.0,0.0,0.0,0.8093,0.8498,0.8704,0.0,0.844,0.8161,0.7831,0.7461,0.7107,0.6792,0.0,0.0,0.0,0.0,0.0,0.0,0.0,0.0,0.0,0.0,0.0,0.0,0.0,0.0,0.0,0.0,0.0,0.0,0.0,0.0,0.0,0.0,0.0,0.0,0.0,0.0,0.0,0.0,0.0,0.0,0.0,0.0,0.0,0.0,0.0,0.0,0.0,0.0,0.0,0.0,0.0,0.0,0.0,0.0,0.0,0.0,0.0,0.0,0.0,0.0,0.0,0.0,0.0,0.0,0.0,0.0,0.0,0.0,0.0,0.0,0.0,0.0,0.0,0.0,0.0,0.0,0.0,0.0,0.0,0.0,0.0,0.0,0.0,0.0,0.0,0.0,0.0,0.0,0.0,0.0,0.0,0.0,0.0,0.0,0.0,0.0,0.0,0.0,0.0,0.0,0.0,0.0,0.0,0.0,0.0,0.0,0.0,0.0,0.0,0.0,0.0,0.0,0.7894,0.8538,0.8866,0.8541,0.8387,0.8157,0.7827,0.7245,0.6782,0.0,0.0,0.0,0.0,0.0,0.0,0.0,0.0,0.0,0.0,0.0,0.0,0.0,0.0,0.0,0.0,0.0,0.0,0.0,0.0,0.0,0.0,0.0,0.0,0.0,0.0,0.0,0.0,0.0,0.0,0.0,0.0,0.0,0.0,0.0,0.0,0.0,0.0,0.0,0.0,0.0,0.0,0.0,0.0,0.0,0.0,0.0,0.0,0.0,0.0,0.0,0.0,0.0,0.0,0.0,0.0,0.0,0.0,0.0,0.0,0.0,0.0,0.0,0.0,0.0,0.0,0.0,0.0,0.0,0.0,0.0,0.0,0.0,0.0,0.0,0.0,0.0,0.0,0.0,0.0,0.0,0.0,0.0,0.0,0.0,0.0,0.0,0.0,0.0,0.0,0.0,0.0,0.0,0.0,0.0,0.0,0.0,0.0,0.0,0.0,0.0,0.0,0.0,0.7894,0.8456,0.8823,0.8723,0.8297,0.7984,0.7884,0.7317,0.6777,0.6322,0.0,0.0,0.0,0.0,0.0,0.0,0.0,0.0,0.0,0.0,0.0,0.0,0.0,0.0,0.0,0.0,0.0,0.0,0.0,0.0,0.0,0.0,0.0,0.0,0.0,0.0,0.0,0.0,0.0,0.0,0.0,0.0,0.0,0.0,0.0,0.0,0.0,0.0,0.0,0.0,0.0,0.0,0.0,0.0,0.0,0.0,0.0,0.0,0.0,0.0,0.0,0.0,0.0,0.0,0.0,0.0,0.0,0.0,0.0,0.0,0.0,0.0,0.0,0.0,0.0,0.0,0.0,0.0,0.0,0.0,0.0,0.0,0.0,0.0,0.0,0.0,0.0,0.0,0.0,0.0,0.0,0.0,0.0,0.0,0.0,0.0,0.0,0.0,0.0,0.0,0.0,0.0,0.0,0.0,0.0,0.0,0.0,0.0,0.0,0.0,0.0,0.0,0.7894,0.8431,0.8791,0.8791,0.8378,0.8051,0.7907,0.747,0.6958,0.6395,0.0,0.0,0.0,0.0,0.0,0.0,0.0,0.0,0.0,0.0,0.0,0.0,0.0,0.0,0.0,0.0,0.0,0.0,0.0,0.0,0.0,0.0,0.0,0.0,0.0,0.0,0.0,0.0,0.0,0.0,0.0,0.0,0.0,0.0,0.0,0.0,0.0,0.0,0.0,0.0,0.0,0.0,0.0,0.0,0.0,0.0,0.0,0.0,0.0,0.0,0.0,0.0,0.0,0.0,0.0,0.0,0.0,0.0,0.0,0.0,0.0,0.0,0.0,0.0,0.0,0.0,0.0,0.0,0.0,0.0,0.0,0.0,0.0,0.0,0.0,0.0,0.0,0.0,0.0,0.0,0.0,0.0,0.0,0.0,0.0,0.0,0.0,0.0,0.0,0.0,0.0,0.0,0.0,0.0,0.0,0.0,0.0,0.0,0.0,0.0,0.0,0.0,0.7945,0.8451,0.8791,0.8791,0.8563,0.8276,0.7972,0.77,0.7276,0.6677,0.0,0.0,0.0,0.0,0.0,0.0,0.0,0.0,0.0,0.0,0.0,0.0,0.0,0.0,0.0,0.0,0.0,0.0,0.0,0.0,0.0,0.0,0.0,0.0,0.0,0.0,0.0,0.0,0.0,0.0,0.0,0.0,0.0,0.0,0.0,0.0,0.0,0.0,0.0,0.0,0.0,0.0,0.0,0.0,0.0,0.0,0.0,0.0,0.0,0.0,0.0,0.0,0.0,0.0,0.0,0.0,0.0,0.0,0.0,0.0,0.7559,0.0,0.0,0.0,0.0,0.0,0.0,0.0,0.0,0.0,0.0,0.0,0.0,0.0,0.0,0.0,0.0,0.0,0.0,0.0,0.0,0.0,0.0,0.0,0.0,0.0,0.0,0.0,0.0,0.0,0.0,0.0,0.0,0.0,0.0,0.0,0.0,0.0,0.0,0.0,0.0,0.0,0.8262,0.8591,0.8791,0.8791,0.8563,0.8375,0.8296,0.8003,0.7564,0.6957,0.0,0.0,0.0,0.0,0.0,0.0,0.0,0.0,0.0,0.0,0.0,0.0,0.0,0.0,0.0,0.0,0.0,0.0,0.0,0.0,0.0,0.0,0.0,0.0,0.0,0.0,0.0,0.0,0.0,0.0,0.0,0.0,0.0,0.0,0.0,0.0,0.0,0.0,0.0,0.0,0.0,0.0,0.0,0.0,0.0,0.0,0.0,0.0,0.0,0.0,0.0,0.0,0.0,0.0,0.0,0.0,0.0,0.0,0.0,0.0,0.0,0.8139,0.0,0.0,0.0,0.0,0.0,0.0,0.0,0.0,0.0,0.0,0.0,0.0,0.0,0.0,0.0,0.0,0.0,0.0,0.0,0.0,0.0,0.0,0.0,0.0,0.0,0.0,0.0,0.0,0.0,0.0,0.0,0.0,0.0,0.0,0.0,0.0,0.0,0.0,0.0,0.0,0.8362,0.8637,0.8791,0.8791,0.8671,0.8537,0.8409,0.8249,0.7937,0.7466,0.7166,0.0,0.0,0.0,0.0,0.0,0.0,0.0,0.0,0.0,0.0,0.0,0.0,0.0,0.0,0.0,0.0,0.0,0.0,0.0,0.0,0.0,0.0,0.0,0.0,0.0,0.0,0.0,0.0,0.0,0.0,0.0,0.0,0.0,0.0,0.0,0.0,0.0,0.0,0.0,0.0,0.0,0.0,0.0,0.0,0.0,0.0,0.0,0.0,0.0,0.0,0.0,0.0,0.0,0.9774,0.96,1.01,0.8961,0.8632,0.8996,0.927,0.9261,0.8994,0.0,0.0,0.0,0.0,0.0,0.0,0.0,0.0,0.0,0.0,0.0,0.0,0.0,0.0,0.0,0.0,0.0,0.0,0.0,0.0,0.0,0.0,0.0,0.0,0.0,0.9659,0.9714,0.0,0.0,0.0,0.0,0.0,0.0,0.0,0.0,0.0,0.0,0.0,0.0,0.8429,0.8657,0.8791,0.8791,0.8791,0.8711,0.8483,0.8476,0.8336,0.8005,0.7524,0.7224,0.0,0.0,0.0,0.0,0.0,0.0,0.0,0.0,0.0,0.0,0.0,0.0,0.0,0.0,0.0,0.0,0.0,0.0,0.0,0.0,0.0,0.0,0.0,0.0,0.0,0.0,0.0,0.0,0.0,0.0,0.0,0.0,0.9005,0.9684,0.0,0.0,0.0,0.0,0.0,0.0,0.0,0.0,0.0,0.0,0.0,0.0,0.0,0.0,1.0713,1.0484,1.0467,1.0624,1.0305,1.0182,1.0278,1.0494,1.0407,1.009,1.0143,0.0,0.877,0.8913,0.0,0.0,0.0,0.0,0.0,0.0,0.0,0.0,0.0,0.0,0.0,0.0,0.0,0.0,0.0,0.0,0.0,0.0,0.0,0.0,0.0,0.0,1.0466,1.0425,1.0445,1.0459,0.0,0.954,0.8858,0.9058,0.0,0.0,0.0,0.0,0.0,0.0,0.0,0.0,0.8744,0.8784,0.8791,0.8791,0.8791,0.8778,0.8751,0.8751,0.8624,0.8349,0.8261,0.8083,0.7799,0.7752,0.0,0.0,0.0,0.0,0.0,0.0,0.0,0.0,0.0,0.0,0.0,0.0,0.0,0.0,0.0,0.0,0.0,0.0,0.0,0.0,0.0,0.0,0.0,0.0,0.0,0.0,0.0,0.0,0.0,0.8926,0.9656,1.0181,1.0501,1.0658,0.0,0.0,0.0,0.0,0.0,0.0,0.0,0.0,0.0,1.1247,1.1647,1.1765,1.1584,1.1271,1.1273,1.1556,1.0701,1.0602,1.113,1.0776,1.0643,1.069,1.069,1.0432,0.9986,0.9916,0.993,1.0079,0.0,0.0,0.0,0.0,1.2363,1.2211,1.2088,1.1614,0.0,0.0,0.0,0.0,0.0,0.0,0.0,0.0,0.0,0.0,0.0,0.0,0.0,1.0633,1.0609,1.0609,1.0609,1.0184,0.9794,0.0,0.9612,0.9425,0.9078,0.0,0.0,0.0,0.0,0.0,0.8784,0.8791,0.8791,0.8791,0.8791,0.8791,0.8791,0.8791,0.8725,0.8527,0.8336,0.8172,0.8016,0.7871,0.7762,0.0,0.0,0.0,0.0,0.0,0.0,0.0,0.0,0.0,0.0,0.0,0.0,0.0,0.0,0.0,0.0,0.0,0.0,0.0,0.0,0.0,0.0,0.0,0.0,0.0,0.0,0.0,0.0,0.9807,1.0367,1.0825,1.1243,1.1473,0.0,0.0,0.0,0.0,0.0,0.0,1.1359,1.1945,1.222,1.2112,1.2365,1.2464,1.237,1.1884,1.191,1.2368,1.1227,1.1083,1.1771,1.1021,1.0848,1.1132,1.1132,1.1179,1.1243,1.1001,1.0967,1.1167,1.246,1.315,1.3525,1.4292,1.4409,1.4131,1.3672,1.2953,1.213,1.1457,0.0,1.0256,1.0105,0.0,0.0,0.0,0.0,1.1216,1.0814,1.0791,1.0845,1.064,1.0609,1.0609,1.0609,1.0624,1.0573,0.0,1.0234,1.0094,0.9638,0.0,0.0,0.0,0.0,0.8771,0.8885,0.8838,0.8791,0.8791,0.8791,0.8791,0.8791,0.8791,0.8745,0.8613,0.8397,0.8267,0.8228,0.8064,0.8,0.8031,0.0,0.0,0.0,0.0,0.0,0.0,0.0,0.0,0.0,0.0,0.0,0.0,0.0,0.0,0.0,0.0,0.0,0.0,0.0,0.0,0.0,0.0,0.0,0.0,0.0,0.0,0.0,0.0,0.0,1.1846,1.1942,0.0,0.0,0.0,0.0,1.2204,1.2696,1.31,1.3433,1.3489,1.3513,1.3496,1.321,1.3068,1.3051,1.2201,1.2065,1.2576,1.2003,1.1755,1.1802,1.1755,1.1632,1.147,1.147,1.1656,1.1942,1.1998,1.2324,1.2844,1.3631,1.4204,1.459,1.432,1.4222,1.4238,1.4517,1.371,1.277,1.3975,1.3242,1.1949,1.2325,1.1734,0.0,0.0,1.1781,1.1009,1.0998,1.0791,1.0629,1.0593,1.0609,1.0609,1.0609,1.0697,1.0753,0.0,1.0566,1.0575,1.0526,0.0,1.0405,1.0078,0.98,0.9519,0.9224,0.8965,0.8791,0.8791,0.8791,0.8791,0.8791,0.8791,0.8745,0.8613,0.8705,0.8712,0.858,0.8685,0.8631,0.8382,0.8611,0.0,0.0,0.0,0.0,0.0,0.0,0.0,0.0,0.0,0.0,0.0,0.0,0.0,0.0,0.0,0.0,0.0,0.0,0.0,0.0,0.0,0.0,0.0,0.0,0.0,0.0,0.0,0.0,1.1949,1.2226,0.0,0.0,1.2679,1.2838,1.3106,1.3107,1.3156,1.3275,1.3283,1.3283,1.3283,1.3378,1.3426,1.3426,1.2562,1.2386,1.2917,1.1812,1.174,1.2567,1.2259,1.2367,1.2795,1.2795,1.2848,1.3003,1.3491,1.3484,1.3241,1.4064,1.4616,1.493,1.4637,1.4779,1.5021,1.402,1.3623,1.3486,1.3072,1.2684,1.2324,1.1934,1.1553,1.1347,1.1713,1.1553,1.1229,1.1042,1.0932,1.0837,1.0744,1.0728,1.076,1.0886,1.0965,1.098,1.094,1.0823,1.0728,1.0728,1.0479,1.0241,1.0118,0.9873,0.966,0.9539,0.9432,0.9299,0.9078,0.9058,0.8984,0.8811,0.8791,0.8745,0.8613,0.8646,0.8646,0.86,0.8646,0.8672,0.8657,0.8583,0.8277,0.0,0.0,0.0,0.0,0.0,0.0,0.0,0.0,0.0,0.0,0.0,0.0,0.0,0.0,0.0,0.0,0.0,0.0,0.0,0.0,0.0,0.0,0.0,0.0,0.0,0.0,1.2134,1.2494,1.2663,1.2794,1.2925,1.3036,1.3195,1.3418,1.3339,1.3275,1.3275,1.3275,1.3275,1.3275,1.3378,1.3434,1.3434,1.2843,1.2711,1.3067,1.2243,1.2313,1.3155,1.285,1.3064,1.3662,1.3662,1.3731,1.3877,1.4361,1.4225,1.3783,1.464,1.5113,1.5284,1.5106,1.5317,1.5498,1.4084,1.3904,1.4072,1.2862,1.2495,1.2487,1.2216,1.1799,1.1474,1.1775,1.1604,1.1313,1.1207,1.1095,1.1005,1.0918,1.0902,1.0949,1.1075,1.1138,1.1169,1.1169,1.1028,1.0902,1.0902,1.0643,1.0406,1.036,1.011,0.9921,0.9841,0.9761,0.9613,0.9398,0.9371,0.9258,0.8965,0.8938,0.8838,0.8619,0.8646,0.8646,0.86,0.8646,0.8705,0.8791,0.8617,0.8524,0.8511,0.0,0.0,0.0,0.0,0.0,0.0,0.0,0.0,0.0,0.0,0.0,0.0,0.0,0.0,0.0,0.0,0.0,0.0,0.0,0.0,0.0,0.0,0.0,1.3603,1.3273,1.3175,1.3575,1.3265,1.2912,1.2668,1.2941,1.3148,1.3156,1.3442,1.3618,1.3634,1.3601,1.3618,1.3618,1.3307,1.3132,1.314,1.3086,1.3044,1.3036,1.3378,1.3536,1.3528,1.3528,1.3709,1.4025,1.4025,1.4198,1.45,1.45,1.45,1.4573,1.5349,1.5668,1.5668,1.5636,1.5636,1.553,1.4842,1.4614,1.4476,1.3686,1.2986,1.2588,1.3343,1.2571,1.1611,1.2513,1.2021,1.1245,1.1448,1.1306,1.109,1.1106,1.1106,1.1106,1.112,1.123,1.1324,1.1331,1.1229,1.1143,1.1113,1.109,1.1028,1.0839,1.0592,0.0,1.0149,0.9901,0.9735,0.9714,0.9714,0.9579,0.9237,0.9204,0.903,0.8646,0.8738,0.8752,0.8626,0.8745,0.8811,0.8831,0.8811,0.9098,0.9681,0.0,0.0,0.0,0.0,0.0,0.0,0.0,0.0,0.0,0.0,0.0,0.0,0.0,0.0,0.0,0.0,0.0,0.0,0.0,0.0,0.0,0.0,1.4094,1.3664,1.3713,1.3831,1.3957,1.3612,1.3424,1.3608,1.3694,1.3995,1.458,1.4214,1.408,1.4384,1.3887,1.3725,1.4032,1.3942,1.3867,1.3833,1.4096,1.4093,1.3807,1.4188,1.4346,1.431,1.431,1.4322,1.4357,1.4357,1.4417,1.45,1.45,1.45,1.4519,1.4738,1.4836,1.4775,1.429,1.4096,1.4143,1.4421,1.4717,1.4856,1.419,1.3721,1.3369,1.3161,1.2497,1.1891,1.2139,1.1835,1.1432,1.1498,1.1306,1.1122,1.1216,1.1247,1.1336,1.1677,1.1775,1.1873,1.2122,1.2139,1.1929,1.1357,1.1153,1.1075,1.1028,1.0958,0.0,1.0637,1.0547,1.0372,1.0035,1.0,0.988,0.9586,0.9337,0.915,0.9036,0.8891,0.8871,0.9023,0.9064,0.9205,0.9453,0.9218,0.9171,0.0,0.0,0.0,0.0,0.0,0.0,0.0,0.0,0.0,0.0,0.0,0.0,0.0,0.0,0.0,0.0,0.0,0.0,0.0,0.0,0.0,0.0,1.4766,1.5078,1.4546,1.4504,1.447,1.4329,1.395,1.3733,1.3788,1.3943,1.4241,1.4693,1.4503,1.4446,1.4689,1.4297,1.4164,1.4395,1.4412,1.4384,1.4349,1.4725,1.479,1.4573,1.4936,1.5096,1.5063,1.5063,1.504,0.0,1.4827,1.4854,1.4992,1.4827,1.4854,0.0,0.0,0.0,0.0,0.0,1.3911,1.3971,1.4437,1.4568,1.4527,1.4377,1.3838,1.3271,1.3372,1.2749,1.2078,1.2485,1.2212,1.1843,1.1893,1.1807,1.1704,1.1777,1.1794,1.1884,1.2147,1.2207,1.2275,1.2465,1.2502,0.0,1.1875,1.1736,1.1671,1.1613,1.159,1.1532,1.133,1.1187,1.0978,1.0643,1.0483,1.0241,0.9908,0.9692,0.0,0.0,0.0,0.9252,0.9405,0.9411,0.0,0.0,0.0,0.0,0.0,0.0,0.0,0.0,1.041,1.0677,0.0,0.0,0.0,0.0,0.0,0.0,0.0,0.0,0.0,0.0,0.0,0.0,0.0,0.0,0.0,0.0,1.5563,1.6103,1.576,1.5349,1.4984,1.4686,1.4346,1.4012,1.3716,1.4039,1.4305,1.4333,1.4635,1.4825,1.4885,0.0,0.0,0.0,0.0,1.4884,1.4874,1.5221,1.5377,1.5333,1.5678,1.5808,1.5762,1.5762,1.5735,1.5686,1.5322,1.5368,1.5677,1.5313,1.5393,1.5663,1.4864,1.4552,1.453,1.4576,1.4609,1.4654,1.4807,0.0,0.0,1.4573,1.3875,1.3009,1.3925,1.3357,1.2526,1.3224,1.2972,1.2509,1.2543,1.2531,1.2502,1.2502,1.2502,1.2516,1.2553,1.256,1.2567,1.2604,1.2611,1.2611,1.2611,1.2553,1.2458,1.234,1.2323,1.2255,1.2068,1.1771,1.1537,1.1396,0.0,0.0,1.0265,1.0154,0.9992,0.9761,0.9747,0.9747,0.9747,0.9796,0.995,1.0222,1.0586,1.0899,1.1179,1.1485,1.178,1.2058,1.1186,1.1326,0.0,0.0,0.0,0.0,0.0,0.0,0.0,0.0,0.0,0.0,0.0,0.0,0.0,0.0,0.0,1.5828,1.5881,1.578,1.5714,1.5349,1.5086,1.5,1.4936,1.486,1.4804,1.5142,1.5539,1.5858,1.5647,1.5647,1.5982,1.5722,0.0,1.5982,1.599,1.5987,1.5993,1.6378,1.6412,1.6086,0.0,0.0,1.6176,1.6176,1.601,1.5705,1.5622,1.5631,1.568,1.5622,1.5721,1.5886,1.5237,1.4857,1.4718,1.5098,1.5295,1.5434,1.5795,1.582,1.5776,1.6028,1.557,1.4924,1.4899,1.479,0.0,1.3701,1.3608,1.3629,1.3046,1.2699,1.2502,1.2502,1.2502,1.2575,1.2838,1.2896,1.2977,1.3258,1.3309,1.3309,1.3309,1.2852,1.2485,1.2475,1.2458,1.2407,1.2255,1.2188,1.2078,1.1875,1.147,1.1165,1.1078,1.0472,1.0078,1.004,1.0018,1.0018,1.0018,1.0383,1.0742,1.1065,1.1498,1.1887,1.2218,1.275,1.3049,1.3098,1.2322,1.2091,0.0,0.0,0.0,0.0,0.0,0.0,0.0,0.0,0.0,0.0,0.0,1.4029,1.4438,0.0,1.5771,1.5973,1.6001,1.5927,1.5732,1.5603,1.5441,1.5145,1.5102,1.5175,1.5377,1.5762,1.6076,1.6286,1.63,1.6387,1.6595,1.6438,1.6429,1.6586,1.6604,1.66,1.6598,1.6911,1.6953,1.6759,1.7058,1.71,1.6904,1.6904,1.6792,1.6594,1.6389,1.6417,1.6603,1.6603,1.6541,1.6426,1.6122,1.5782,1.5472,1.571,1.5832,1.5949,1.6252,1.6138,1.5909,1.6234,1.5907,1.5476,1.5873,1.5515,1.4896,1.4676,1.449,1.4277,1.3896,1.3685,1.3546,1.3546,1.3274,1.3053,1.3214,1.325,1.3301,1.3462,1.3492,1.3492,1.3492,1.3221,1.3009,1.3009,1.3009,1.2974,1.2911,1.2748,1.2595,1.2422,1.2043,1.1769,1.1652,1.1286,1.1049,1.1049,1.1049,1.1049,1.1049,1.1436,1.1721,1.1898,1.2438,1.2782,1.2943,1.3252,1.3465,1.3586,1.3215,1.3051,0.0,0.0,0.0,0.0,0.0,0.0,0.0,0.0,1.3372,1.3784,1.4379,1.4927,1.525,1.5834,1.6193,1.5951,1.6127,1.62,1.5975,1.5995,1.5887,1.5494,1.545,1.557,1.5894,1.6309,1.6533,1.6533,1.6837,1.7012,1.7012,1.7012,1.7012,1.7012,1.7012,1.7012,1.7012,1.7176,1.7262,1.7262,1.7409,1.7505,1.7505,1.7505,1.7505,1.7486,1.7153,1.7201,1.7505,1.7505,1.7322,1.7052,1.7052,1.6849,1.6542,1.6424,1.6395,1.6478,1.6703,1.6431,1.6055,1.6435,1.6217,1.5958,1.6685,1.6123,1.5331,1.5622,1.5384,1.4976,1.4673,1.4601,1.4601,1.4601,1.4031,1.3546,1.3684,1.3601,1.3492,1.3492,1.3492,1.3492,1.3492,1.3492,1.3492,1.3492,1.3492,1.3492,1.3492,1.3265,1.3068,1.2952,1.2611,1.2292,1.2017,1.2,1.2,1.2,1.2,1.2021,1.2084,1.2326,1.2516,1.2618,1.3148,1.3457,1.3521,1.3634,1.3806,1.4006,1.4006,1.3932,1.3154,1.3154,1.3319,1.4017,1.4079,1.4255,0.0,0.0,1.5385,1.5785,1.5946,1.6021,1.6069,1.6156,1.6303,1.664,1.6404,1.6342,1.6708,1.6431,1.6308,1.6658,1.6706,1.6725,1.6762,1.7124,1.737,1.737,1.7407,1.7436,1.7436,1.7436,1.7436,1.7436,1.7436,1.7436,1.7436,1.7453,1.747,1.747,1.7487,1.7505,1.7505,1.7505,1.7505,1.7505,1.7457,1.7457,1.7505,1.7505,1.7552,1.7605,1.7605,1.7687,1.7728,1.7191,1.7105,1.733,1.7701,1.7777,1.7736,1.7784,1.7743,1.759,1.707,1.7243,1.7356,1.6062,1.6167,1.6332,1.4958,1.4601,1.4601,1.4601,1.4031,1.3684,1.434,1.3967,1.3492,1.3492,1.3492,1.3492,1.3492,1.3492,1.3492,1.3492,1.3492,1.3492,1.3492,1.3462,1.344,1.3422,1.3013,1.2545,1.2038,1.2,1.2,1.2,1.2,1.2136,1.2435,1.2372,1.257,1.3117,1.3368,1.3634,1.3925,1.4474,1.4752,1.4789,1.4789,1.4429,1.4068,1.4293,1.4433,0.0,1.5256,1.5424,1.5707,1.5678,1.5649,1.5819,1.6037,1.6268,1.6507,1.6779,1.693,0.0,1.672,1.6679,1.6869,1.6799,1.6791,1.6999,1.7331,1.7468,1.7265,1.74,1.7505,1.7505,1.7505,1.7505,1.7505,1.7505,1.7505,1.7505,1.7505,1.7505,1.7505,1.7571,1.7623,1.7623,1.7735,1.7796,1.7796,1.7796,1.7796,1.7796,1.7796,1.7796,1.7796,1.7796,1.782,1.7879,1.7879,1.8068,1.8286,1.7806,1.7677,1.7773,1.7949,1.7991,1.7991,1.7991,1.7991,1.794,1.763,1.7459,1.7243,1.6672,1.6759,1.6969,1.6696,1.6643,1.658,1.6345,1.5723,1.5135,1.4937,1.4645,1.4426,1.4426,1.4844,1.5023,1.452,1.4844,1.5031,1.4502,1.39,1.3492,1.3492,1.3492,1.3492,1.3492,1.332,1.3118,1.2891,1.2877,1.2956,1.3143,1.3158,1.332,1.3656,1.3758,1.3929,1.4171,1.4464,1.4664,1.4803,1.4863,1.5002,1.5185,1.5185,1.5131,1.4696,1.5,0.0,1.5639,1.6021,1.6195,1.59,1.595,1.6108,1.6108,1.6332,1.6612,1.692,1.713,1.7231,1.7049,1.7046,1.7085,1.72,1.73,1.7356,1.7356,1.7728,1.7889,1.7659,1.7642,1.7642,1.7642,1.7642,1.7642,1.7642,1.7642,1.769,1.7804,1.7804,1.7871,1.8003,1.8089,1.8132,1.8132,1.829,1.8359,1.8359,1.8225,1.8166,1.8166,1.8166,1.8166,1.8176,1.8362,1.8446,1.8446,1.8498,1.8702,1.8911,1.8624,1.8446,1.8359,1.8359,1.8316,1.8242,1.8184,1.814,1.8076,1.8076,1.7716,1.7348,1.7599,1.7689,1.7767,1.8194,1.8298,1.8212,1.7935,1.7299,1.6575,1.5904,1.5781,1.5646,1.5188,1.58,1.6117,1.5239,1.5616,1.5838,1.5188,1.4434,1.3929,1.3866,1.3719,1.3594,1.3506,1.3579,1.3649,1.3649,1.373,1.3884,1.4118,1.4133,1.4279,1.4609,1.4735,1.4812,1.49,1.5066,1.5191,1.525,1.5104,1.5199,1.5549,1.5629,1.5862,1.4871,0.0,1.5199,1.598,1.6335,1.6465,1.6389,1.6877,1.7344,1.7344,1.7353,1.7363,1.7383,1.7019,1.6872,1.7314,1.7383,1.7529,1.7906,1.7971,1.7971,1.7971,1.7991,1.7991,0.0,1.7974,1.7974,1.7974,1.7974,1.7974,1.7974,1.7974,1.8159,1.8551,1.857,1.8783,1.9248,1.9248,1.9248,1.9248,1.9266,1.9266,1.9256,1.8791,1.8588,1.8588,1.8588,1.8588,1.8635,1.9278,1.9546,1.9564,1.9781,1.9853,1.9863,1.9853,1.9601,1.9266,1.9266,1.909,1.8831,1.8648,1.8451,1.8286,1.8286,1.8286,1.8376,1.8968,1.9151,1.9083,1.8831,1.8773,1.8782,1.8755,1.8202,1.7618,1.7458,1.7488,1.7039,1.5424,1.58,1.6117,1.5239,1.5111,1.513,1.5091,1.5076,1.4984,1.4782,1.431,1.3862,1.3528,1.3796,1.3986,1.3986,1.4279,1.4462,1.447,1.447,1.4616,1.4878,1.464,1.4626,1.4893,1.4648,1.4655,1.4922,1.5228,1.5563,1.5885,1.6228,1.6558,1.4646,0.0,1.5472,1.6316,1.6815,1.7093,1.7077,1.7243,1.7321,1.6996,1.7178,1.7399,1.7399,1.749,1.761,1.7773,1.7803,1.7852,1.7971,1.7991,1.791,1.7627,1.7842,0.0,0.0,0.0,0.0,1.8391,1.841,1.8527,1.8838,1.8857,1.8916,1.9062,1.9072,1.9195,1.9495,1.9495,1.9568,1.9703,1.9703,1.9703,1.9685,1.9535,1.9465,1.9465,1.9465,1.9465,1.9475,1.9715,1.9793,1.9811,1.9865,2.0103,2.0357,2.0357,2.0445,2.0484,1.9904,1.9649,1.9554,1.9483,1.9429,1.9352,1.9352,1.9352,1.9427,1.9776,1.9852,1.9936,2.0252,2.0335,2.0258,1.9982,1.9736,1.9401,1.8823,1.825,1.7702,1.7126,1.7265,1.7364,1.7067,1.7015,1.6777,1.6071,1.5347,1.4871,1.4812,1.4537,1.4279,1.4169,1.4257,1.4323,1.4323,1.4445,1.458,1.4745,1.4767,1.4913,1.5206,1.5147,1.5234,1.5563,1.5461,1.5577,1.5913,1.6015,1.6243,1.6565,1.669,1.6887,1.4761,1.5337,1.582,1.6521,1.7061,1.736,1.7187,1.7292,1.7305,1.7005,1.7187,1.7399,1.7399,1.7471,1.7591,1.7764,1.7793,1.7842,1.7988,1.8059,1.8061,1.7986,1.8247,1.8399,0.0,0.0,0.0,1.8588,1.8762,1.9012,1.9395,1.9414,1.9502,1.9714,1.9742,1.9895,2.0174,2.0174,2.0248,2.0367,2.0367,2.0367,2.0367,2.0216,2.0153,2.0153,2.0153,2.0153,2.0173,2.038,2.0477,2.0477,2.0551,2.0752,2.1037,2.1037,2.1192,2.1306,2.0606,2.0303,2.0198,2.0171,2.0089,2.0001,2.0001,2.0001,2.0078,2.0421,2.0527,2.0648,2.1211,2.1344,2.1285,2.1028,2.0953,2.0741,1.9914,1.9521,1.9186,1.857,1.845,1.837,1.8058,1.7744,1.7306,1.6599,1.5859,1.5298,1.5106,1.4968,1.4845,1.4726,1.4764,1.4791,1.4791,1.4802,1.4904,1.5061,1.5075,1.5221,1.557,1.5585,1.5731,1.6074,1.6074,1.6228,1.6587,1.6587,1.6733,1.7049,1.7049,1.7135,1.5199,1.5757,1.6218,1.6637,1.7077,1.7308,1.6885,1.7155,1.7491,1.7455,1.7481,1.7474,1.7455,0.0,1.6943,1.7416,1.7465,1.7602,1.8005,1.8224,1.8509,0.0,0.0,0.0,0.0,0.0,0.0,1.8766,0.0,1.9454,1.9674,1.9674,1.9936,2.0524,2.061,2.0811,2.1205,2.1224,2.1224,2.1224,2.1224,2.1224,2.1214,2.0839,2.0647,2.0647,2.0647,2.0647,2.0707,2.1282,2.1531,2.1521,2.1731,2.1807,2.1807,2.1807,2.1807,2.175,2.1359,2.1056,2.0832,2.0693,2.0484,2.0273,2.0273,2.0273,2.0401,2.0976,2.1137,2.123,2.1675,2.1807,2.1807,2.1807,2.1807,2.1568,2.0741,2.1175,2.1252,1.962,1.9256,1.8959,1.8078,1.7286,1.6751,1.6718,1.6561,1.6259,1.5712,1.5626,1.5504,1.5195,1.5269,1.5338,1.5338,1.5406,1.5452,1.5452,1.5488,1.5635,1.595,1.5957,1.6125,1.6455,1.6463,1.6617,1.6948,1.6948,1.7079,1.7349,1.7349,1.7349,1.5275,1.5882,1.6567,1.6965,1.7426,1.7822,1.7992,1.8391,1.8637,1.8281,1.8497,1.8627,1.8281,0.0,0.0,1.8657,1.8447,0.0,1.8827,1.8948,0.0,1.9133,0.0,1.9762,1.9891,2.0224,0.0,0.0,2.0209,2.0409,2.0767,2.0787,2.0856,2.1015,2.1044,2.1171,2.1416,2.1559,2.1655,2.1655,2.1655,2.1655,2.1636,2.1542,2.149,2.149,2.149,2.149,2.152,2.1671,2.1712,2.1731,2.1788,2.1807,2.1807,2.1807,2.1807,2.1788,2.1674,2.1602,2.1537,2.1509,2.1446,2.1391,2.1391,2.1391,2.143,2.1582,2.1631,2.1652,2.1776,2.1807,2.1807,2.1807,2.1807,2.175,2.153,2.1136,2.0537,1.9502,1.8789,1.8058,1.7184,1.7387,1.7448,1.6792,1.6919,1.6862,1.6275,1.6073,1.5947,1.5863,1.5891,1.5896,1.5896,1.6145,1.6299,1.6299,1.6518,1.6706,1.6797,1.6797,1.6956,1.7288,1.7288,1.7455,1.7795,1.7795,1.7841,1.79,1.79,1.79,1.5764,1.6361,1.6975,1.7393,1.7835,1.8227,1.8455,1.8689,1.8817,1.8549,1.8573,0.0,1.8298,1.8248,0.0,0.0,0.0,0.0,1.9166,1.9455,1.971,0.0,2.0225,0.0,2.0716,2.0982,2.1208,0.0,2.1087,2.1011,2.13,2.134,2.1378,2.1455,2.1464,2.1531,2.1636,2.1731,2.1807,2.1807,2.1807,2.1807,2.1807,2.1807,2.1807,2.1807,0.0,2.1807,2.1807,2.1807,2.1807,2.1807,2.1807,2.1807,2.1807,2.1807,2.1807,2.1807,2.1807,2.1807,2.1807,2.1807,2.1807,2.1807,2.1807,2.1807,2.1807,2.1807,2.1807,2.1807,2.1807,2.1807,2.1807,2.1807,2.1963,2.2108,2.2108,2.1882,2.1312,2.006,1.897,1.7998,1.7306,1.7595,1.7762,1.7246,1.7358,1.74,1.7059,1.6917,1.6861,1.6861,1.6763,1.6699,1.6699,1.6783,1.6826,1.6826,1.6994,1.7162,1.7307,1.7315,1.7476,1.7819,1.7827,1.7919,1.811,1.811,1.811,1.811,1.811,1.811,1.6449,1.6956,1.7379,1.7851,1.8273,1.8583,1.8583,1.8623,1.8654,1.8593,0.0,1.8131,1.807,1.807,1.81,1.8205,0.0,1.9393,1.9445,1.9959,2.0483,2.0872,2.1084,2.1344,2.1766,2.1807,2.1994,2.2459,2.1799,2.147,2.1705,2.1663,2.1678,2.1788,2.1807,2.1807,2.1807,2.1807,2.1807,2.1807,2.1869,2.1901,2.1901,2.1963,2.1952,2.1901,0.0,0.0,2.1807,2.1807,2.1807,2.1807,2.1807,2.1807,2.1807,2.1807,2.1807,2.1807,2.1807,2.1807,2.1807,2.1807,2.1807,2.1807,2.1807,2.1807,2.1807,2.1807,2.1807,2.1807,2.1807,2.1807,2.1818,2.188,2.2201,2.2511,2.2573,2.2824,2.2533,2.0841,1.9471,1.8456,1.8062,1.788,1.7793,1.7793,1.7832,1.7864,1.7864,1.7824,1.7793,1.7793,1.7648,1.7533,1.7533,1.7359,1.7272,1.7272,1.7289,1.7472,1.775,1.7757,1.7895,1.8195,1.8203,1.8203,1.8203,1.8203,1.8203,1.8203,1.8203,1.8203,1.6798,1.7256,1.7724,1.8204,1.8668,1.9008,1.9008,1.9297,0.0,0.0,1.9246,1.9345,1.8963,1.8885,1.9132,1.984,0.0,0.0,0.0,0.0,2.0976,0.0,0.0,0.0,0.0,0.0,0.0,0.0,0.0,2.2463,2.2885,2.2544,2.2162,2.1818,2.1807,2.1807,2.1807,2.1807,2.1807,2.1788,2.219,2.2377,2.2387,2.277,2.2739,2.2377,2.2377,0.0,2.1807,2.1807,2.1807,2.1807,2.1807,2.1807,2.1807,2.1807,2.1807,2.1807,2.1807,2.1807,2.1807,2.1807,2.1807,2.1807,2.1807,2.1807,2.1807,2.1807,2.1807,2.1807,2.1807,2.1807,2.1901,2.2283,2.2439,2.2604,2.2987,2.2585,2.1795,2.0706,1.9734,1.9059,1.8977,1.8305,1.7793,1.7793,1.8047,1.8208,1.8208,1.7976,1.7793,1.7793,1.7771,1.7749,1.7749,1.7953,1.8096,1.8096,1.835,1.8531,1.8594,1.8594,1.8626,1.8689,1.8689,1.8689,1.8689,1.8689,1.8689,1.8689,1.8689,1.8689,1.7244,1.7714,1.8175,1.8646,1.8756,1.8808,1.9046,0.0,0.0,0.0,1.9285,1.9295,1.8828,1.8942,0.0,1.9323,1.9599,0.0,0.0,0.0,0.0,0.0,0.0,0.0,0.0,0.0,0.0,0.0,0.0,2.3225,2.3204,2.2997,2.2646,2.218,2.2159,2.2159,2.2159,2.2159,2.2294,2.2532,2.2769,2.2853,2.2863,2.3111,2.309,2.2853,2.2853,0.0,2.2159,2.2159,2.2025,2.1807,2.1807,2.1807,2.1807,2.1807,2.1864,2.1959,2.1959,2.2025,2.2101,2.2101,2.1978,2.1807,2.1807,2.1807,2.1807,2.1807,2.1807,2.1807,2.1807,2.1807,2.1921,2.2387,2.2863,2.3339,2.3774,2.3027,2.2028,2.1265,2.0209,1.9365,1.906,1.8633,1.8319,1.8319,1.847,1.855,1.855,1.843,1.8319,1.8319,1.8319,1.8319,1.8319,1.8478,1.855,1.855,1.8709,1.8804,1.8804,1.8804,1.8804,1.8804,1.8804,1.8804,1.8804,1.8804,1.8804,1.8804,1.8804,1.8804,1.7606,1.8035,1.8548,1.9108,1.8901,1.8667,1.915,1.8901,0.0,0.0,1.9025,1.888,1.8611,1.8776,1.8901,0.0,1.9382,2.0076,2.0485,0.0,0.0,0.0,0.0,0.0,0.0,0.0,0.0,0.0,0.0,0.0,2.336,2.336,2.3122,2.2656,2.2542,2.2501,2.2501,2.2501,2.2697,2.3119,2.3317,2.341,2.3421,2.3514,2.3483,2.336,2.336,0.0,0.0,2.256,2.2299,2.1883,2.1921,2.193,2.193,2.193,2.2035,2.2157,2.2157,2.2271,2.2402,2.2402,2.2195,2.193,2.193,2.1902,2.1864,2.1864,2.1826,2.1807,2.1807,2.188,2.2097,2.2656,2.3422,2.4073,2.4179,2.34,2.2514,2.183,2.0687,1.967,1.9208,1.8935,1.8804,1.8804,1.8804,1.8804,1.8804,1.8804,1.8804,1.8804,1.8804,1.8804,1.8804,1.8804,1.8804,1.8804,1.8804,1.8804,1.8804,1.8804,1.8804,1.8804,1.8804,1.8804,1.8804,1.8804,1.8804,1.8804,1.8804,1.8804,1.7688,1.8035,1.8605,1.9513,1.9378,1.916,1.9627,0.0,1.9056,1.9098,1.875,1.8574,1.8973,1.8719,1.8719,1.9533,0.0,2.0506,2.0971,2.1818,0.0,0.0,0.0,0.0,0.0,0.0,0.0,0.0,0.0,0.0,2.3857,2.3836,2.3619,2.3163,2.2718,2.2501,2.2501,2.2501,2.2609,2.2848,2.3697,2.4106,2.4116,2.4556,2.442,2.3836,2.3836,0.0,0.0,2.2686,2.2512,2.2092,2.2271,2.2346,2.2346,2.2346,2.2365,2.2365,2.2365,2.2384,2.2402,2.2402,2.2365,2.2346,2.2346,2.2214,2.2063,2.2063,2.194,2.1807,2.1807,2.2118,2.2656,2.3556,2.4126,2.4221,2.34,2.3132,2.2785,2.1885,2.0921,2.0237,2.0181,1.9409,1.8804,1.8804,1.8804,1.8804,1.8804,1.8804,1.8804,1.8804,1.8804,1.8804,1.8804,1.8804,1.8804,1.8804,1.8804,1.8804,1.8804,1.8804,1.8804,1.8804,1.8804,1.8804,1.8804,1.8804,1.8804,1.8804,1.8804,1.8804,1.848,1.9065,1.9679,2.0069,1.963,1.9222,1.9689,0.0,1.8766,1.9046,1.8953,1.8781,1.8704,1.8538,1.8605,1.9274,1.9506,0.0,2.0951,0.0,0.0,0.0,0.0,0.0,0.0,0.0,0.0,0.0,0.0,0.0,2.4693,2.4556,2.4347,2.3998,2.3798,2.3703,2.3703,2.3703,2.3881,2.4247,2.4628,2.4808,2.4819,2.4999,2.4935,2.4682,2.4682,0.0,0.0,2.3362,2.2958,2.2289,2.2365,2.2402,2.2402,2.2402,2.2478,2.2614,2.2904,2.3077,2.3245,2.3567,2.3664,2.3571,2.3001,2.277,2.2757,2.3041,2.3076,2.2998,2.2998,2.3345,2.3798,2.4166,2.4598,2.4711,2.394,2.3757,2.3345,2.1961,2.1159,2.0538,1.9971,1.9271,1.8804,1.8804,1.8804,1.8804,1.8804,1.8804,1.8804,1.8804,1.8804,1.8804,1.8804,1.8804,1.8804,1.8804,1.8804,1.8804,1.8804,1.8804,1.8804,1.8804,1.8804,1.8804,1.8804,1.8804,1.8804,1.8804,1.8804,1.8804,1.9015,1.9737,2.0434,2.0578,1.9944,1.943,0.0,1.9274,1.8704,1.9036,1.8994,1.8822,1.8636,1.8491,1.8543,1.9025,1.936,1.992,2.0959,2.1783,0.0,0.0,0.0,0.0,0.0,0.0,0.0,0.0,0.0,0.0,0.0,2.519,2.4988,2.4732,2.4583,2.4508,2.4508,2.4508,2.4699,2.5103,2.5242,2.5317,2.5317,2.5317,2.5285,2.52,0.0,0.0,0.0,2.408,2.365,2.2932,2.3,2.2915,2.2797,2.2966,2.2999,2.3059,2.3556,2.3816,2.3997,2.4377,2.4506,2.4414,2.389,2.3592,2.3479,2.3839,2.3885,2.3857,2.3976,2.4252,2.454,2.4658,2.4955,2.5073,2.4594,2.4284,2.3671,2.2262,2.1686,2.1127,2.0243,1.9962,1.9849,1.9766,1.9743,1.9629,1.9294,1.9248,1.9142,1.8827,1.8804,1.8804,1.8804,1.8804,1.8804,1.8804,1.8804,1.8804,1.8804,1.8804,1.8804,1.8804,1.8804,1.8804,1.8804,1.8804,1.8804,1.8804,1.8804,1.8804,1.9108,1.9737,2.0516,2.0982,2.0449,1.9907,2.0299,1.9717,1.9098,1.9108,1.8719,1.8559,1.9015,1.8698,1.8543,1.9025,1.9993,0.0,2.107,2.2479,0.0,0.0,0.0,0.0,0.0,0.0,0.0,0.0,0.0,0.0,0.0,2.558,2.5464,2.5211,2.4732,2.4508,2.4508,2.4508,2.4642,2.492,2.5375,2.5601,2.5601,2.5601,2.5443,0.0,0.0,0.0,0.0,2.4702,2.4555,2.4194,2.4405,2.415,2.3749,2.429,2.4139,2.3779,2.4301,2.4486,2.4486,2.4506,2.4506,2.4574,2.5042,2.4714,2.4194,2.4185,2.4046,2.3993,2.438,2.4508,2.4625,2.5083,2.5189,2.52,2.52,2.4456,2.3574,2.2824,2.2519,2.2145,2.1418,2.1889,2.2268,2.2009,2.1965,2.1565,2.043,2.0272,1.9894,1.892,1.8804,1.8804,1.8804,1.8804,1.8804,1.8804,1.8804,1.8804,1.8804,1.8804,1.8804,1.8804,1.8804,1.8804,1.8804,1.8804,1.8804,1.8804,1.8804,1.8804,1.8615,1.9288,2.0024,2.0169,1.9755,1.944,1.9889,1.9527,1.9125,1.9225,1.911,1.9107,1.9402,1.9313,1.9632,2.0945,2.1434,2.201,0.0,0.0,0.0,0.0,0.0,0.0,0.0,0.0,0.0,0.0,0.0,0.0,0.0,2.5812,2.577,2.5686,2.5534,2.5458,2.5458,2.5458,2.55,2.5594,2.5725,2.5812,2.5812,2.5812,0.0,0.0,0.0,0.0,0.0,2.5041,2.481,2.4416,2.4486,2.4388,2.4268,2.4452,2.4388,2.4323,2.4812,2.4976,2.5031,2.5349,2.5459,2.548,2.5622,2.5307,2.495,2.5267,2.5313,2.5304,2.5415,2.5134,2.4935,2.5537,2.5338,2.4988,2.4988,2.4765,2.4327,2.3596,2.3129,2.2802,2.2561,2.2463,2.2322,2.2031,2.1445,2.0863,2.0362,1.9698,1.9165,1.8827,1.8804,1.8804,1.8804,1.8804,1.8804,1.8804,1.8804,1.8804,1.8804,1.8804,1.8804,1.8804,1.8804,1.8804,1.8804,1.9082,1.9201,1.9193,1.8923,1.8804,1.8304,1.9088,1.9793,1.9793,1.9619,1.9518,1.9799,1.9575,1.9308,1.939,1.9407,1.9423,1.9473,1.9687,2.0186,2.1171,2.1914,2.2762,0.0,0.0,0.0,0.0,0.0,0.0,0.0,0.0,0.0,0.0,0.0,0.0,0.0,2.5895,2.5895,2.5895,2.5895,2.5895,2.5895,2.5895,2.5895,2.5895,2.5895,2.5895,2.5895,2.5895,0.0,0.0,0.0,0.0,0.0,2.5468,2.5304,2.5022,2.5022,2.4933,2.479,2.4956,2.4933,2.4834,2.5304,2.5468,2.5512,2.5797,2.5728,2.5506,2.5506,2.5501,2.5534,2.5819,2.5895,2.5833,2.5601,2.52,2.4946,2.5073,2.5009,2.4903,2.4903,2.5094,2.5073,2.4348,2.4167,2.4081,2.3822,2.3542,2.325,2.2977,2.223,2.1476,2.0903,2.013,1.9477,1.9142,1.892,1.8804,1.8804,1.8804,1.8804,1.8804,1.8804,1.8804,1.8804,1.8804,1.8804,1.8804,1.8939,1.9034,1.9034,1.9288,1.9328,1.9161,1.8907,1.8804,0.0,1.8922,1.9616,1.9647,1.976,1.9867,1.9929,1.9773,0.0,1.9621,1.9621,1.9593,1.9485,1.994,2.0354,2.0375,2.1796,0.0,0.0,0.0,0.0,0.0,0.0,0.0,0.0,0.0,0.0,0.0,0.0,0.0,0.0,2.5895,2.5895,2.5895,2.5895,2.5895,2.5895,2.5895,2.5895,2.5895,2.5895,2.5895,2.5895,2.5895,0.0,0.0,0.0,0.0,0.0,2.5895,2.5895,2.5895,2.5895,2.5622,2.5293,2.5732,2.5591,2.5243,2.5722,2.5874,2.5833,2.5833,2.538,2.4818,2.4818,2.5274,2.577,2.5812,2.5791,2.5612,2.4988,2.4797,2.4594,2.3951,2.4327,2.4839,2.4882,2.5422,2.5728,2.5094,2.5464,2.5686,2.5009,2.4903,2.4797,2.4477,2.3852,2.2982,2.186,2.1257,2.0614,1.9729,1.9211,1.892,1.892,1.885,1.8804,1.8804,1.8804,1.8804,1.8804,1.8804,1.882,1.8844,1.9201,1.9407,1.9431,1.9383,1.9169,1.8844,1.882,1.882,1.6802,0.0,1.774,1.8107,1.8333,1.8648,0.0,1.9524,1.9638,1.9802,1.9818,2.0077,2.0906,2.0899,2.1287,2.2891,2.3528,2.4097,0.0,0.0,0.0,0.0,0.0,0.0,0.0,0.0,0.0,0.0,0.0,0.0,0.0,2.5895,2.5895,2.5895,2.5895,2.5895,2.5895,2.5895,2.5895,2.5895,2.5895,2.5895,2.5895,2.5895,0.0,0.0,0.0,0.0,2.5895,2.5895,2.5895,2.5895,2.5895,2.583,2.5742,2.5863,2.5505,2.5051,2.5684,2.5549,2.5147,2.5147,2.4658,2.4059,2.4059,2.4167,2.4413,2.4988,2.4722,2.4252,2.4102,2.3669,2.3375,2.3714,2.393,2.421,2.4775,2.5422,2.5853,2.5707,2.5791,2.5686,2.5009,2.4903,2.4626,2.3852,2.294,2.2195,2.1761,2.0975,2.0374,2.0155,2.0019,1.9951,1.9951,1.9234,1.8804,1.8804,1.8804,1.8804,1.8804,1.8804,1.8939,1.9241,1.9352,1.9519,1.9773,1.9217,1.9058,1.9256,1.8939,1.8955,1.6398,1.6845,1.7373,1.7637,1.8213,1.886,1.9334,1.9648,1.9862,1.9976,1.9993,2.0237,2.1003,2.1372,2.2052,2.3582,2.427,0.0,0.0,0.0,0.0,0.0,0.0,0.0,0.0,0.0,0.0,0.0,0.0,0.0,0.0,2.5895,2.5895,2.5895,2.5895,2.5895,2.5895,2.5895,2.5895,2.5895,2.5895,2.5728,2.5443,2.5443,2.5443,0.0,0.0,0.0,2.5443,2.5443,2.5242,2.4978,2.5317,2.5443,2.5485,2.5791,2.5485,2.4946,2.5317,2.4988,2.4402,2.4402,2.3918,2.3343,2.3343,2.3093,2.305,2.4091,2.4102,2.3735,2.342,2.3069,2.2816,2.2831,2.3323,2.3908,2.4306,2.52,2.5895,2.5895,2.5895,2.5686,2.5009,2.4616,2.4122,2.3297,2.2432,2.1815,2.1713,2.1064,2.0623,2.0623,2.0428,2.0292,2.0292,1.96,1.9165,1.9165,1.9165,1.905,1.8804,1.8986,1.9241,1.9614,1.9622,1.963,1.9662,1.9264,1.909,1.9121,1.909,1.9185,1.6564,1.7191,1.7781,1.7719,1.859,1.952,1.9567,1.9846,2.0074,2.0102,0.0,2.033,2.0874,2.1813,0.0,0.0,0.0,0.0,0.0,0.0,0.0,0.0,0.0,0.0,0.0,0.0,0.0,0.0,0.0,0.0,0.0,2.5791,2.5749,2.5749,2.5749,2.5749,2.5749,2.5853,2.5853,2.5749,2.5749,2.5401,2.4722,2.4722,2.4722,0.0,0.0,0.0,2.4722,2.4722,2.437,2.3865,2.4477,2.4786,2.4967,2.5538,2.5317,2.4722,2.4594,2.4155,2.3649,2.3649,2.319,2.2618,2.2618,2.2207,2.1954,2.3127,2.3475,2.3355,2.2772,2.2618,2.2463,2.1852,2.2709,2.3671,2.3779,2.4733,2.5612,2.5728,2.5665,2.538,2.469,2.4048,2.342,2.2728,2.2087,2.1696,2.1696,2.1342,2.1109,2.1109,2.0758,2.0518,2.0518,2.0079,1.9799,1.9766,1.9579,1.9304,1.8907,1.9256,1.9606,1.9884,1.9837,1.967,1.9399,1.9399,1.9217,1.8892,1.928,1.9495,1.73,1.7895,1.8195,1.7792,1.8349,1.9116,1.952,1.9769,1.996,2.0074,0.0,0.0,0.0,2.3095,2.3923,0.0,0.0,0.0,0.0,0.0,0.0,0.0,0.0,0.0,0.0,0.0,0.0,0.0,0.0,0.0,0.0,0.0,2.5052,2.5052,2.5052,2.5052,2.5052,2.5623,2.5623,2.5052,2.5052,2.468,2.3973,2.3973,2.3973,0.0,0.0,2.3973,2.3973,2.3973,2.3908,2.3812,2.393,2.4348,2.4903,2.5009,2.4594,2.3887,2.3331,2.3057,2.2947,2.2947,2.2463,2.1874,2.1874,2.1776,2.1754,2.1954,2.2011,2.1998,2.1887,2.1874,2.1843,2.1741,2.2331,2.3113,2.3671,2.3973,2.4306,2.4924,2.4541,2.3918,2.3244,2.3035,2.2706,2.1985,2.1776,2.1696,2.1696,2.1642,2.1597,2.1597,2.153,2.1495,2.1495,2.1042,2.0731,2.0629,1.9551,1.9032,1.9304,1.963,1.9861,1.9892,1.9614,1.9447,1.9399,1.9399,1.9367,1.932,1.9654,1.998,1.6891,1.7502,1.804,1.8071,1.8982,1.9868,1.9813,2.0173,2.0617,2.1036,0.0,0.0,0.0,0.0,0.0,0.0,0.0,0.0,0.0,0.0,0.0,0.0,0.0,0.0,0.0,0.0,0.0,0.0,0.0,0.0,0.0,0.0,2.4903,2.4903,2.4509,2.4306,2.4306,2.4605,2.4807,2.4903,2.4903,2.4316,2.3256,2.3256,2.3256,2.3256,0.0,2.3256,2.3256,2.3256,2.3016,2.2699,2.3103,2.3462,2.3766,2.3766,2.3549,2.3222,2.2904,2.253,2.2264,2.2671,2.2287,2.1696,2.1696,2.1696,2.1696,2.1696,2.1696,2.1696,2.1696,2.1696,2.1696,2.1696,2.2264,2.2882,2.319,2.3551,2.3908,2.4241,2.4038,2.3594,2.2925,2.2803,2.2561,2.1807,2.1696,2.1696,2.1696,2.1696,2.1696,2.1696,2.1696,2.1696,2.1696,2.1275,2.076,2.0186,1.9518,1.9216,1.9391,1.9542,1.9622,1.9622,1.9471,1.9399,1.9399,1.9399,1.9487,1.967,2.0012,2.0241,1.6657,1.7274,1.7973,1.8449,1.9485,2.0362,2.0334,2.0681,2.1215,2.1998,0.0,0.0,0.0,0.0,0.0,0.0,0.0,0.0,0.0,0.0,0.0,0.0,0.0,0.0,0.0,0.0,0.0,0.0,0.0,0.0,0.0,0.0,2.4412,2.4412,2.3854,2.3572,2.3572,2.3714,2.3994,2.4412,2.4412,2.3744,2.253,2.253,2.253,2.253,2.253,2.253,2.253,2.253,2.2198,2.1763,2.2309,2.264,2.2803,2.2803,2.2803,2.2781,2.2605,2.2176,2.1776,2.2353,2.2154,2.1696,2.1696,2.1696,2.1696,2.1696,2.1696,2.1696,2.1696,2.1696,2.1696,2.1696,2.2132,2.2596,2.2759,2.3059,2.3367,2.3519,2.3432,2.3159,2.264,2.253,2.2362,2.1776,2.1696,2.1696,2.1696,2.1696,2.1696,2.1696,2.1696,2.1674,2.1553,2.1289,2.0732,1.9828,1.9629,1.951,1.9399,1.9399,1.9431,1.9511,1.9439,1.9439,1.9511,1.9598,1.9765,2.002,2.0353,2.0519,1.7393,1.7978,1.846,1.8926,1.9239,1.9737,2.1002,2.1142,2.1314,2.2418,0.0,0.0,0.0,0.0,0.0,0.0,0.0,0.0,0.0,0.0,0.0,0.0,0.0,0.0,0.0,0.0,0.0,0.0,0.0,0.0,0.0,0.0,0.0,2.2947,2.2904,2.286,2.286,2.3485,2.3507,2.2947,2.2947,2.253,2.1785,2.1785,2.1785,2.1785,2.1785,2.1785,2.1785,2.1785,2.1754,2.1718,2.1763,2.2207,2.2803,2.2803,2.2803,2.2706,2.203,2.1741,2.1718,2.1763,2.1741,2.1696,2.1696,2.1696,2.1696,2.1696,2.1696,2.1696,2.1696,2.1696,2.1696,2.1696,2.1741,2.1976,2.264,2.2287,2.2043,2.275,2.2331,2.1843,2.1776,2.1785,2.1763,2.1718,2.1696,2.1696,2.1696,2.1696,2.1696,2.1696,2.1696,2.153,2.1087,2.1311,2.1112,2.0286,2.0133,1.9848,1.9423,1.9399,1.9542,1.9845,1.955,1.955,1.9853,2.0187,2.0329,2.0361,2.0718,2.0859,1.6798,1.7631,1.8439,1.8615,1.9332,2.0191,2.1037,2.1675,2.2535,2.4003,2.4571,0.0,0.0,0.0,0.0,0.0,0.0,0.0,0.0,0.0,0.0,0.0,0.0,0.0,0.0,0.0,0.0,0.0,0.0,0.0,0.0,0.0,0.0,2.2803,2.2353,2.2109,2.2109,2.2366,2.2366,2.2109,2.2583,2.2397,2.1696,2.1696,2.1696,2.1696,2.1696,2.1696,2.1696,2.1696,2.1696,2.1696,2.1696,2.1874,2.2109,2.2109,2.2109,2.2087,2.1807,2.1696,2.1696,2.1696,2.1696,2.1696,2.1696,2.1696,2.1696,2.1696,2.1696,2.1696,2.1696,2.1696,2.1696,2.1696,2.1696,2.1785,2.2052,2.1887,2.1785,2.2065,2.1896,2.1696,2.1696,2.1696,2.1696,2.1696,2.1696,2.1696,2.1696,2.1696,2.1696,2.1696,2.1696,2.162,2.1463,2.1554,2.1369,2.0767,2.062,2.035,1.9993,1.9676,1.9677,2.0012,1.9621,1.967,2.0219,2.0354,2.0512,2.0701,2.0836,2.0899,1.6591,1.7476,1.8429,1.8574,1.9624,2.0785,2.1395,2.2189,2.3282,2.4955,2.5625,2.6205,2.7118,0.0,0.0,0.0,0.0,0.0,0.0,0.0,0.0,0.0,0.0,0.0,0.0,0.0,0.0,0.0,0.0,0.0,0.0,0.0,0.0,0.0,2.1963,2.1696,2.1696,2.1696,2.1696,2.1718,2.2198,2.2198,2.1696,2.1696,2.1696,2.1696,2.1696,2.1696,2.1696,2.1696,2.1696,2.1696,2.1696,2.1696,2.1696,2.1696,2.1696,2.1696,2.1696,2.1696,2.1696,2.1696,2.1696,2.1696,2.1696,2.1696,2.1696,2.1696,2.1696,2.1696,2.1696,2.1696,2.1696,2.1696,2.1696,2.1723,2.1851,2.1901,2.1901,2.1901,2.1901,2.1856,2.1714,2.1696,2.1696,2.1696,2.1696,2.1696,2.1696,2.1696,2.1696,2.1696,2.1696,2.1696,2.1696,2.1696,2.1553,2.1253,2.1255,2.1038,2.0517,2.018,2.016,2.0453,2.0142,2.015,2.0559,2.0559,2.0686,2.0899,2.0899,2.0899,1.6991,1.7683,1.8501,1.8984,2.01,2.1344,2.2273,2.2667,2.3292,2.4966,2.599,2.6715,2.7195,0.0,0.0,0.0,0.0,0.0,0.0,0.0,0.0,0.0,0.0,0.0,0.0,0.0,0.0,0.0,0.0,0.0,0.0,0.0,0.0,0.0,2.1696,2.1696,2.1696,2.1696,2.1696,2.1696,2.1696,2.1696,2.1696,2.1696,2.1696,2.1696,2.1696,2.1696,2.1696,2.1696,2.1696,2.1696,2.1696,2.1696,2.1696,2.1696,2.1696,2.1696,2.1696,2.1696,2.1696,2.1696,2.1696,2.1696,2.1696,2.1696,2.1696,2.1696,2.1696,2.1696,2.1696,2.1718,2.1718,2.1718,2.1705,2.1806,2.2222,2.2304,2.2304,2.2304,2.2295,2.2176,2.176,2.1696,2.1696,2.1696,2.1696,2.1696,2.1696,2.1696,2.1696,2.1696,2.1696,2.1696,2.1696,2.1696,2.1718,2.1718,2.2085,2.1891,2.0956,2.091,2.1009,2.1213,2.1205,2.1112,2.0899,2.0899,2.0899,2.0899,2.0899,2.0899,1.6649,1.7098,0.0,1.845,0.0,0.0,0.0,2.2903,0.0,0.0,2.5776,2.554,2.603,0.0,0.0,0.0,0.0,0.0,0.0,0.0,0.0,0.0,0.0,0.0,0.0,0.0,0.0,0.0,0.0,0.0,0.0,0.0,0.0,0.0,2.1696,2.1696,2.1696,2.1696,2.1696,2.1696,2.1696,2.1696,2.1696,2.1696,2.1696,2.1696,2.1696,2.1696,2.1696,2.1696,2.1696,2.1696,2.1696,2.1696,2.1696,2.1696,2.1696,2.1696,2.1696,2.1696,2.1696,2.1696,2.1696,2.1696,2.1696,2.1696,2.1696,2.1696,2.1696,2.1782,2.2057,2.2121,2.2121,2.2121,2.2336,2.2584,2.2693,2.2492,2.2304,2.2304,2.2075,2.1833,2.1714,2.1696,2.1696,2.1696,2.1696,2.1696,2.1696,2.1696,2.1696,2.1696,2.1696,2.1696,2.1696,2.1975,2.2121,2.2121,2.2492,2.2467,2.19,2.1848,2.1944,2.2256,2.1937,2.1653,2.1445,2.1445,2.1275,2.0899,2.0899,2.0899,1.7445,1.7878,0.0,1.9517,2.0651,2.1748,2.2564,0.0,0.0,0.0,0.0,2.505,0.0,0.0,0.0,0.0,0.0,0.0,0.0,0.0,0.0,0.0,0.0,0.0,0.0,0.0,0.0,0.0,0.0,0.0,0.0,0.0,0.0,0.0,2.1696,2.1696,2.1696,2.1696,2.1696,2.1696,2.1696,2.1696,2.1696,2.1696,2.1696,2.1696,2.1696,2.1696,2.1696,2.1696,2.1696,2.1696,2.1696,2.1696,2.1696,2.1696,2.1696,2.1696,2.1696,2.1696,2.1696,2.1696,2.1696,2.1696,2.1696,2.1696,2.1696,2.1696,2.1828,2.198,2.224,2.2543,2.2744,2.2588,2.2721,2.295,2.3105,2.2821,2.2529,2.2529,2.2199,2.1901,2.1723,2.1696,2.1696,2.1696,2.1696,2.1696,2.1696,2.1696,2.1696,2.1696,2.1696,2.1751,2.1906,2.2167,2.2378,2.2519,2.2913,2.3023,2.2799,2.2735,2.2786,2.2934,2.2663,2.2345,2.2021,2.1801,2.1522,2.1224,2.0994,2.097,1.8756,1.9313,2.001,2.1422,2.2303,0.0,2.4374,2.4315,2.413,2.4654,0.0,0.0,0.0,0.0,0.0,0.0,0.0,0.0,0.0,0.0,0.0,0.0,0.0,0.0,0.0,0.0,0.0,0.0,0.0,0.0,0.0,0.0,0.0,0.0,2.1696,2.1696,2.1696,2.1696,2.1696,0.0,2.1696,2.1696,2.1696,2.1696,2.1696,2.1696,2.1696,2.1696,2.1696,2.1696,2.1696,2.1696,2.1696,2.1696,2.1696,2.1696,2.1696,2.1696,2.1696,2.1696,2.1696,2.1696,2.1696,2.1696,2.1696,2.1696,2.1696,2.1696,2.1993,2.2314,2.235,2.2913,2.3416,2.3096,2.3014,2.3105,2.3425,2.3187,2.2895,2.2858,2.251,2.214,2.1751,2.1696,2.1696,2.1696,2.1696,2.1696,2.1696,2.1696,2.1696,2.1696,2.1696,2.1851,2.2268,2.2341,2.2543,2.2931,2.3334,2.3544,2.3544,2.3544,2.3523,2.3379,2.3379,2.3104,2.2577,2.2072,2.1827,2.1751,2.1224,2.1159,1.8093,1.8383,0.0,0.0,2.2314,2.312,2.3469,2.2906,2.274,2.4241,0.0,0.0,0.0,0.0,0.0,0.0,0.0,0.0,0.0,0.0,0.0,0.0,0.0,0.0,0.0,0.0,0.0,0.0,0.0,0.0,0.0,0.0,0.0,2.1696,2.1696,2.1696,2.1696,2.1696,2.1696,0.0,2.1696,2.1696,2.1696,2.1696,2.1696,2.1696,2.1696,2.1696,2.1696,2.1696,2.1696,2.1696,2.1696,2.1696,2.1696,2.1696,2.1696,2.1696,2.1696,2.1696,2.1696,2.1696,2.1696,2.1696,2.1696,2.1696,2.1696,2.1696,2.1993,2.2378,2.2684,2.3133,2.3578,2.384,2.392,2.3831,2.3569,2.3187,2.2812,2.2497,2.2089,2.1797,2.1705,2.1696,2.1696,2.1696,2.1696,2.1696,2.1696,2.1696,2.1696,2.1696,2.1696,2.1851,2.2268,2.2584,2.294,2.3343,2.3804,2.4048,2.4048,2.4048,2.4036,2.4019,2.4003,2.3721,2.3129,2.3004,2.2753,2.2325,2.1776,2.1752,1.8586,0.0,0.0,2.1817,0.0,2.366,2.3258,2.2391,2.1989,0.0,0.0,0.0,0.0,0.0,0.0,0.0,0.0,0.0,0.0,0.0,0.0,0.0,0.0,0.0,0.0,0.0,0.0,0.0,0.0,0.0,0.0,2.1696,2.1696,2.1696,2.1696,2.1696,2.1696,2.1696,2.1696,2.1696,2.1696,2.1696,2.1696,2.1696,2.1696,2.1696,2.1696,2.1776,2.1874,2.1754,2.1785,2.1874,2.1754,2.1696,2.1696,2.1696,2.1696,2.1696,2.1696,2.1696,2.1696,2.1696,2.1696,2.1696,2.1696,2.1696,2.1696,2.1696,2.2126,2.2629,2.2849,2.3367,2.384,2.3859,2.403,2.4067,2.3605,2.3187,2.2785,2.2387,2.1984,2.1696,2.1696,2.1696,2.1696,2.1696,2.1696,2.1696,2.1696,2.1696,2.1696,2.1696,2.1696,2.1934,2.2529,2.2785,2.316,2.3804,2.4058,2.4202,2.4202,2.4202,2.4202,2.4202,2.4202,2.4053,2.3737,2.3429,2.3154,2.2862,2.2265,2.2196,1.9046,2.0126,2.1322,2.2659,2.3607,0.0,2.314,2.2196,2.1535,0.0,0.0,0.0,0.0,0.0,0.0,0.0,0.0,0.0,0.0,0.0,0.0,0.0,0.0,0.0,0.0,0.0,0.0,0.0,0.0,0.0,2.1696,2.1696,2.1696,2.1696,2.1696,2.1696,2.1696,2.1696,2.1696,2.1696,2.1696,2.1696,2.1696,2.1696,2.1696,2.1696,2.1696,2.183,2.2008,2.1776,2.183,2.2008,2.1785,2.1696,2.1696,2.1696,2.1696,2.1696,2.1696,2.1696,2.1696,2.1696,2.1696,2.1696,2.1696,2.1696,2.1696,2.1696,2.2282,2.2904,2.2904,2.3501,2.3984,2.3596,2.3749,2.3856,2.3394,2.3023,2.2675,2.2277,2.1938,2.1696,2.1696,2.1696,2.1696,2.1696,2.1696,2.1696,2.1696,2.1696,2.1723,2.181,2.1797,2.2126,2.294,2.3004,2.3349,2.4156,2.4202,2.4202,2.4202,2.4202,2.4202,2.4202,2.4202,2.4202,2.4202,2.3687,2.3448,2.3394,2.2732,2.2597,1.7807,0.0,2.1255,0.0,2.2808,2.2897,0.0,0.0,0.0,0.0,0.0,0.0,0.0,0.0,0.0,0.0,0.0,0.0,0.0,0.0,0.0,0.0,0.0,0.0,0.0,0.0,0.0,0.0,0.0,0.0,2.1696,2.1696,2.1696,2.1696,2.1696,2.1696,2.1696,2.1696,2.1696,2.1696,2.1696,2.1696,2.1696,2.1696,2.1696,2.1696,2.1696,2.1718,2.1754,2.1709,2.1718,2.1741,2.1709,2.1696,2.1696,2.1696,2.1696,2.1696,2.1696,2.1696,2.1696,2.1696,2.1696,2.1696,2.1696,2.1696,2.1696,2.1696,2.2282,2.2904,2.2904,2.3242,2.3587,2.3508,2.3279,2.295,2.2552,2.2424,2.2268,2.1874,2.1733,2.1696,2.1696,2.1696,2.1696,2.1696,2.1696,2.1696,2.1696,2.1696,2.1824,2.2185,2.2222,2.2552,2.3343,2.3416,2.3633,2.4174,2.4202,2.4202,2.4202,2.4202,2.4202,2.4202,2.4202,2.4202,2.4202,2.4127,2.4001,2.381,2.3246,2.3091,1.822,1.9459,2.0669,0.0,2.2188,2.2383,2.1995,0.0,0.0,0.0,0.0,0.0,0.0,0.0,0.0,0.0,0.0,0.0,0.0,0.0,0.0,0.0,0.0,0.0,0.0,0.0,0.0,0.0,0.0,2.1696,2.1696,2.1696,2.1696,2.1696,2.1696,2.1696,2.1696,2.1696,2.1696,2.1696,2.1696,2.1696,2.1696,2.1696,2.1696,2.1696,2.1696,2.1785,2.1919,2.1763,2.1785,2.1919,2.1763,2.1696,2.1696,2.1696,2.1696,2.1696,2.1696,2.1696,2.1696,2.1696,2.1696,2.1696,2.1696,2.1696,2.1696,2.1696,2.2282,2.2904,2.2904,2.3197,2.3444,2.3215,2.2849,2.2446,2.2057,2.2149,2.2185,2.1791,2.1696,2.1696,2.1696,2.1696,2.1696,2.1696,2.1696,2.1696,2.1696,2.1696,2.1842,2.2259,2.2304,2.2634,2.3425,2.3499,2.3688,2.4174,2.4202,2.4202,2.4202,2.4202,2.4202,2.4202,2.4202,2.4202,2.4202,2.444,2.4314,2.3898,2.3782,2.3565,0.0,0.0,1.9652,2.0806,2.1512,2.189,0.0,0.0,0.0,0.0,0.0,0.0,0.0,0.0,0.0,0.0,0.0,0.0,0.0,0.0,0.0,0.0,0.0,0.0,0.0,0.0,0.0,0.0,0.0,2.1696,2.1696,2.1696,2.1696,2.1696,2.1608,2.1608,2.1696,2.1696,2.1696,2.1696,2.1696,2.1696,2.1696,2.1776,2.1807,2.1807,2.1741,2.1807,2.1985,2.1785,2.183,2.1985,2.1785,2.1696,2.1696,2.1696,2.1696,2.1696,2.1696,2.1696,2.1696,2.1696,2.1696,2.1696,2.1696,2.1696,2.1714,2.1815,2.2355,2.2931,2.3032,2.3197,2.327,2.2977,2.251,2.2075,2.1751,2.1947,2.2066,2.1751,2.1696,2.1696,2.1696,2.1696,2.1696,2.1696,2.1696,2.1696,2.1696,2.1696,2.1879,2.2405,2.246,2.279,2.3605,2.3678,2.3831,2.4183,2.4202,2.4202,2.4202,2.4202,2.4202,2.4202,2.4202,2.4202,2.4202,2.4599,2.4541,2.4049,2.4136,2.3928,0.0,1.7023,0.0,1.9598,2.0581,0.0,0.0,0.0,0.0,0.0,0.0,0.0,0.0,0.0,0.0,0.0,0.0,0.0,0.0,0.0,0.0,0.0,0.0,0.0,0.0,0.0,0.0,0.0,0.0,2.1696,2.1696,2.1696,2.1696,2.1696,2.1324,2.1306,2.1709,2.1696,2.1696,2.1696,2.1696,2.1696,2.1718,2.1963,2.2074,2.2074,2.1807,2.1718,2.1718,2.1718,2.1718,2.1718,2.1718,2.1696,2.1696,2.1696,2.1696,2.1696,2.1696,2.1696,2.1696,2.1696,2.1696,2.1696,2.1696,2.1696,2.1769,2.2167,2.2565,2.2995,2.337,2.3197,2.2931,2.2913,2.23,2.1723,2.1696,2.1727,2.1723,2.1696,2.1696,2.1696,2.1696,2.1696,2.1696,2.1696,2.1696,2.1696,2.1696,2.1696,2.1998,2.2794,2.2876,2.322,2.4076,2.4165,2.4183,2.4202,2.4202,2.4202,2.4202,2.4202,2.4202,2.4202,2.4202,2.4202,2.4202,2.4599,2.4686,2.4456,2.4284,2.4071,1.57,0.0,0.0,1.8411,1.9547,2.0436,0.0,0.0,0.0,0.0,0.0,0.0,0.0,0.0,0.0,0.0,0.0,0.0,0.0,0.0,0.0,0.0,0.0,0.0,0.0,0.0,0.0,0.0,0.0,0.0,2.1696,2.1696,2.1696,2.1696,2.1306,2.1062,2.094,2.1187,2.1306,2.1315,2.1581,2.1696,2.1696,2.1807,2.1852,2.1852,2.1741,2.1807,2.1941,2.1776,2.1696,2.1696,2.1696,2.1696,2.1696,2.1696,2.1696,2.1696,2.1696,2.1696,2.1696,2.1696,2.1696,2.1696,2.1696,2.1696,2.1769,2.2195,2.2584,2.294,2.3087,2.3014,2.2776,2.2254,2.1906,2.1696,2.1696,2.1696,2.1696,2.1696,2.1696,2.1696,2.1696,2.1696,2.1696,2.1696,2.1696,2.1696,2.1696,2.1696,2.2007,2.2821,2.2904,2.3257,2.4137,2.4202,2.4202,2.4202,2.4202,2.4202,2.4202,2.4202,2.4202,2.4202,2.4202,2.4202,2.4202,2.4599,2.4695,2.4491,2.4292,2.408,1.5313,1.579,0.0,0.0,0.0,1.9511,0.0,0.0,0.0,0.0,0.0,0.0,0.0,0.0,0.0,0.0,0.0,0.0,0.0,0.0,0.0,0.0,0.0,0.0,0.0,0.0,0.0,0.0,0.0,0.0,2.1508,2.1636,2.159,2.1315,2.1159,2.083,2.0308,2.0821,2.1108,2.1086,2.1517,2.1696,2.1718,2.1865,2.1887,2.1852,2.1919,2.1963,2.1963,2.1776,2.1696,2.1696,2.1696,2.1696,2.1696,2.1696,2.1696,2.1696,2.1696,2.1696,2.1696,2.1696,2.1696,2.1696,2.1696,2.1696,2.1806,2.2336,2.2693,2.294,2.3068,2.2904,2.2529,2.1851,2.1696,2.1696,2.1696,2.1696,2.1696,2.1696,2.1696,2.1696,2.1696,2.1696,2.1696,2.1696,2.1696,2.1696,2.1696,2.1806,2.2153,2.2831,2.3023,2.3404,2.4146,2.4202,2.4202,2.4202,2.4202,2.4202,2.4202,2.4202,2.4202,2.4202,2.4202,2.4275,2.4388,2.4672,2.4798,2.4788,2.4381,2.397,0.0,0.0,0.0,0.0,0.0,0.0,0.0,0.0,0.0,0.0,0.0,0.0,0.0,0.0,0.0,0.0,0.0,0.0,0.0,0.0,0.0,0.0,0.0,0.0,0.0,0.0,0.0,0.0,0.0,2.1508,2.1126,2.1471,2.1324,2.0527,2.0879,2.0683,1.9914,2.0665,2.1089,2.1086,2.1498,2.1678,2.1718,2.2176,2.2287,2.2119,2.2287,2.2132,2.1709,2.1696,2.1696,2.1696,2.1696,2.1696,2.1696,2.1696,2.1696,2.1696,2.1696,2.1696,2.1696,2.1696,2.1696,2.1696,2.1696,2.1705,2.1879,2.2684,2.2922,2.3004,2.338,2.29,2.2185,2.1778,2.1696,2.1696,2.1696,2.1696,2.1696,2.1696,2.1696,2.1696,2.1696,2.1696,2.1696,2.1696,2.1696,2.1696,2.1727,2.2057,2.2451,2.2876,2.3251,2.3669,2.4165,2.4202,2.4202,2.4202,2.4202,2.4202,2.4202,2.4202,2.4211,2.422,2.422,2.4431,2.4829,2.481,2.5012,2.5399,2.4586,2.3786,1.4643,0.0,0.0,0.0,0.0,0.0,0.0,0.0,0.0,0.0,0.0,0.0,0.0,0.0,0.0,0.0,0.0,0.0,0.0,0.0,0.0,0.0,0.0,0.0,0.0,0.0,0.0,0.0,2.0766,2.0903,2.1099,2.1218,2.1022,2.0518,2.0326,2.0134,1.9914,2.0124,2.0518,2.1108,2.1205,2.1425,2.1696,2.182,2.1963,2.2097,2.1954,2.1941,2.1963,2.1785,2.1696,2.1696,2.1696,2.1696,2.1696,2.1696,2.1696,2.1696,2.1696,2.1696,2.1696,2.1696,2.1696,2.1696,2.1696,2.1888,2.2249,2.2757,2.3114,2.3288,2.3114,2.2465,2.1846,2.1723,2.1696,2.1696,2.1696,2.1696,2.1696,2.1696,2.1696,2.1696,2.1696,2.1696,2.1696,2.1696,2.1696,2.1819,2.2103,2.1984,2.2236,2.3224,2.3169,2.3376,2.4146,2.4202,2.4202,2.4202,2.4202,2.4202,2.4202,2.4202,2.4349,2.4627,2.4636,2.4829,2.5232,2.4948,2.5159,2.5803,2.4998,2.4056,1.4738,1.4928,0.0,0.0,0.0,0.0,0.0,1.855,0.0,0.0,0.0,0.0,0.0,0.0,0.0,0.0,0.0,0.0,0.0,0.0,0.0,0.0,0.0,0.0,0.0,0.0,0.0,2.0527,2.0656,2.0775,2.086,2.0839,2.0729,2.05,2.0271,2.0152,2.0152,2.0152,2.039,2.0839,2.0839,2.1059,2.1453,2.1563,2.173,2.1941,2.1896,2.1896,2.1919,2.1763,2.1696,2.1696,2.1696,2.1696,2.1696,2.1696,2.1696,2.1696,2.1696,2.1696,2.1696,2.1696,2.1696,2.1696,2.1696,2.1993,2.2387,2.2785,2.3187,2.3407,2.3004,2.2419,2.192,2.1733,2.1696,2.1696,2.1696,2.1696,2.1696,2.1696,2.1696,2.1696,2.1696,2.1696,2.1696,2.1696,2.1833,2.2039,2.2268,2.2396,2.2712,2.3416,2.3468,2.3648,2.4165,2.4202,2.4202,2.4202,2.4202,2.4202,2.4202,2.4367,2.4553,2.4801,2.4966,2.5251,2.5645,2.5251,2.5249,2.5621,2.5329,2.4545,1.5166,1.5203,0.0,0.0,0.0,0.0,1.8128,1.8494,0.0,0.0,0.0,0.0,0.0,0.0,0.0,0.0,0.0,0.0,0.0,0.0,0.0,0.0,0.0,0.0,0.0,2.1108,2.0921,2.0527,2.0857,2.0912,2.0518,2.05,2.05,2.05,2.0454,2.0472,2.0564,2.0518,2.0518,2.0564,2.0518,2.0701,2.1108,2.1355,2.1556,2.1763,2.1963,2.1941,2.1741,2.1709,2.1696,2.1696,2.1696,2.1696,2.1696,2.1696,2.1696,2.1696,2.1696,2.1696,2.1696,2.1696,2.1696,2.1696,2.1696,2.1993,2.2396,2.284,2.3224,2.3416,2.3059,2.262,2.2213,2.1842,2.1723,2.1696,2.1696,2.1696,2.1696,2.1696,2.1696,2.1696,2.1696,2.1696,2.1696,2.1696,2.1989,2.2249,2.2295,2.2913,2.3407,2.3544,2.3957,2.4238,2.433,2.4293,2.4275,2.4275,2.4229,2.422,2.4266,2.4608,2.4847,2.4939,2.5333,2.571,2.6085,2.571,2.5402,2.5191,2.5528,2.51,0.0,0.0,0.0,0.0,0.0,0.0,0.0,1.7275,0.0,0.0,0.0,0.0,0.0,0.0,0.0,0.0,0.0,0.0,0.0,0.0,0.0,0.0,0.0,0.0,0.0,2.1108,2.0921,2.0527,2.0857,2.0912,2.0518,2.05,2.05,2.05,2.0189,2.0326,2.0989,2.0656,2.0656,2.0989,2.0647,2.0701,2.1108,2.1151,2.1499,2.2008,2.1852,2.1874,2.2008,2.1785,2.1696,2.1696,2.1696,2.1696,2.1696,2.1696,2.1696,2.1696,2.1696,2.1696,2.1696,2.1696,2.1696,2.1696,2.1696,2.1993,2.2451,2.3169,2.3435,2.348,2.3398,2.2831,2.2277,2.2204,2.1947,2.1696,2.1696,2.1696,2.1696,2.1696,2.1696,2.1696,2.1696,2.1696,2.1696,2.1696,2.1782,2.1925,2.2259,2.2442,2.2942,2.3957,2.4156,2.4468,2.5104,2.4865,2.4682,2.4682,2.4395,2.4358,2.4672,2.4764,2.5104,2.5746,2.6169,2.6389,2.6463,2.6389,2.6109,2.5572,2.5643,2.5321,0.0,0.0,0.0,1.6541,0.0,0.0,0.0,0.0,1.7669,0.0,0.0,0.0,0.0,0.0,0.0,0.0,0.0,0.0,0.0,0.0,0.0,0.0,0.0,0.0,0.0,2.1398,2.1233,2.0821,2.0793,2.0701,2.0509,2.0308,2.0298,2.0491,2.0115,2.0198,2.0784,2.0399,2.0308,2.0491,2.0088,2.0228,2.0793,2.0793,2.1197,2.1896,2.1763,2.1785,2.1896,2.1763,2.1696,2.1696,2.1696,2.1696,2.1696,2.1696,2.1696,2.1696,2.1696,2.1696,2.1696,2.1696,2.1696,2.1696,2.1696,2.2117,2.2757,2.362,2.3849,2.3804,2.3544,2.3041,2.2538,2.235,2.198,2.1696,2.1696,2.1696,2.1696,2.1696,2.1696,2.1696,2.1696,2.1696,2.1696,2.1696,2.2034,2.23,2.2304,2.2859,2.3498,2.4137,2.4395,2.4737,2.5343,2.503,2.481,2.481,2.4406,2.4395,2.4792,2.4994,2.548,2.6288,2.6508,2.6591,2.6591,2.6591,2.6446,2.6163,2.6163,2.5825,0.0,0.0,0.0,0.0,0.0,1.7367,0.0,0.0,0.0,1.8247,0.0,0.0,0.0,0.0,0.0,0.0,0.0,0.0,0.0,0.0,0.0,0.0,0.0,0.0,0.0,2.1504,2.1407,2.1224,2.0766,2.0527,2.0601,2.0234,2.017,2.0491,2.0115,2.0097,2.0491,2.0179,1.9987,1.9905,1.9566,1.9769,2.039,2.0463,2.0903,2.1599,2.1682,2.1696,2.1696,2.1696,2.1696,2.1696,2.1696,2.1696,2.1696,2.1696,2.1696,2.1696,2.1696,2.1696,2.1696,2.1696,2.1696,2.1696,2.1696,2.2263,2.3041,2.3739,2.4058,2.4085,2.3623,2.3197,2.2803,2.2405,2.198,2.1696,2.1696,2.1696,2.1696,2.1696,2.1696,2.1696,2.1696,2.1696,2.1696,2.1696,2.2254,2.2547,2.2231,2.3208,2.4012,2.4183,2.4627,2.5086,2.548,2.515,2.4884,2.481,2.4406,2.4422,2.4902,2.5379,2.5939,2.6582,2.6591,2.6591,2.6591,2.6591,2.6591,2.6591,2.6591,2.6336,0.0,0.0,0.0,0.0,1.7743,0.0,0.0,0.0,1.7422,1.7165,0.0,0.0,0.0,0.0,0.0,0.0,0.0,0.0,0.0,0.0,0.0,0.0,0.0,0.0,0.0,0.0,2.0912,2.1568,2.093,2.0656,2.1016,2.0647,2.0445,2.05,2.0115,2.0097,2.0491,2.0454,2.0253,1.9914,1.9838,1.9886,1.9987,2.0335,2.0738,2.1178,2.1553,2.1696,2.1696,2.1696,2.1696,2.1696,2.1696,2.1696,2.1696,2.1696,2.1696,2.1696,2.1696,2.1696,2.1696,2.1696,2.1696,2.1696,2.1696,2.2263,2.2922,2.3014,2.3602,2.4085,2.3623,2.3197,2.2803,2.2405,2.198,2.1696,2.1696,2.1696,2.1696,2.1696,2.1696,2.1696,2.1696,2.1696,2.1696,2.1696,2.1769,2.1815,2.1769,2.251,2.334,2.4128,2.4891,2.5489,2.5911,2.5554,2.5186,2.4829,2.4406,2.4551,2.5297,2.6068,2.6517,2.6591,2.6591,2.6591,2.6591,2.6591,2.6591,2.6591,2.6591,2.6564,0.0,0.0,0.0,0.0,0.0,0.0,1.7367,0.0,1.7174,0.0,0.0,0.0,0.0,0.0,0.0,0.0,0.0,0.0,0.0,0.0,0.0,0.0,0.0,0.0,0.0,0.0,0.0,0.0,0.0,2.0775,2.1416,2.1059,2.0729,2.05,2.0115,1.9868,1.9795,1.9795,1.9732,1.9547,1.9547,1.9676,1.9914,2.0079,2.05,2.1117,2.1269,2.1489,2.1696,2.1696,2.1696,2.1696,2.1696,2.1696,2.1696,2.1696,2.1696,2.1696,2.1696,2.1696,2.1696,2.1696,2.1696,2.1733,2.1984,2.2446,2.2959,2.3187,2.3514,2.3758,2.3535,2.3023,2.2501,2.2341,2.198,2.1696,2.1696,2.1696,2.1696,2.1696,2.1696,2.1696,2.1696,2.1696,2.1696,2.1696,2.1911,2.1975,2.1723,2.24,2.3123,2.3739,2.4342,2.4973,2.559,2.5287,2.4985,2.4819,2.4636,2.47,2.504,2.5829,2.6251,2.6251,2.649,2.6591,2.6591,2.6591,2.6591,2.6591,2.6591,2.6481,1.6991,0.0,0.0,0.0,0.0,0.0,0.0,0.0,0.0,0.0,0.0,0.0,0.0,0.0,0.0,0.0,0.0,0.0,0.0,0.0,0.0,0.0,0.0,0.0,0.0,0.0,0.0,0.0,0.0,0.0,2.1641,2.1315,2.097,2.0665,2.017,1.9767,1.9476,1.9356,1.9301,1.9301,1.9301,1.9447,1.974,1.9859,2.028,2.093,2.1062,2.1324,2.1696,2.1696,2.1696,2.1696,2.1696,2.1696,2.1696,2.1696,2.1696,2.1696,2.1696,2.1696,2.1696,2.1696,2.1696,2.1791,2.2185,2.2574,2.2986,2.338,2.3499,2.3471,2.3361,2.2827,2.2277,2.2167,2.1897,2.1696,2.1696,2.1696,2.1696,2.1696,2.1696,2.1696,2.1696,2.1696,2.1696,2.1696,2.1956,2.2039,2.1733,2.23,2.2885,2.3288,2.384,2.444,2.5012,2.4902,2.4755,2.4645,2.4746,2.481,2.481,2.5462,2.5855,2.5855,2.6233,2.6444,2.6444,2.6563,2.6527,2.6444,2.6444,2.6279,0.0,0.0,0.0,1.7018,0.0,0.0,0.0,0.0,1.7367,0.0,0.0,0.0,0.0,0.0,0.0,1.6862,0.0,0.0,0.0,0.0,0.0,0.0,0.0,0.0,0.0,0.0,0.0,0.0,0.0,0.0,2.1627,2.1315,2.1099,2.1089,2.0317,1.9884,1.9886,1.9483,1.9301,1.9301,1.9301,1.9311,1.9329,1.9721,2.0134,2.0537,2.0921,2.1324,2.1696,2.1696,2.1696,2.1696,2.1696,2.1696,2.1696,2.1696,2.1696,2.1696,2.1696,2.1696,2.1696,2.1696,2.1696,2.1791,2.2185,2.2574,2.2986,2.338,2.3499,2.3407,2.3023,2.2602,2.2204,2.1806,2.1705,2.1696,2.1696,2.1696,2.1696,2.1696,2.1696,2.1696,2.1696,2.1696,2.1696,2.1696,2.1705,2.1705,2.1696,2.2075,2.2465,2.2885,2.3675,2.4211,2.4238,2.4581,2.4636,2.4248,2.4581,2.481,2.481,2.5196,2.5416,2.5416,2.5801,2.603,2.603,2.6416,2.6407,2.603,2.603,2.6021,0.0,0.0,1.7394,1.7,0.0,0.0,0.0,0.0,0.0,0.0,0.0,0.0,0.0,0.0,1.6735,1.689,0.0,0.0,0.0,0.0,0.0,0.0,0.0,0.0,0.0,0.0,0.0,0.0,0.0,0.0,0.0,2.1581,2.137,2.1117,2.0573,2.017,1.9914,1.9492,1.9301,1.9301,1.9301,1.9301,1.9301,1.9448,1.9859,2.05,2.0637,2.1086,2.1696,2.1696,2.1696,2.1696,2.1696,2.1696,2.1696,2.1696,2.1696,2.1696,2.1696,2.1696,2.1696,2.1696,2.1696,2.1791,2.2185,2.2574,2.2931,2.3068,2.3105,2.3014,2.2602,2.219,2.1883,2.1723,2.1696,2.1696,2.1696,2.1696,2.1696,2.1696,2.1696,2.1696,2.1696,2.1696,2.1696,2.1696,2.1696,2.1696,2.1696,2.1806,2.2066,2.2469,2.301,2.344,2.3706,2.4158,2.4333,2.4211,2.4339,2.4388,2.4388,2.4792,2.5003,2.5003,2.5655,2.5857,2.559,2.6279,2.6398,2.5976,2.5719,2.5453,1.67,1.6986,0.0,1.6955,1.7101,0.0,1.6963,0.0,0.0,0.0,0.0,0.0,0.0,0.0,0.0,1.7092,1.7,0.0,0.0,0.0,0.0,0.0,0.0,0.0,0.0,0.0,1.9118,2.0207,0.0,0.0,0.0,0.0,2.159,2.1315,2.0775,2.0372,2.0124,1.9577,1.9301,1.9301,1.9301,1.9301,1.9301,1.9457,1.9868,2.05,2.0647,2.1095,2.1696,2.1696,2.1696,2.1696,2.1696,2.1696,2.1696,2.1696,2.1696,2.1696,2.1696,2.1696,2.1696,2.1696,2.1696,2.1791,2.2185,2.2488,2.2712,2.2867,2.2794,2.262,2.2369,2.2011,2.1696,2.1696,2.1696,2.1696,2.1696,2.1696,2.1696,2.1696,2.1696,2.1696,2.1696,2.1696,2.1696,2.1696,2.1696,2.1696,2.1696,2.1696,2.181,2.2066,2.2574,2.3123,2.3688,2.403,2.4202,2.4202,2.4202,2.4202,2.4202,2.4443,2.4654,2.4801,2.5443,2.5645,2.5398,2.6068,2.6114,2.5563,2.5306,2.4966]},{"header":{"parameterUnit":"m.s-1","parameterCategory":1,"la1":30.6,"la2":29.2853,"lo1":-89.7004,"lo2":-87.6739,"dy":0.0162,"dx":0.0183,"nx":112,"ny":82,"refTime":"2024-09-19T18:00:00:Z","depth":0,"parameterNumber":3,"parameterNumberName":"V-component_of_WINDS"},"data":[0.0,0.0,0.0,0.0,0.0,0.0,0.0,0.0,0.0,0.0,0.0,0.0,0.0,0.0,0.0,0.0,0.0,0.0,0.0,0.0,0.0,0.0,0.0,0.0,0.0,0.0,0.0,0.0,0.0,0.0,0.0,0.0,0.0,0.0,0.0,0.0,0.0,0.0,0.0,0.0,0.0,0.0,0.0,0.0,0.0,0.0,0.0,0.0,0.0,0.0,0.0,0.0,0.0,0.0,0.0,0.0,0.0,0.0,0.0,0.0,0.0,0.0,0.0,0.0,0.0,0.0,0.0,0.0,0.0,0.0,0.0,0.0,0.0,0.0,0.0,0.0,0.0,0.0,0.0,0.0,0.0,0.0,0.0,0.0,0.0,0.0,0.0,0.0,0.0,0.0,0.0,2.1509,2.1509,2.0898,1.9417,1.9164,1.9145,1.9272,0.0,0.0,0.0,0.0,0.0,0.0,0.0,0.0,0.0,0.0,0.0,0.0,0.0,0.0,0.0,0.0,0.0,0.0,0.0,0.0,0.0,0.0,0.0,0.0,0.0,0.0,0.0,0.0,0.0,0.0,0.0,0.0,0.0,0.0,0.0,0.0,0.0,0.0,0.0,0.0,0.0,0.0,0.0,0.0,0.0,0.0,0.0,0.0,0.0,0.0,0.0,0.0,0.0,0.0,0.0,0.0,0.0,0.0,0.0,0.0,0.0,0.0,0.0,0.0,0.0,0.0,0.0,0.0,0.0,0.0,0.0,0.0,0.0,0.0,0.0,0.0,0.0,0.0,0.0,0.0,0.0,0.0,0.0,0.0,0.0,0.0,0.0,0.0,0.0,0.0,0.0,0.0,0.0,0.0,0.0,0.0,0.0,0.0,0.0,0.0,0.0,0.0,0.0,0.0,2.1509,2.1509,2.1509,2.111,2.0192,1.949,1.9381,2.0065,0.0,0.0,0.0,0.0,0.0,0.0,0.0,0.0,0.0,0.0,0.0,0.0,0.0,0.0,0.0,0.0,0.0,0.0,0.0,0.0,0.0,0.0,0.0,0.0,0.0,0.0,0.0,0.0,0.0,0.0,0.0,0.0,0.0,0.0,0.0,0.0,0.0,0.0,0.0,0.0,0.0,0.0,0.0,0.0,0.0,0.0,0.0,0.0,0.0,0.0,0.0,0.0,0.0,0.0,0.0,0.0,0.0,0.0,0.0,0.0,0.0,0.0,0.0,0.0,0.0,0.0,0.0,0.0,0.0,0.0,0.0,0.0,0.0,0.0,0.0,0.0,0.0,0.0,0.0,0.0,0.0,0.0,0.0,0.0,0.0,0.0,0.0,0.0,0.0,0.0,0.0,0.0,0.0,0.0,0.0,0.0,0.0,0.0,0.0,0.0,0.0,0.0,0.0,2.1329,2.1501,2.1495,2.1509,2.1006,1.9761,1.9308,1.9254,1.9634,1.7795,0.0,0.0,0.0,0.0,0.0,0.0,0.0,0.0,0.0,0.0,0.0,0.0,0.0,0.0,0.0,0.0,0.0,0.0,0.0,0.0,0.0,0.0,0.0,0.0,0.0,0.0,0.0,0.0,0.0,0.0,0.0,0.0,0.0,0.0,0.0,0.0,0.0,0.0,0.0,0.0,0.0,0.0,0.0,0.0,0.0,0.0,0.0,0.0,0.0,0.0,0.0,0.0,0.0,0.0,0.0,0.0,0.0,0.0,0.0,0.0,0.0,0.0,0.0,0.0,0.0,0.0,0.0,0.0,0.0,0.0,0.0,0.0,0.0,0.0,0.0,0.0,0.0,0.0,0.0,0.0,0.0,0.0,0.0,0.0,0.0,0.0,0.0,0.0,0.0,0.0,0.0,0.0,0.0,0.0,0.0,0.0,0.0,0.0,0.0,0.0,0.0,0.0,2.2247,2.1947,2.1551,2.1495,2.0843,1.9236,1.8932,1.8824,1.8824,1.7302,0.0,0.0,0.0,0.0,0.0,0.0,0.0,0.0,0.0,0.0,0.0,0.0,0.0,0.0,0.0,0.0,0.0,0.0,0.0,0.0,0.0,0.0,0.0,0.0,0.0,0.0,0.0,0.0,0.0,0.0,0.0,0.0,0.0,0.0,0.0,0.0,0.0,0.0,0.0,0.0,0.0,0.0,0.0,0.0,0.0,0.0,0.0,0.0,0.0,0.0,0.0,0.0,0.0,0.0,0.0,0.0,0.0,0.0,0.0,0.0,0.0,0.0,0.0,0.0,0.0,0.0,0.0,0.0,0.0,0.0,0.0,0.0,0.0,0.0,0.0,0.0,0.0,0.0,0.0,0.0,0.0,0.0,0.0,0.0,0.0,0.0,0.0,0.0,0.0,0.0,0.0,0.0,0.0,0.0,0.0,0.0,0.0,0.0,0.0,0.0,0.0,0.0,2.2929,2.3224,2.167,2.1496,2.0843,1.9236,1.8407,1.7976,1.7976,1.6476,0.0,0.0,0.0,0.0,0.0,0.0,0.0,0.0,0.0,0.0,0.0,0.0,0.0,0.0,0.0,0.0,0.0,0.0,0.0,0.0,0.0,0.0,0.0,0.0,0.0,0.0,0.0,0.0,0.0,0.0,0.0,0.0,0.0,0.0,0.0,0.0,0.0,0.0,0.0,0.0,0.0,0.0,0.0,0.0,0.0,0.0,0.0,0.0,0.0,0.0,0.0,0.0,0.0,0.0,0.0,0.0,0.0,0.0,0.0,0.0,0.0,0.0,0.0,0.0,0.0,0.0,0.0,0.0,0.0,0.0,0.0,0.0,0.0,0.0,0.0,0.0,0.0,0.0,0.0,0.0,0.0,0.0,0.0,0.0,0.0,0.0,0.0,0.0,0.0,0.0,0.0,0.0,0.0,0.0,0.0,0.0,0.0,0.0,0.0,0.0,0.0,0.0,2.2597,2.3054,0.0,2.1857,2.1116,1.9997,1.9174,1.8497,1.7992,0.0,0.0,0.0,0.0,0.0,0.0,0.0,0.0,0.0,0.0,0.0,0.0,0.0,0.0,0.0,0.0,0.0,0.0,0.0,0.0,0.0,0.0,0.0,0.0,0.0,0.0,0.0,0.0,0.0,0.0,0.0,0.0,0.0,0.0,0.0,0.0,0.0,0.0,0.0,0.0,0.0,0.0,0.0,0.0,0.0,0.0,0.0,0.0,0.0,0.0,0.0,0.0,0.0,0.0,0.0,0.0,0.0,0.0,0.0,0.0,0.0,0.0,0.0,0.0,0.0,0.0,0.0,0.0,0.0,0.0,0.0,0.0,0.0,0.0,0.0,0.0,0.0,0.0,0.0,0.0,0.0,0.0,0.0,0.0,0.0,0.0,0.0,0.0,0.0,0.0,0.0,0.0,0.0,0.0,0.0,0.0,0.0,0.0,0.0,0.0,0.0,0.0,2.1538,2.2616,2.3165,0.0,2.2095,2.1261,2.0467,1.9437,1.8485,1.7665,0.0,0.0,0.0,0.0,0.0,0.0,0.0,0.0,0.0,0.0,0.0,0.0,0.0,0.0,0.0,0.0,0.0,0.0,0.0,0.0,0.0,0.0,0.0,0.0,0.0,0.0,0.0,0.0,0.0,0.0,0.0,0.0,0.0,0.0,0.0,0.0,0.0,0.0,0.0,0.0,0.0,0.0,0.0,0.0,0.0,0.0,0.0,0.0,0.0,0.0,0.0,0.0,0.0,0.0,0.0,0.0,0.0,0.0,0.0,0.0,0.0,0.0,0.0,0.0,0.0,0.0,0.0,0.0,0.0,0.0,0.0,0.0,0.0,0.0,0.0,0.0,0.0,0.0,0.0,0.0,0.0,0.0,0.0,0.0,0.0,0.0,0.0,0.0,0.0,0.0,0.0,0.0,0.0,0.0,0.0,0.0,0.0,0.0,0.0,0.0,0.0,0.0,2.1798,2.3143,2.3792,2.2996,2.2136,2.1283,2.049,1.8935,1.7669,0.0,0.0,0.0,0.0,0.0,0.0,0.0,0.0,0.0,0.0,0.0,0.0,0.0,0.0,0.0,0.0,0.0,0.0,0.0,0.0,0.0,0.0,0.0,0.0,0.0,0.0,0.0,0.0,0.0,0.0,0.0,0.0,0.0,0.0,0.0,0.0,0.0,0.0,0.0,0.0,0.0,0.0,0.0,0.0,0.0,0.0,0.0,0.0,0.0,0.0,0.0,0.0,0.0,0.0,0.0,0.0,0.0,0.0,0.0,0.0,0.0,0.0,0.0,0.0,0.0,0.0,0.0,0.0,0.0,0.0,0.0,0.0,0.0,0.0,0.0,0.0,0.0,0.0,0.0,0.0,0.0,0.0,0.0,0.0,0.0,0.0,0.0,0.0,0.0,0.0,0.0,0.0,0.0,0.0,0.0,0.0,0.0,0.0,0.0,0.0,0.0,0.0,0.0,2.1798,2.3194,2.4079,2.3845,2.2566,2.1641,2.1407,1.9867,1.8339,1.6966,0.0,0.0,0.0,0.0,0.0,0.0,0.0,0.0,0.0,0.0,0.0,0.0,0.0,0.0,0.0,0.0,0.0,0.0,0.0,0.0,0.0,0.0,0.0,0.0,0.0,0.0,0.0,0.0,0.0,0.0,0.0,0.0,0.0,0.0,0.0,0.0,0.0,0.0,0.0,0.0,0.0,0.0,0.0,0.0,0.0,0.0,0.0,0.0,0.0,0.0,0.0,0.0,0.0,0.0,0.0,0.0,0.0,0.0,0.0,0.0,0.0,0.0,0.0,0.0,0.0,0.0,0.0,0.0,0.0,0.0,0.0,0.0,0.0,0.0,0.0,0.0,0.0,0.0,0.0,0.0,0.0,0.0,0.0,0.0,0.0,0.0,0.0,0.0,0.0,0.0,0.0,0.0,0.0,0.0,0.0,0.0,0.0,0.0,0.0,0.0,0.0,0.0,2.1798,2.3203,2.4194,2.4194,2.3056,2.2157,2.1835,2.056,1.9084,1.748,0.0,0.0,0.0,0.0,0.0,0.0,0.0,0.0,0.0,0.0,0.0,0.0,0.0,0.0,0.0,0.0,0.0,0.0,0.0,0.0,0.0,0.0,0.0,0.0,0.0,0.0,0.0,0.0,0.0,0.0,0.0,0.0,0.0,0.0,0.0,0.0,0.0,0.0,0.0,0.0,0.0,0.0,0.0,0.0,0.0,0.0,0.0,0.0,0.0,0.0,0.0,0.0,0.0,0.0,0.0,0.0,0.0,0.0,0.0,0.0,0.0,0.0,0.0,0.0,0.0,0.0,0.0,0.0,0.0,0.0,0.0,0.0,0.0,0.0,0.0,0.0,0.0,0.0,0.0,0.0,0.0,0.0,0.0,0.0,0.0,0.0,0.0,0.0,0.0,0.0,0.0,0.0,0.0,0.0,0.0,0.0,0.0,0.0,0.0,0.0,0.0,0.0,2.1904,2.3258,2.4194,2.4194,2.3488,2.2699,2.1978,2.112,1.9924,1.8313,0.0,0.0,0.0,0.0,0.0,0.0,0.0,0.0,0.0,0.0,0.0,0.0,0.0,0.0,0.0,0.0,0.0,0.0,0.0,0.0,0.0,0.0,0.0,0.0,0.0,0.0,0.0,0.0,0.0,0.0,0.0,0.0,0.0,0.0,0.0,0.0,0.0,0.0,0.0,0.0,0.0,0.0,0.0,0.0,0.0,0.0,0.0,0.0,0.0,0.0,0.0,0.0,0.0,0.0,0.0,0.0,0.0,0.0,0.0,0.0,2.2309,0.0,0.0,0.0,0.0,0.0,0.0,0.0,0.0,0.0,0.0,0.0,0.0,0.0,0.0,0.0,0.0,0.0,0.0,0.0,0.0,0.0,0.0,0.0,0.0,0.0,0.0,0.0,0.0,0.0,0.0,0.0,0.0,0.0,0.0,0.0,0.0,0.0,0.0,0.0,0.0,0.0,2.2662,2.3602,2.4194,2.4194,2.3488,2.2933,2.2754,2.1987,2.0817,1.9146,0.0,0.0,0.0,0.0,0.0,0.0,0.0,0.0,0.0,0.0,0.0,0.0,0.0,0.0,0.0,0.0,0.0,0.0,0.0,0.0,0.0,0.0,0.0,0.0,0.0,0.0,0.0,0.0,0.0,0.0,0.0,0.0,0.0,0.0,0.0,0.0,0.0,0.0,0.0,0.0,0.0,0.0,0.0,0.0,0.0,0.0,0.0,0.0,0.0,0.0,0.0,0.0,0.0,0.0,0.0,0.0,0.0,0.0,0.0,0.0,0.0,2.3225,0.0,0.0,0.0,0.0,0.0,0.0,0.0,0.0,0.0,0.0,0.0,0.0,0.0,0.0,0.0,0.0,0.0,0.0,0.0,0.0,0.0,0.0,0.0,0.0,0.0,0.0,0.0,0.0,0.0,0.0,0.0,0.0,0.0,0.0,0.0,0.0,0.0,0.0,0.0,0.0,2.2896,2.3689,2.4194,2.4194,2.3823,2.3414,2.3024,2.2625,2.1845,2.0582,1.9756,0.0,0.0,0.0,0.0,0.0,0.0,0.0,0.0,0.0,0.0,0.0,0.0,0.0,0.0,0.0,0.0,0.0,0.0,0.0,0.0,0.0,0.0,0.0,0.0,0.0,0.0,0.0,0.0,0.0,0.0,0.0,0.0,0.0,0.0,0.0,0.0,0.0,0.0,0.0,0.0,0.0,0.0,0.0,0.0,0.0,0.0,0.0,0.0,0.0,0.0,0.0,0.0,0.0,2.6143,2.6332,2.6834,2.5751,2.5987,2.7183,2.56,2.5187,2.5574,0.0,0.0,0.0,0.0,0.0,0.0,0.0,0.0,0.0,0.0,0.0,0.0,0.0,0.0,0.0,0.0,0.0,0.0,0.0,0.0,0.0,0.0,0.0,0.0,0.0,2.6539,2.6644,0.0,0.0,0.0,0.0,0.0,0.0,0.0,0.0,0.0,0.0,0.0,0.0,2.3121,2.3786,2.4194,2.4194,2.4194,2.3933,2.3267,2.3208,2.2864,2.2069,2.0707,1.9881,0.0,0.0,0.0,0.0,0.0,0.0,0.0,0.0,0.0,0.0,0.0,0.0,0.0,0.0,0.0,0.0,0.0,0.0,0.0,0.0,0.0,0.0,0.0,0.0,0.0,0.0,0.0,0.0,0.0,0.0,0.0,0.0,2.0256,2.1814,0.0,0.0,0.0,0.0,0.0,0.0,0.0,0.0,0.0,0.0,0.0,0.0,0.0,0.0,2.5984,2.6959,2.7447,2.7407,2.8216,2.8655,2.8724,2.8396,2.8449,2.8791,2.8544,0.0,2.6743,2.7231,0.0,0.0,0.0,0.0,0.0,0.0,0.0,0.0,0.0,0.0,0.0,0.0,0.0,0.0,0.0,0.0,0.0,0.0,0.0,0.0,0.0,0.0,2.8656,2.8546,2.8601,2.8638,0.0,2.6167,2.4378,2.497,0.0,0.0,0.0,0.0,0.0,0.0,0.0,0.0,2.4025,2.4135,2.4194,2.4194,2.4194,2.4158,2.4043,2.4043,2.3694,2.29,2.2621,2.2208,2.15,2.1372,0.0,0.0,0.0,0.0,0.0,0.0,0.0,0.0,0.0,0.0,0.0,0.0,0.0,0.0,0.0,0.0,0.0,0.0,0.0,0.0,0.0,0.0,0.0,0.0,0.0,0.0,0.0,0.0,0.0,2.0078,2.172,2.2833,2.3759,2.433,0.0,0.0,0.0,0.0,0.0,0.0,0.0,0.0,0.0,2.6862,2.7647,2.8317,2.8897,2.8937,2.8894,2.8782,2.9007,2.8981,2.8761,2.8917,2.8945,2.8928,2.8928,2.8565,2.7957,2.7858,2.7563,2.7092,0.0,0.0,0.0,0.0,2.7484,2.8,2.7968,2.8126,0.0,0.0,0.0,0.0,0.0,0.0,0.0,0.0,0.0,0.0,0.0,0.0,0.0,2.9115,2.8999,2.8999,2.8999,2.7886,2.6864,0.0,2.6452,2.5938,2.5026,0.0,0.0,0.0,0.0,0.0,2.4135,2.4194,2.4194,2.4194,2.4194,2.4194,2.4194,2.4194,2.4052,2.3709,2.3258,2.284,2.2481,2.2035,2.1618,0.0,0.0,0.0,0.0,0.0,0.0,0.0,0.0,0.0,0.0,0.0,0.0,0.0,0.0,0.0,0.0,0.0,0.0,0.0,0.0,0.0,0.0,0.0,0.0,0.0,0.0,0.0,0.0,2.2059,2.3285,2.4278,2.5439,2.6191,0.0,0.0,0.0,0.0,0.0,0.0,2.6241,2.7349,2.8315,2.9061,2.9442,2.9952,3.0665,2.9976,2.9524,2.9314,2.9059,2.8779,2.8505,2.8803,2.8869,2.8719,2.8719,2.87,2.8633,2.8288,2.8112,2.8034,2.774,2.7961,2.8475,2.8862,2.9501,3.0132,2.9656,2.9701,2.9835,2.8717,0.0,2.7339,2.6937,0.0,0.0,0.0,0.0,3.0815,2.961,2.9598,2.9745,2.9133,2.8999,2.8999,2.8999,2.8994,2.8804,0.0,2.8117,2.7732,2.6526,0.0,0.0,0.0,0.0,2.4056,2.4451,2.4323,2.4194,2.4194,2.4194,2.4194,2.4194,2.4194,2.419,2.4196,2.363,2.3304,2.3317,2.2733,2.232,2.2102,0.0,0.0,0.0,0.0,0.0,0.0,0.0,0.0,0.0,0.0,0.0,0.0,0.0,0.0,0.0,0.0,0.0,0.0,0.0,0.0,0.0,0.0,0.0,0.0,0.0,0.0,0.0,0.0,0.0,2.6646,2.6902,0.0,0.0,0.0,0.0,2.8067,2.8768,2.9465,3.0172,3.0297,3.035,3.0401,2.9758,2.9437,2.9487,2.8876,2.8467,2.8287,2.845,2.8512,2.8492,2.8512,2.852,2.8522,2.8522,2.8447,2.8391,2.9235,2.9481,2.9364,2.9911,3.0033,2.9913,3.0065,3.0154,3.019,3.0013,3.0347,3.0734,3.0097,2.9787,2.9761,3.041,3.037,0.0,0.0,3.0541,3.0246,3.0167,2.9598,2.9054,2.9005,2.8999,2.8999,2.8999,2.8946,2.8904,0.0,2.8932,2.8908,2.8822,0.0,2.8491,2.7737,2.6924,2.6153,2.5429,2.4672,2.4194,2.4194,2.4194,2.4194,2.4194,2.4194,2.419,2.4196,2.4163,2.414,2.4146,2.4108,2.3712,2.2951,2.3657,0.0,0.0,0.0,0.0,0.0,0.0,0.0,0.0,0.0,0.0,0.0,0.0,0.0,0.0,0.0,0.0,0.0,0.0,0.0,0.0,0.0,0.0,0.0,0.0,0.0,0.0,0.0,0.0,2.6878,2.746,0.0,0.0,2.8562,2.8876,2.9655,2.9526,2.9505,2.9772,2.979,2.979,2.979,3.0004,3.0111,3.0111,2.955,2.9179,2.8969,2.8784,2.8518,2.8185,2.832,2.823,2.7996,2.7996,2.795,2.7965,2.8685,2.8753,2.8435,2.8996,2.9115,2.9066,2.9803,2.9929,2.972,2.9601,2.955,2.9591,2.9798,3.0156,3.06,3.1089,3.1107,3.1017,3.1173,3.1107,3.0852,3.0338,2.9983,2.9623,2.9074,2.8934,2.8923,2.8875,2.8846,2.884,2.8876,2.8899,2.8934,2.8934,2.8548,2.8136,2.7848,2.7126,2.6497,2.6209,2.5915,2.5548,2.5026,2.497,2.4768,2.425,2.4194,2.419,2.4196,2.4205,2.4205,2.4201,2.4205,2.4071,2.3786,2.3543,2.274,0.0,0.0,0.0,0.0,0.0,0.0,0.0,0.0,0.0,0.0,0.0,0.0,0.0,0.0,0.0,0.0,0.0,0.0,0.0,0.0,0.0,0.0,0.0,0.0,0.0,0.0,2.6473,2.7575,2.7949,2.8361,2.8945,2.9237,2.9594,3.0093,2.9915,2.9772,2.9772,2.9772,2.9772,2.9772,3.0004,3.0129,3.0129,2.945,2.906,2.8923,2.8582,2.8233,2.7893,2.8035,2.7936,2.7627,2.7627,2.7615,2.7607,2.7996,2.7956,2.7719,2.8578,2.8839,2.8859,2.9568,2.9701,2.9496,2.9528,2.9397,2.9296,2.9847,3.0446,3.0955,3.1063,3.1245,3.1365,3.1233,3.1088,3.0821,3.0277,2.9923,2.9582,2.9009,2.887,2.8852,2.8804,2.8779,2.8767,2.8767,2.8822,2.887,2.887,2.8466,2.8158,2.8175,2.7497,2.6984,2.6992,2.6772,2.641,2.5865,2.5792,2.5479,2.4672,2.4598,2.4489,2.4215,2.4205,2.4205,2.4201,2.4205,2.4205,2.4194,2.3676,2.3419,2.3423,0.0,0.0,0.0,0.0,0.0,0.0,0.0,0.0,0.0,0.0,0.0,0.0,0.0,0.0,0.0,0.0,0.0,0.0,0.0,0.0,0.0,0.0,0.0,2.7699,2.71,2.7278,2.8905,2.8446,2.8049,2.8204,2.8937,2.9401,2.9462,3.0104,3.0496,3.0532,3.0504,3.0496,3.0496,2.9801,2.9408,2.9383,2.8507,2.8053,2.8035,2.7852,2.7754,2.7736,2.7736,2.7647,2.7488,2.7488,2.7421,2.7307,2.7307,2.7307,2.7445,2.8868,2.9429,2.9429,2.9446,2.9446,2.948,2.981,2.9923,3.0011,3.0337,3.0686,3.0914,3.0596,3.0921,3.1315,3.0923,3.0468,3.0076,3.002,2.9405,2.8798,2.8792,2.8792,2.8792,2.8828,2.8785,2.8748,2.8767,2.8828,2.884,2.881,2.8798,2.8822,2.8893,2.8235,0.0,2.7836,2.7158,2.6657,2.6644,2.6644,2.6319,2.5508,2.5416,2.5064,2.4288,2.4214,2.4209,2.4233,2.4232,2.425,2.4263,2.425,2.4997,2.6552,0.0,0.0,0.0,0.0,0.0,0.0,0.0,0.0,0.0,0.0,0.0,0.0,0.0,0.0,0.0,0.0,0.0,0.0,0.0,0.0,0.0,0.0,2.7475,2.7669,2.8037,2.8436,2.8896,2.826,2.8025,2.8651,2.8913,2.9506,3.0611,3.0482,3.0586,3.1113,3.0739,3.0469,3.0351,3.0156,2.9738,2.9042,2.9306,2.9177,2.8664,2.9131,2.901,2.8351,2.8351,2.7995,2.736,2.736,2.7329,2.7307,2.7307,2.7307,2.7341,2.7755,2.7902,2.7935,2.8121,2.8196,2.8173,2.8075,2.8384,2.8884,2.9174,2.9849,3.0563,3.0632,3.093,3.1231,3.1114,3.0583,3.0026,3.0001,2.9405,2.8785,2.8749,2.8737,2.887,2.9407,2.9515,2.9665,3.0239,3.0379,3.0043,2.8924,2.8773,2.8804,2.8822,2.8639,0.0,2.8593,2.8398,2.8067,2.7525,2.7475,2.7145,2.6337,2.5742,2.5311,2.5082,2.4511,2.4456,2.5045,2.5072,2.5333,2.5928,2.5369,2.5283,0.0,0.0,0.0,0.0,0.0,0.0,0.0,0.0,0.0,0.0,0.0,0.0,0.0,0.0,0.0,0.0,0.0,0.0,0.0,0.0,0.0,0.0,2.7807,2.8658,2.8472,2.8581,2.8708,2.8778,2.8094,2.781,2.8348,2.8707,2.9279,3.0167,3.0194,3.0372,3.0797,3.0486,3.0246,3.018,3.0172,2.9904,2.9378,2.9737,2.9705,2.9268,2.9632,2.9507,2.8975,2.8975,2.87,0.0,2.7885,2.7937,2.8196,2.7885,2.7937,0.0,0.0,0.0,0.0,0.0,2.7524,2.7494,2.7296,2.758,2.8131,2.8601,2.9342,3.0116,3.0391,3.0827,3.1159,3.0998,3.0708,3.0454,3.0435,3.007,2.9712,2.9661,2.9655,2.9787,3.0208,3.031,3.043,3.0901,3.0991,0.0,2.9812,2.9699,2.9724,2.9768,2.9756,2.9799,2.9856,2.9576,2.9216,2.88,2.8463,2.7948,2.7176,2.6673,0.0,0.0,0.0,2.5419,2.5883,2.5902,0.0,0.0,0.0,0.0,0.0,0.0,0.0,0.0,2.8552,2.9286,0.0,0.0,0.0,0.0,0.0,0.0,0.0,0.0,0.0,0.0,0.0,0.0,0.0,0.0,0.0,0.0,2.9308,3.0326,2.9601,2.8868,2.8443,2.8554,2.8004,2.7648,2.7774,2.8508,2.9008,2.9104,2.9717,3.0145,3.0225,0.0,0.0,0.0,0.0,3.0182,3.0078,3.0035,2.9977,2.989,2.9799,2.973,2.9644,2.9644,2.9592,2.9463,2.8816,2.8903,2.9446,2.8799,2.8912,2.9343,2.7954,2.7368,2.7291,2.7377,2.7404,2.738,2.7342,0.0,0.0,2.8524,2.913,2.9697,3.0163,3.0718,3.115,3.0966,3.103,3.1157,3.1143,3.1064,3.0991,3.0991,3.0991,3.1028,3.1118,3.1136,3.1154,3.1245,3.1263,3.1263,3.1263,3.1118,3.103,3.1077,3.1084,3.1111,3.1184,3.0566,3.0153,3.0228,0.0,0.0,2.8106,2.7897,2.7499,2.6772,2.6735,2.6735,2.6735,2.6822,2.7244,2.8038,2.8841,2.9642,3.0455,3.1341,3.2148,3.2795,3.0577,3.1066,0.0,0.0,0.0,0.0,0.0,0.0,0.0,0.0,0.0,0.0,0.0,0.0,0.0,0.0,0.0,2.9808,2.9868,2.9679,2.9515,2.8868,2.8411,2.8435,2.8314,2.8243,2.825,2.8933,2.9652,3.03,3.0585,3.1001,3.1664,3.1794,0.0,3.1708,3.1681,3.1333,3.056,3.113,3.1112,3.0534,0.0,0.0,3.0464,3.0464,3.011,2.9498,2.9343,2.936,2.9489,2.9343,2.9334,2.9334,2.8507,2.7759,2.7212,2.7806,2.7988,2.8023,2.8605,2.8836,2.8905,2.8989,2.9282,2.9769,3.0718,3.1052,0.0,3.2525,3.2204,3.1579,3.1888,3.148,3.0991,3.0991,3.0991,3.1172,3.1825,3.1969,3.2169,3.2814,3.294,3.294,3.294,3.1861,3.0998,3.1023,3.103,3.105,3.1111,3.099,3.0908,3.0986,3.0325,2.9814,2.9679,2.8529,2.7737,2.7585,2.7572,2.7572,2.7572,2.8146,2.8825,2.9643,3.0398,3.117,3.1984,3.3432,3.4217,3.4345,3.3343,3.322,0.0,0.0,0.0,0.0,0.0,0.0,0.0,0.0,0.0,0.0,0.0,2.6385,2.7119,0.0,2.9661,3.0041,3.0093,2.9955,2.9549,2.9153,2.8775,2.8446,2.8403,2.8541,2.892,2.9644,3.0274,3.0671,3.1105,3.1522,3.1921,3.2002,3.2028,3.1947,3.1938,3.1719,3.1257,3.1555,3.151,3.1149,3.1498,3.1453,3.1093,3.1093,3.0887,3.0483,3.0106,3.0157,3.05,3.05,3.0267,2.9863,2.9539,2.8879,2.8202,2.8562,2.8673,2.8698,2.9021,2.9263,2.9454,2.9745,3.0076,3.0497,3.1237,3.1678,3.2081,3.2676,3.2545,3.2255,3.2442,3.2192,3.1912,3.1912,3.2047,3.2306,3.2705,3.2795,3.2922,3.3321,3.3393,3.3393,3.3393,3.2723,3.2198,3.2198,3.2198,3.2212,3.2258,3.1903,3.1669,3.1738,3.1068,3.0608,3.0653,2.9935,2.9503,2.9503,2.9503,2.9503,2.9503,3.0234,3.0836,3.1249,3.2402,3.319,3.3609,3.4411,3.502,3.5392,3.5053,3.4906,0.0,0.0,0.0,0.0,0.0,0.0,0.0,0.0,2.4854,2.5652,2.6796,2.7854,2.8456,2.9584,3.0255,2.9765,3.0092,3.0229,2.973,2.9497,2.9222,2.8835,2.8792,2.9016,2.9618,3.0393,3.0849,3.0849,3.1417,3.1744,3.1744,3.1744,3.1744,3.1744,3.1744,3.1744,3.1744,3.1634,3.1587,3.1587,3.1528,3.1498,3.1498,3.1498,3.1498,3.1464,3.0866,3.0952,3.1498,3.1498,3.113,3.0565,3.0565,3.0164,2.9575,2.944,2.9388,2.9387,2.9484,2.9681,2.9997,3.0547,3.0906,3.1194,3.1587,3.2074,3.246,3.2343,3.2435,3.2625,3.2763,3.2795,3.2795,3.2795,3.3106,3.3371,3.3293,3.3349,3.3393,3.3393,3.3393,3.3393,3.3393,3.3393,3.3393,3.3393,3.3393,3.3393,3.3393,3.2832,3.2448,3.2515,3.181,3.1306,3.1203,3.121,3.121,3.121,3.121,3.1265,3.1429,3.1901,3.2288,3.2604,3.3865,3.4604,3.4768,3.5059,3.5558,3.6193,3.6193,3.6117,2.4903,2.4903,2.5214,2.6502,2.6203,2.6152,0.0,0.0,2.7827,2.8588,2.8878,2.9015,2.9101,2.9297,2.964,3.0213,2.9785,2.9596,3.022,2.9681,2.9459,3.0091,3.0177,3.0211,3.0279,3.0972,3.1416,3.1416,3.1485,3.1536,3.1536,3.1536,3.1536,3.1536,3.1536,3.1536,3.1536,3.1527,3.1517,3.1517,3.1507,3.1498,3.1498,3.1498,3.1498,3.1498,3.1413,3.1413,3.1498,3.1498,3.1382,3.1196,3.1196,3.1104,3.0901,3.0308,3.0042,3.0093,3.0736,3.0985,3.1031,3.1116,3.1162,3.1249,3.1603,3.1553,3.1513,3.2127,3.2074,3.1968,3.2634,3.2795,3.2795,3.2795,3.3106,3.3293,3.2931,3.3155,3.3393,3.3393,3.3393,3.3393,3.3393,3.3393,3.3393,3.3393,3.3393,3.3393,3.3393,3.3321,3.3266,3.3274,3.2617,3.1899,3.1258,3.121,3.121,3.121,3.121,3.1513,3.2236,3.161,3.191,3.3353,3.3506,3.3904,3.4629,3.605,3.6802,3.6892,3.6892,3.6573,2.5809,2.6154,2.6411,0.0,2.7809,2.8006,2.8519,2.8357,2.8194,2.8502,2.8895,2.9348,2.9818,3.027,3.0543,0.0,3.0124,3.0013,3.0354,3.0035,2.9906,3.0237,3.0632,3.0914,3.1028,3.131,3.1498,3.1498,3.1498,3.1498,3.1498,3.1498,3.1498,3.1498,3.1498,3.1498,3.1498,3.1416,3.1387,3.1387,3.1346,3.1334,3.1334,3.1334,3.1334,3.1334,3.1334,3.1334,3.1334,3.1334,3.1298,3.1242,3.1242,3.1493,3.1752,3.1036,3.0772,3.0784,3.1089,3.12,3.12,3.12,3.12,3.123,3.1361,3.1456,3.1553,3.1814,3.1769,3.1789,3.2462,3.262,3.2806,3.3512,3.3959,3.4246,3.4354,3.4501,3.4614,3.4614,3.4394,3.4295,3.4575,3.4394,3.4313,3.4582,3.3923,3.3393,3.3393,3.3393,3.3393,3.3393,3.3125,3.2828,3.2518,3.2482,3.2682,3.3154,3.319,3.3546,3.4337,3.4486,3.4859,3.552,3.597,3.6353,3.6697,3.6904,3.7249,3.7701,3.7701,3.7807,2.6512,2.6991,0.0,2.8177,2.8792,2.903,2.8501,2.8518,2.8654,2.8654,2.9088,2.9625,3.0214,3.0588,3.0689,3.0365,3.0322,3.039,3.0594,3.0538,3.0483,3.0483,3.0901,3.1259,3.1412,3.1421,3.1421,3.1421,3.1421,3.1421,3.1421,3.1421,3.1506,3.1711,3.1711,3.183,3.2025,3.1931,3.1885,3.1885,3.1839,3.1799,3.1799,3.1606,3.1505,3.1505,3.1505,3.1505,3.1522,3.1685,3.1749,3.1749,3.1719,3.2029,3.2428,3.1894,3.1749,3.1799,3.1799,3.1644,3.1438,3.1495,3.134,3.1151,3.1151,3.1312,3.154,3.1669,3.1708,3.1888,3.2612,3.28,3.3026,3.3908,3.4368,3.4702,3.51,3.5134,3.5194,3.5458,3.5126,3.496,3.5415,3.5229,3.5108,3.5458,3.4632,3.3995,3.4,3.3849,3.3647,3.3429,3.361,3.373,3.373,3.3929,3.4309,3.4888,3.4925,3.5287,3.6101,3.6472,3.6777,3.6995,3.7349,3.7657,3.7865,3.7502,3.7738,3.8544,3.8744,3.926,2.6794,0.0,2.7349,2.8792,2.9131,2.9102,2.9078,2.9565,3.004,3.004,3.0057,3.0074,3.0108,2.9551,2.9297,2.9989,3.0108,3.0362,3.1092,3.1166,3.1166,3.1166,3.12,3.12,0.0,3.121,3.121,3.121,3.121,3.121,3.121,3.121,3.1532,3.2253,3.2286,3.2615,3.3339,3.3339,3.3339,3.3339,3.3328,3.3328,3.3311,3.2588,3.2276,3.2276,3.2276,3.2276,3.2317,3.2892,3.3142,3.3131,3.3002,3.2959,3.2976,3.2959,3.311,3.3328,3.3328,3.2775,3.2089,3.2219,3.1678,3.1005,3.1005,3.1005,3.1157,3.1804,3.1991,3.2236,3.3284,3.3564,3.3581,3.3618,3.3876,3.4162,3.431,3.4229,3.4411,3.5314,3.5126,3.496,3.5415,3.5491,3.5483,3.5499,3.5463,3.546,3.5523,3.4979,3.4255,3.3484,3.4092,3.4562,3.4562,3.5287,3.5739,3.5757,3.5757,3.612,3.6941,3.6236,3.62,3.6977,3.6254,3.6272,3.7049,3.781,3.8581,3.9378,4.0103,4.0854,2.5756,0.0,2.7173,2.8693,2.942,2.9756,2.9765,2.9941,2.9963,2.9474,2.9753,3.0098,3.0098,3.0294,3.054,3.0784,3.0835,3.092,3.1166,3.12,3.1021,3.0531,3.0903,0.0,0.0,0.0,0.0,3.1894,3.1928,3.2131,3.2628,3.2662,3.2763,3.3017,3.3034,3.3121,3.3262,3.3262,3.322,3.3117,3.3117,3.3117,3.3128,3.2876,3.2759,3.2759,3.2759,3.2759,3.2775,3.2974,3.3063,3.3053,3.302,3.3333,3.3796,3.3796,3.4153,3.4516,3.3497,3.2945,3.2705,3.2748,3.2576,3.2326,3.2326,3.2326,3.2372,3.2549,3.2594,3.2772,3.3539,3.3718,3.3923,3.4741,3.5016,3.5181,3.5494,3.5769,3.6044,3.6364,3.6298,3.6251,3.6392,3.6438,3.6548,3.6906,3.6155,3.5571,3.5596,3.5477,3.5287,3.5015,3.5232,3.5395,3.5395,3.5641,3.6029,3.6552,3.6606,3.6969,3.7756,3.7548,3.7766,3.8581,3.8327,3.8554,3.9324,3.9578,4.0139,4.0935,4.118,4.1732,2.56,2.6531,2.7402,2.8688,2.955,3.0031,2.977,2.9912,2.9973,2.9491,2.977,3.0098,3.0098,3.026,3.0506,3.0768,3.0818,3.0903,3.1157,3.1161,3.1047,3.0842,3.121,3.1392,0.0,0.0,0.0,3.2276,3.2537,3.2888,3.3299,3.3332,3.344,3.3678,3.3684,3.3775,3.3951,3.3951,3.3907,3.3812,3.3812,3.3812,3.3812,3.3561,3.3417,3.3417,3.3417,3.3417,3.345,3.3668,3.3746,3.3746,3.3701,3.399,3.4456,3.4456,3.4751,3.5025,3.4125,3.3623,3.3367,3.3406,3.3227,3.2961,3.2961,3.2961,3.3006,3.3162,3.3211,3.3366,3.4028,3.4199,3.4396,3.517,3.535,3.5476,3.5879,3.6094,3.6274,3.6593,3.6654,3.6694,3.687,3.7044,3.7272,3.7613,3.6913,3.626,3.6023,3.6081,3.6005,3.5716,3.5975,3.6154,3.6154,3.6465,3.6888,3.7393,3.743,3.7792,3.8599,3.8635,3.8997,3.9786,3.9786,4.0166,4.0926,4.0926,4.1352,4.213,4.213,4.2411,2.6226,2.719,2.7984,2.8779,2.954,2.9903,2.9245,2.9676,3.0181,3.0156,3.0164,3.019,3.0156,0.0,2.9347,3.0089,3.0173,3.041,3.1147,3.1132,3.1305,0.0,0.0,0.0,0.0,0.0,0.0,3.2422,0.0,3.34,3.3316,3.3316,3.3592,3.4242,3.4259,3.4593,3.5291,3.528,3.528,3.528,3.528,3.528,3.5263,3.4554,3.4236,3.4236,3.4236,3.4236,3.4292,3.4856,3.5093,3.5076,3.4947,3.4899,3.4899,3.4899,3.4899,3.4935,3.5198,3.4742,3.4078,3.4186,3.3673,3.3001,3.3001,3.3001,3.3129,3.3691,3.3867,3.4016,3.4729,3.4899,3.4899,3.4899,3.4899,3.5024,3.5476,3.5241,3.5195,3.6041,3.6215,3.6371,3.686,3.7281,3.7567,3.7604,3.7694,3.7506,3.6848,3.6758,3.647,3.5689,3.6357,3.6858,3.6858,3.7717,3.8246,3.8246,3.8274,3.8636,3.9415,3.9433,3.9786,4.0537,4.0555,4.0935,4.175,4.175,4.2139,4.2873,4.2873,4.2873,2.5547,2.6595,2.7778,2.8587,2.929,2.9918,3.0317,3.0989,3.1365,3.0804,3.113,3.1348,3.0804,0.0,0.0,3.1399,3.1046,0.0,3.1684,3.1771,0.0,3.2001,0.0,3.2809,3.2982,3.3534,0.0,0.0,3.3884,3.422,3.4734,3.4767,3.484,3.5018,3.5023,3.5061,3.5163,3.5053,3.4994,3.4994,3.4994,3.4994,3.5006,3.4811,3.4728,3.4728,3.4728,3.4728,3.4733,3.4892,3.4958,3.4947,3.4911,3.4899,3.4899,3.4899,3.4899,3.4911,3.4982,3.4866,3.4676,3.4716,3.4572,3.4399,3.4399,3.4399,3.4421,3.458,3.4618,3.4651,3.4849,3.4899,3.4899,3.4899,3.4899,3.4935,3.5048,3.5264,3.5571,3.6105,3.6481,3.687,3.7328,3.7234,3.7206,3.7549,3.8113,3.8266,3.7542,3.7523,3.7513,3.7315,3.7494,3.7619,3.7619,3.8383,3.8869,3.8869,3.9392,3.9779,3.9995,3.9995,4.0373,4.1165,4.1165,4.1561,4.2372,4.2372,4.248,4.2688,4.2688,4.2688,2.6074,2.7128,2.8217,2.8946,2.9683,3.0336,3.0791,3.122,3.1394,3.0985,3.0948,0.0,3.0453,3.0369,0.0,0.0,0.0,0.0,3.1937,3.2219,3.2521,0.0,3.3167,0.0,3.3806,3.4239,3.465,0.0,3.4792,3.4838,3.5188,3.521,3.5187,3.514,3.5111,3.5093,3.5006,3.4947,3.4899,3.4899,3.4899,3.4899,3.4899,3.4899,3.4899,3.4899,0.0,3.4899,3.4899,3.4899,3.4899,3.4899,3.4899,3.4899,3.4899,3.4899,3.4899,3.4899,3.4899,3.4899,3.4899,3.4899,3.4899,3.4899,3.4899,3.4899,3.4899,3.4899,3.4899,3.4899,3.4899,3.4899,3.4899,3.4899,3.5148,3.5379,3.5379,3.584,3.6453,3.7091,3.7332,3.768,3.8474,3.8386,3.8309,3.8565,3.8986,3.9138,3.8713,3.8732,3.8778,3.8778,3.8842,3.8869,3.8869,3.9301,3.958,3.958,3.9975,4.0371,4.0712,4.073,4.1107,4.1916,4.1934,4.215,4.2599,4.2599,4.2599,4.2599,4.2599,4.2599,2.7074,2.8046,2.8817,2.9491,3.0262,3.0851,3.0851,3.0918,3.0968,3.0868,0.0,2.9915,2.9815,2.9815,2.9865,3.0075,0.0,3.1959,3.2202,3.2689,3.3262,3.3894,3.3946,3.4199,3.4833,3.4899,3.5197,3.5943,3.5616,3.5382,3.5376,3.5264,3.5117,3.4911,3.4899,3.4899,3.4899,3.4899,3.4899,3.4899,3.4998,3.5048,3.5048,3.5148,3.5131,3.5048,0.0,0.0,3.4899,3.4899,3.4899,3.4899,3.4899,3.4899,3.4899,3.4899,3.4899,3.4899,3.4899,3.4899,3.4899,3.4899,3.4899,3.4899,3.4899,3.4899,3.4899,3.4899,3.4899,3.4899,3.4899,3.4899,3.4916,3.5015,3.5528,3.6025,3.6125,3.6705,3.7455,3.8334,3.8369,3.8586,3.9633,3.9865,3.9904,3.9904,3.9993,4.0065,4.0065,3.9976,3.9904,3.9904,3.999,4.0083,4.0083,4.0223,4.0324,4.0324,4.0423,4.079,4.15,4.1518,4.1841,4.2542,4.256,4.256,4.256,4.256,4.256,4.256,4.256,4.256,2.7112,2.7886,2.8607,2.9274,3.0021,3.0568,3.0568,3.1032,0.0,0.0,3.0949,3.1072,3.0458,3.0369,3.0767,3.1983,0.0,0.0,0.0,0.0,3.3691,0.0,0.0,0.0,0.0,0.0,0.0,0.0,0.0,3.6124,3.6713,3.6166,3.5553,3.4916,3.4899,3.4899,3.4899,3.4899,3.4899,3.4911,3.5512,3.581,3.5827,3.6439,3.639,3.581,3.581,0.0,3.4899,3.4899,3.4899,3.4899,3.4899,3.4899,3.4899,3.4899,3.4899,3.4899,3.4899,3.4899,3.4899,3.4899,3.4899,3.4899,3.4899,3.4899,3.4899,3.4899,3.4899,3.4899,3.4899,3.4899,3.5048,3.5661,3.5909,3.6174,3.6787,3.731,3.7845,3.8385,3.8783,3.9076,3.929,3.965,3.9904,3.9904,4.0475,4.0895,4.0895,4.0315,3.9904,3.9904,3.9914,3.9924,3.9924,4.056,4.0945,4.0945,4.158,4.1991,4.2134,4.2134,4.2206,4.2348,4.2348,4.2348,4.2348,4.2348,4.2348,4.2348,4.2348,4.2348,2.7663,2.8383,2.9085,2.9804,2.9943,3.0026,3.0406,0.0,0.0,0.0,3.0787,3.0803,3.0059,3.0241,0.0,3.0924,3.1327,0.0,0.0,0.0,0.0,0.0,0.0,0.0,0.0,0.0,0.0,0.0,0.0,3.7122,3.7089,3.6758,3.6241,3.5495,3.5462,3.5462,3.5462,3.5462,3.5678,3.6059,3.6394,3.6572,3.6589,3.694,3.6907,3.6572,3.6572,0.0,3.5462,3.5462,3.5247,3.4899,3.4899,3.4899,3.4899,3.4899,3.4863,3.4804,3.4804,3.4739,3.4691,3.4691,3.4792,3.4899,3.4899,3.4899,3.4899,3.4899,3.4899,3.4899,3.4899,3.4899,3.5081,3.5827,3.6589,3.735,3.8092,3.8275,3.8589,3.9525,3.9769,4.0035,4.07,4.1004,4.1145,4.1145,4.1484,4.1726,4.1726,4.1395,4.1145,4.1145,4.1145,4.1145,4.1145,4.1502,4.1726,4.1726,4.2083,4.2297,4.2297,4.2297,4.2297,4.2297,4.2297,4.2297,4.2297,4.2297,4.2297,4.2297,4.2297,4.2297,2.8243,2.8896,2.9612,3.0506,3.0174,2.9837,3.0572,3.0174,0.0,0.0,3.0373,3.0141,2.9711,2.9976,3.0174,0.0,3.098,3.2089,3.2823,0.0,0.0,0.0,0.0,0.0,0.0,0.0,0.0,0.0,0.0,0.0,3.7384,3.7338,3.7003,3.6257,3.6075,3.6009,3.6009,3.6009,3.6278,3.682,3.7134,3.7283,3.7299,3.7448,3.7445,3.7338,3.7338,0.0,0.0,3.5972,3.5513,3.4851,3.4828,3.4799,3.4799,3.4799,3.4756,3.4655,3.4655,3.4582,3.4497,3.4497,3.4631,3.4799,3.4799,3.4839,3.4863,3.4863,3.4887,3.4899,3.4899,3.5015,3.5363,3.6257,3.7483,3.8619,3.9312,3.9235,3.9391,4.0574,4.0709,4.0951,4.1965,4.2218,4.2297,4.2297,4.2297,4.2297,4.2297,4.2297,4.2297,4.2297,4.2297,4.2297,4.2297,4.2297,4.2297,4.2297,4.2297,4.2297,4.2297,4.2297,4.2297,4.2297,4.2297,4.2297,4.2297,4.2297,4.2297,4.2297,4.2297,4.2297,2.8376,2.8896,2.9738,3.1151,3.0936,3.0588,3.1333,0.0,3.0423,3.0489,2.997,2.9688,3.029,2.992,2.992,3.1184,0.0,3.2856,3.3602,3.4916,0.0,0.0,0.0,0.0,0.0,0.0,0.0,0.0,0.0,0.0,3.8133,3.8099,3.7752,3.7023,3.6357,3.6009,3.6009,3.6009,3.5964,3.5951,3.7287,3.7929,3.7946,3.8546,3.8563,3.8099,3.8099,0.0,0.0,3.5869,3.5379,3.472,3.4582,3.4533,3.4533,3.4533,3.4521,3.4521,3.4521,3.4509,3.4497,3.4497,3.4521,3.4533,3.4533,3.4618,3.4715,3.4715,3.4816,3.4899,3.4899,3.5396,3.6257,3.7652,3.8609,3.9332,3.9825,3.9914,4.0068,4.0678,4.1116,4.1435,4.155,4.198,4.2297,4.2297,4.2297,4.2297,4.2297,4.2297,4.2297,4.2297,4.2297,4.2297,4.2297,4.2297,4.2297,4.2297,4.2297,4.2297,4.2297,4.2297,4.2297,4.2297,4.2297,4.2297,4.2297,4.2297,4.2297,4.2297,4.2297,4.2297,2.9539,3.051,3.1531,3.2116,3.1377,3.0688,3.1432,0.0,2.9959,3.0406,3.0257,3.0019,2.986,2.9595,2.9738,3.077,3.1178,0.0,3.3569,0.0,0.0,0.0,0.0,0.0,0.0,0.0,0.0,0.0,0.0,0.0,3.8574,3.8638,3.8309,3.7488,3.7176,3.7028,3.7028,3.7028,3.7216,3.7607,3.8198,3.8477,3.8493,3.8772,3.8767,3.8558,3.8558,0.0,0.0,3.6365,3.5649,3.457,3.4521,3.4497,3.4497,3.4497,3.4448,3.4452,3.4893,3.4989,3.4995,3.5438,3.5584,3.5528,3.5249,3.5189,3.5337,3.5735,3.5875,3.5926,3.5926,3.6469,3.7176,3.7752,3.8472,3.9118,3.9549,3.9636,3.988,4.0659,4.1082,4.1418,4.1694,4.2044,4.2297,4.2297,4.2297,4.2297,4.2297,4.2297,4.2297,4.2297,4.2297,4.2297,4.2297,4.2297,4.2297,4.2297,4.2297,4.2297,4.2297,4.2297,4.2297,4.2297,4.2297,4.2297,4.2297,4.2297,4.2297,4.2297,4.2297,4.2297,3.0357,3.1586,3.274,3.2972,3.1918,3.1019,0.0,3.077,2.986,3.039,3.0323,3.0085,2.9787,2.9556,2.9638,3.0373,3.0832,3.1725,3.3541,3.4776,0.0,0.0,0.0,0.0,0.0,0.0,0.0,0.0,0.0,0.0,0.0,3.8835,3.8616,3.8038,3.7809,3.7694,3.7694,3.7694,3.7942,3.8425,3.8638,3.8752,3.8752,3.8752,3.875,3.8805,0.0,0.0,0.0,3.6947,3.6202,3.5061,3.504,3.4909,3.4729,3.4945,3.483,3.4673,3.5421,3.56,3.562,3.6141,3.6289,3.6281,3.6137,3.5983,3.594,3.6404,3.6561,3.6649,3.6875,3.7301,3.7743,3.7969,3.8428,3.8887,3.9169,3.9339,3.9688,4.0473,4.0784,4.1076,4.1563,4.1677,4.1731,4.1792,4.1803,4.1856,4.2033,4.2054,4.2124,4.2287,4.2297,4.2297,4.2297,4.2297,4.2297,4.2297,4.2297,4.2297,4.2297,4.2297,4.2297,4.2297,4.2297,4.2297,4.2297,4.2297,4.2297,4.2297,4.2297,4.2297,3.0506,3.1586,3.2873,3.3619,3.2685,3.178,3.2525,3.1553,3.0489,3.0506,2.992,2.9628,3.0357,2.9887,2.9638,3.0373,3.161,0.0,3.3678,3.5584,0.0,0.0,0.0,0.0,0.0,0.0,0.0,0.0,0.0,0.0,0.0,3.8602,3.8655,3.8775,3.8084,3.7694,3.7694,3.7694,3.763,3.7517,3.8246,3.8588,3.8588,3.8588,3.8669,0.0,0.0,0.0,0.0,3.7543,3.7055,3.6381,3.631,3.5846,3.5292,3.6011,3.583,3.5296,3.6027,3.6303,3.6303,3.6289,3.6289,3.6432,3.7082,3.6856,3.6381,3.641,3.6502,3.6771,3.7497,3.7694,3.7874,3.8625,3.8788,3.8805,3.8805,3.9232,3.9723,4.0136,4.0263,4.047,4.0926,4.0631,4.038,4.0589,4.0613,4.0826,4.1428,4.1505,4.1709,4.2246,4.2297,4.2297,4.2297,4.2297,4.2297,4.2297,4.2297,4.2297,4.2297,4.2297,4.2297,4.2297,4.2297,4.2297,4.2297,4.2297,4.2297,4.2297,4.2297,4.2297,2.9754,3.0831,3.2006,3.2238,3.1576,3.1035,3.1791,3.1211,3.0495,3.0432,3.0251,3.0137,3.0273,3.0098,3.0706,3.2996,3.3726,3.4633,0.0,0.0,0.0,0.0,0.0,0.0,0.0,0.0,0.0,0.0,0.0,0.0,0.0,3.8448,3.8476,3.8532,3.8305,3.8191,3.8191,3.8191,3.8163,3.8124,3.8365,3.8448,3.8448,3.8448,0.0,0.0,0.0,0.0,0.0,3.7389,3.6956,3.6327,3.6303,3.6157,3.5979,3.6208,3.6157,3.606,3.6743,3.6985,3.7066,3.7582,3.7744,3.7776,3.7987,3.7563,3.7121,3.7637,3.7794,3.7871,3.8126,3.8382,3.8581,3.8537,3.8738,3.8942,3.8942,3.9061,3.9312,3.971,3.9961,4.0149,4.0285,4.0317,4.0373,4.0577,4.0868,4.1168,4.1461,4.1824,4.2114,4.2287,4.2297,4.2297,4.2297,4.2297,4.2297,4.2297,4.2297,4.2297,4.2297,4.2297,4.2297,4.2297,4.2297,4.2297,4.2297,4.2858,4.3126,4.3108,4.2565,4.2297,2.9258,3.0472,3.1598,3.1598,3.1246,3.1009,3.1456,3.095,3.038,3.0327,3.0316,3.0306,3.0274,3.0461,3.1232,3.3152,3.4069,3.5218,0.0,0.0,0.0,0.0,0.0,0.0,0.0,0.0,0.0,0.0,0.0,0.0,0.0,3.8391,3.8391,3.8391,3.8391,3.8391,3.8391,3.8391,3.8391,3.8391,3.8391,3.8391,3.8391,3.8391,0.0,0.0,0.0,0.0,0.0,3.7714,3.7471,3.7096,3.7096,3.6921,3.671,3.6999,3.6921,3.6775,3.7471,3.7714,3.7778,3.8246,3.8504,3.8628,3.8628,3.8209,3.7811,3.8278,3.8391,3.8434,3.8588,3.8805,3.8969,3.8887,3.8928,3.8996,3.8996,3.8873,3.8887,3.9299,3.9388,3.9441,3.9597,3.9719,3.9868,4.0049,4.0468,4.0873,4.1191,4.1618,4.1949,4.2124,4.2246,4.2297,4.2297,4.2297,4.2297,4.2297,4.2297,4.2297,4.2297,4.2297,4.2297,4.2297,4.2601,4.2751,4.2751,4.3258,4.3347,4.3036,4.2529,4.2297,0.0,3.0208,3.1317,3.1366,3.1318,3.1297,3.1396,3.0778,0.0,3.0178,3.0178,3.0243,3.0475,3.0926,3.1379,3.1714,3.3284,0.0,0.0,0.0,0.0,0.0,0.0,0.0,0.0,0.0,0.0,0.0,0.0,0.0,0.0,3.8391,3.8391,3.8391,3.8391,3.8391,3.8391,3.8391,3.8391,3.8391,3.8391,3.8391,3.8391,3.8391,0.0,0.0,0.0,0.0,0.0,3.8391,3.8391,3.8391,3.8391,3.7987,3.7455,3.8149,3.7984,3.7512,3.8179,3.8406,3.8434,3.8434,3.8711,3.905,3.905,3.878,3.8476,3.8448,3.8462,3.8558,3.8942,3.9064,3.9169,3.9519,3.9312,3.9037,3.901,3.8683,3.8504,3.8873,3.8655,3.8532,3.8928,3.8996,3.9064,3.9219,3.9648,4.0159,4.0736,4.1053,4.1402,4.1831,4.2093,4.2246,4.2246,4.2277,4.2297,4.2297,4.2297,4.2297,4.2297,4.2297,4.2333,4.2387,4.3126,4.3525,4.3579,4.3472,4.3054,4.2387,4.2333,4.2333,2.6857,0.0,2.8459,2.9012,2.9055,2.9272,0.0,3.0427,3.0167,3.006,3.0049,3.037,3.1437,3.1277,3.1934,3.4831,3.5674,3.6492,0.0,0.0,0.0,0.0,0.0,0.0,0.0,0.0,0.0,0.0,0.0,0.0,0.0,3.8391,3.8391,3.8391,3.8391,3.8391,3.8391,3.8391,3.8391,3.8391,3.8391,3.8391,3.8391,3.8391,0.0,0.0,0.0,0.0,3.8391,3.8391,3.8391,3.8391,3.8391,3.8294,3.8165,3.8343,3.8488,3.8575,3.8439,3.86,3.8862,3.8862,3.9128,3.9454,3.9454,3.9388,3.9259,3.8942,3.9088,3.9335,3.9428,3.9735,3.9931,3.9662,3.9532,3.9362,3.9077,3.8683,3.842,3.8518,3.8462,3.8532,3.8928,3.8996,3.9172,3.9648,4.0137,4.0509,4.0766,4.122,4.1542,4.167,4.1736,4.1769,4.1769,4.2082,4.2297,4.2297,4.2297,4.2297,4.2297,4.2297,4.2601,4.3215,4.3401,4.3775,4.4346,4.3161,4.2804,4.3187,4.2601,4.2636,2.6211,2.6991,2.7905,2.8293,2.8761,2.9321,3.0131,3.0184,3.0044,2.9968,2.9957,3.0287,3.1396,3.176,3.2809,3.5545,3.6495,0.0,0.0,0.0,0.0,0.0,0.0,0.0,0.0,0.0,0.0,0.0,0.0,0.0,0.0,3.8391,3.8391,3.8391,3.8391,3.8391,3.8391,3.8391,3.8391,3.8391,3.8391,3.8504,3.8669,3.8669,3.8669,0.0,0.0,0.0,3.8669,3.8669,3.8777,3.8925,3.8752,3.8669,3.8641,3.8462,3.8641,3.8969,3.8752,3.8942,3.9289,3.9289,3.9562,3.9927,3.9927,4.0049,4.0074,3.9457,3.9428,3.9649,3.9859,4.0108,4.0275,4.02,3.9893,3.9545,3.9325,3.8805,3.8391,3.8391,3.8391,3.8532,3.8928,3.9155,3.9461,3.9999,4.0468,4.076,4.0836,4.1175,4.1419,4.1419,4.1538,4.1604,4.1604,4.1913,4.2114,4.2114,4.2114,4.2166,4.2297,4.2644,4.3215,4.3989,4.4007,4.4025,4.4096,4.3268,4.2876,4.2947,4.2876,4.309,2.6476,2.7512,2.8525,2.8426,2.9216,3.0058,3.0167,3.0055,2.9902,2.9907,0.0,3.0389,3.1388,3.2569,0.0,0.0,0.0,0.0,0.0,0.0,0.0,0.0,0.0,0.0,0.0,0.0,0.0,0.0,0.0,0.0,0.0,3.8462,3.849,3.849,3.849,3.849,3.849,3.842,3.842,3.849,3.849,3.8697,3.9088,3.9088,3.9088,0.0,0.0,0.0,3.9088,3.9088,3.9286,3.9571,3.9219,3.9047,3.8955,3.863,3.8752,3.9088,3.9169,3.9418,3.9701,3.9701,4.0016,4.0387,4.0387,4.0636,4.0752,4.0007,3.9804,3.9897,4.03,4.0387,4.0473,4.0829,4.0291,3.9688,3.9623,3.9058,3.8558,3.8504,3.8546,3.8711,3.9131,3.9484,3.9859,4.0325,4.068,4.0912,4.0912,4.1053,4.1152,4.1152,4.1352,4.1493,4.1493,4.1686,4.1862,4.2029,4.1987,4.2115,4.2465,4.3251,4.3971,4.4596,4.4489,4.4114,4.3508,4.3508,4.3161,4.2494,4.3304,4.3722,2.772,2.8638,2.9118,2.8542,2.8837,2.9435,3.0058,3.0081,2.9979,2.9902,0.0,0.0,0.0,3.432,3.5552,0.0,0.0,0.0,0.0,0.0,0.0,0.0,0.0,0.0,0.0,0.0,0.0,0.0,0.0,0.0,0.0,0.0,3.8901,3.8901,3.8901,3.8901,3.8901,3.8574,3.8574,3.8901,3.8901,3.9115,3.9506,3.9506,3.9506,0.0,0.0,3.9506,3.9506,3.9506,3.9545,3.9581,3.9532,3.9299,3.8996,3.8928,3.9169,3.9558,3.9956,4.0138,4.0201,4.0201,4.0473,4.0817,4.0817,4.0847,4.0859,4.0752,4.0698,4.0728,4.0787,4.0817,4.0811,4.0888,4.0546,4.0083,3.9688,3.9506,3.9325,3.8983,3.9179,3.9562,4.0007,4.015,4.0337,4.0757,4.0847,4.0912,4.0912,4.0918,4.0942,4.0942,4.0977,4.1018,4.1018,4.1186,4.1693,4.2591,4.2409,4.2559,4.3294,4.4025,4.4478,4.4614,4.3989,4.3615,4.3508,4.3508,4.3436,4.3329,4.4078,4.481,2.7031,2.8009,2.887,2.892,2.9939,3.0926,3.0914,3.1101,3.1371,3.1632,0.0,0.0,0.0,0.0,0.0,0.0,0.0,0.0,0.0,0.0,0.0,0.0,0.0,0.0,0.0,0.0,0.0,0.0,0.0,0.0,0.0,0.0,3.8996,3.8996,3.9222,3.9325,3.9325,3.9139,3.9034,3.8996,3.8996,3.9342,3.9978,3.9978,3.9978,3.9978,0.0,3.9978,3.9978,3.9978,4.0116,4.0274,4.0066,3.988,3.97,3.97,3.9829,4.002,4.0226,4.0436,4.0583,4.0379,4.0571,4.0912,4.0912,4.0912,4.0912,4.0912,4.0912,4.0912,4.0912,4.0912,4.0912,4.0912,4.0583,4.0238,4.0016,3.9782,3.9545,3.9365,3.9467,3.9756,4.0213,4.0305,4.0441,4.0852,4.0912,4.0912,4.0912,4.0912,4.0912,4.0912,4.0912,4.0912,4.0912,4.1088,4.1525,4.2262,4.2704,4.3097,4.349,4.3829,4.4007,4.4007,4.3668,4.3508,4.3508,4.3508,4.3704,4.4114,4.4881,4.5463,2.6625,2.7644,2.8797,2.9489,3.0845,3.2001,3.1995,3.2191,3.259,3.3314,0.0,0.0,0.0,0.0,0.0,0.0,0.0,0.0,0.0,0.0,0.0,0.0,0.0,0.0,0.0,0.0,0.0,0.0,0.0,0.0,0.0,0.0,3.9305,3.9305,3.9601,3.9769,3.9769,3.9662,3.9493,3.9305,3.9305,3.9713,4.0436,4.0436,4.0436,4.0436,4.0436,4.0436,4.0436,4.0436,4.0619,4.0876,4.0558,4.0375,4.0305,4.0305,4.0305,4.0317,4.0416,4.0631,4.0847,4.0534,4.0643,4.0912,4.0912,4.0912,4.0912,4.0912,4.0912,4.0912,4.0912,4.0912,4.0912,4.0912,4.0655,4.0399,4.033,4.0091,3.9868,3.9778,3.9829,4.0011,4.0375,4.0436,4.0551,4.0847,4.0912,4.0912,4.0912,4.0912,4.0912,4.0912,4.0912,4.0923,4.0965,4.1279,4.1583,4.1805,4.2825,4.3437,4.3508,4.3508,4.3579,4.3757,4.3597,4.3597,4.3757,4.3954,4.4328,4.4899,4.5713,4.6088,2.7869,2.8771,2.9506,3.0251,3.0492,3.1056,3.3006,3.2869,3.2665,3.395,0.0,0.0,0.0,0.0,0.0,0.0,0.0,0.0,0.0,0.0,0.0,0.0,0.0,0.0,0.0,0.0,0.0,0.0,0.0,0.0,0.0,0.0,0.0,4.0201,4.0226,4.0251,4.0251,3.9821,3.9808,4.0201,4.0201,4.0436,4.0864,4.0864,4.0864,4.0864,4.0864,4.0864,4.0864,4.0864,4.0859,4.09,4.0876,4.0636,4.0305,4.0305,4.0305,4.0337,4.0733,4.0888,4.09,4.0876,4.0888,4.0912,4.0912,4.0912,4.0912,4.0912,4.0912,4.0912,4.0912,4.0912,4.0912,4.0912,4.0888,4.074,4.0375,4.0571,4.0704,4.0313,4.0546,4.0811,4.0847,4.0864,4.0876,4.09,4.0912,4.0912,4.0912,4.0912,4.0912,4.0912,4.0912,4.0977,4.1163,4.1882,4.2114,4.165,4.2569,4.324,4.3497,4.3508,4.3829,4.4507,4.3847,4.3847,4.4524,4.5274,4.5659,4.5731,4.6534,4.692,2.6882,2.8181,2.9473,2.9754,3.0826,3.2155,3.3423,3.4105,3.4993,3.6741,3.7256,0.0,0.0,0.0,0.0,0.0,0.0,0.0,0.0,0.0,0.0,0.0,0.0,0.0,0.0,0.0,0.0,0.0,0.0,0.0,0.0,0.0,0.0,4.0305,4.0534,4.0667,4.0667,4.0505,4.0505,4.0667,4.0429,4.051,4.0912,4.0912,4.0912,4.0912,4.0912,4.0912,4.0912,4.0912,4.0912,4.0912,4.0912,4.0817,4.0667,4.0667,4.0667,4.068,4.0852,4.0912,4.0912,4.0912,4.0912,4.0912,4.0912,4.0912,4.0912,4.0912,4.0912,4.0912,4.0912,4.0912,4.0912,4.0912,4.0912,4.0864,4.0721,4.0787,4.0864,4.0692,4.0805,4.0912,4.0912,4.0912,4.0912,4.0912,4.0912,4.0912,4.0912,4.0912,4.0912,4.0912,4.0912,4.093,4.1012,4.1295,4.1435,4.1369,4.2335,4.2725,4.2332,4.2438,4.2867,4.3659,4.3558,4.4114,4.5345,4.5648,4.607,4.6563,4.6866,4.7009,2.6551,2.7933,2.9456,2.9688,3.1404,3.3304,3.4281,3.5167,3.637,3.8382,3.8853,3.9219,4.0299,0.0,0.0,0.0,0.0,0.0,0.0,0.0,0.0,0.0,0.0,0.0,0.0,0.0,0.0,0.0,0.0,0.0,0.0,0.0,0.0,0.0,4.0769,4.0912,4.0912,4.0912,4.0912,4.09,4.0619,4.0619,4.0912,4.0912,4.0912,4.0912,4.0912,4.0912,4.0912,4.0912,4.0912,4.0912,4.0912,4.0912,4.0912,4.0912,4.0912,4.0912,4.0912,4.0912,4.0912,4.0912,4.0912,4.0912,4.0912,4.0912,4.0912,4.0912,4.0912,4.0912,4.0912,4.0912,4.0912,4.0912,4.0912,4.0963,4.1205,4.1245,4.1245,4.1245,4.1245,4.1159,4.0946,4.0912,4.0912,4.0912,4.0912,4.0912,4.0912,4.0912,4.0912,4.0912,4.0912,4.0912,4.0912,4.0912,4.0965,4.11,4.1998,4.2369,4.1951,4.2071,4.2686,4.38,4.4008,4.4798,4.6177,4.6177,4.6462,4.7009,4.7009,4.7009,2.7291,2.8333,2.9572,3.0307,3.2166,3.4199,3.5644,3.5881,3.6386,3.8398,3.9174,3.97,4.0366,0.0,0.0,0.0,0.0,0.0,0.0,0.0,0.0,0.0,0.0,0.0,0.0,0.0,0.0,0.0,0.0,0.0,0.0,0.0,0.0,0.0,4.0912,4.0912,4.0912,4.0912,4.0912,4.0912,4.0912,4.0912,4.0912,4.0912,4.0912,4.0912,4.0912,4.0912,4.0912,4.0912,4.0912,4.0912,4.0912,4.0912,4.0912,4.0912,4.0912,4.0912,4.0912,4.0912,4.0912,4.0912,4.0912,4.0912,4.0912,4.0912,4.0912,4.0912,4.0912,4.0912,4.0912,4.09,4.09,4.09,4.0929,4.1119,4.1849,4.2004,4.2004,4.2004,4.1987,4.1762,4.1032,4.0912,4.0912,4.0912,4.0912,4.0912,4.0912,4.0912,4.0912,4.0912,4.0912,4.0912,4.0912,4.0912,4.09,4.09,4.159,4.2221,4.2671,4.2694,4.3557,4.5363,4.541,4.5927,4.7009,4.7009,4.7009,4.7009,4.7009,4.7009,2.6676,2.8143,0.0,2.9742,0.0,0.0,0.0,3.5778,0.0,0.0,3.9222,3.9376,4.0082,0.0,0.0,0.0,0.0,0.0,0.0,0.0,0.0,0.0,0.0,0.0,0.0,0.0,0.0,0.0,0.0,0.0,0.0,0.0,0.0,0.0,4.0912,4.0912,4.0912,4.0912,4.0912,4.0912,4.0912,4.0912,4.0912,4.0912,4.0912,4.0912,4.0912,4.0912,4.0912,4.0912,4.0912,4.0912,4.0912,4.0912,4.0912,4.0912,4.0912,4.0912,4.0912,4.0912,4.0912,4.0912,4.0912,4.0912,4.0912,4.0912,4.0912,4.0912,4.0912,4.1021,4.1538,4.1659,4.1659,4.1659,4.212,4.2585,4.2792,4.2413,4.2004,4.2004,4.1573,4.117,4.0946,4.0912,4.0912,4.0912,4.0912,4.0912,4.0912,4.0912,4.0912,4.0912,4.0912,4.0912,4.0912,4.1383,4.1659,4.1659,4.2413,4.2647,4.2238,4.288,4.3772,4.4883,4.5039,4.5652,4.6719,4.6719,4.6819,4.7009,4.7009,4.7009,2.7883,2.9246,0.0,3.1424,3.3617,3.5533,3.5206,0.0,0.0,0.0,0.0,3.9227,0.0,0.0,0.0,0.0,0.0,0.0,0.0,0.0,0.0,0.0,0.0,0.0,0.0,0.0,0.0,0.0,0.0,0.0,0.0,0.0,0.0,0.0,4.0912,4.0912,4.0912,4.0912,4.0912,4.0912,4.0912,4.0912,4.0912,4.0912,4.0912,4.0912,4.0912,4.0912,4.0912,4.0912,4.0912,4.0912,4.0912,4.0912,4.0912,4.0912,4.0912,4.0912,4.0912,4.0912,4.0912,4.0912,4.0912,4.0912,4.0912,4.0912,4.0912,4.0912,4.1107,4.1447,4.1883,4.2452,4.2832,4.2539,4.2844,4.3276,4.3569,4.3034,4.2482,4.2482,4.1861,4.1245,4.0963,4.0912,4.0912,4.0912,4.0912,4.0912,4.0912,4.0912,4.0912,4.0912,4.0912,4.1015,4.1309,4.1745,4.2142,4.2465,4.3207,4.3414,4.2935,4.3499,4.4242,4.5132,4.5269,4.5688,4.6429,4.6554,4.6684,4.6842,4.6945,4.717,2.9943,3.0907,3.2061,3.4241,3.5349,0.0,3.7221,3.691,3.6587,3.7248,0.0,0.0,0.0,0.0,0.0,0.0,0.0,0.0,0.0,0.0,0.0,0.0,0.0,0.0,0.0,0.0,0.0,0.0,0.0,0.0,0.0,0.0,0.0,0.0,4.0912,4.0912,4.0912,4.0912,4.0912,0.0,4.0912,4.0912,4.0912,4.0912,4.0912,4.0912,4.0912,4.0912,4.0912,4.0912,4.0912,4.0912,4.0912,4.0912,4.0912,4.0912,4.0912,4.0912,4.0912,4.0912,4.0912,4.0912,4.0912,4.0912,4.0912,4.0912,4.0912,4.0912,4.1417,4.2021,4.209,4.3207,4.4156,4.3552,4.3396,4.3569,4.4173,4.3724,4.3172,4.3103,4.2447,4.1693,4.1015,4.0912,4.0912,4.0912,4.0912,4.0912,4.0912,4.0912,4.0912,4.0912,4.0912,4.1205,4.1935,4.2073,4.2452,4.3241,4.4,4.4397,4.4397,4.4397,4.4828,4.576,4.576,4.59,4.6161,4.6405,4.6542,4.6578,4.6842,4.7385,2.8606,2.9852,0.0,0.0,3.5365,3.6865,3.7061,3.6746,3.6435,3.6537,0.0,0.0,0.0,0.0,0.0,0.0,0.0,0.0,0.0,0.0,0.0,0.0,0.0,0.0,0.0,0.0,0.0,0.0,0.0,0.0,0.0,0.0,0.0,4.0912,4.0912,4.0912,4.0912,4.0912,4.0912,0.0,4.0912,4.0912,4.0912,4.0912,4.0912,4.0912,4.0912,4.0912,4.0912,4.0912,4.0912,4.0912,4.0912,4.0912,4.0912,4.0912,4.0912,4.0912,4.0912,4.0912,4.0912,4.0912,4.0912,4.0912,4.0912,4.0912,4.0912,4.0912,4.1417,4.2142,4.2775,4.3621,4.4402,4.4837,4.4928,4.482,4.4384,4.3724,4.3017,4.2366,4.1654,4.1101,4.0929,4.0912,4.0912,4.0912,4.0912,4.0912,4.0912,4.0912,4.0912,4.0912,4.0912,4.1205,4.1935,4.2585,4.3258,4.4018,4.4768,4.5169,4.5169,4.5169,4.5264,4.5472,4.5502,4.5628,4.5887,4.595,4.6075,4.6284,4.6566,4.7116,2.8964,0.0,0.0,3.4662,0.0,3.8048,3.7814,3.7449,3.7007,0.0,0.0,0.0,0.0,0.0,0.0,0.0,0.0,0.0,0.0,0.0,0.0,0.0,0.0,0.0,0.0,0.0,0.0,0.0,0.0,0.0,0.0,4.0912,4.0912,4.0912,4.0912,4.0912,4.0912,4.0912,4.0912,4.0912,4.0912,4.0912,4.0912,4.0912,4.0912,4.0912,4.0912,4.0847,4.0817,4.0859,4.0864,4.0817,4.0859,4.0912,4.0912,4.0912,4.0912,4.0912,4.0912,4.0912,4.0912,4.0912,4.0912,4.0912,4.0912,4.0912,4.0912,4.0912,4.1723,4.2672,4.3086,4.4005,4.4837,4.4872,4.5134,4.5203,4.4453,4.3724,4.2965,4.2159,4.14,4.0912,4.0912,4.0912,4.0912,4.0912,4.0912,4.0912,4.0912,4.0912,4.0912,4.0912,4.0912,4.136,4.2482,4.2965,4.3672,4.4768,4.5186,4.5397,4.5397,4.5397,4.5397,4.5397,4.5397,4.5476,4.5598,4.5735,4.5875,4.6043,4.6811,4.7599,2.9504,3.1364,3.3589,3.6439,3.8288,0.0,3.8799,3.8493,3.8015,0.0,0.0,0.0,0.0,0.0,0.0,0.0,0.0,0.0,0.0,0.0,0.0,0.0,0.0,0.0,0.0,0.0,0.0,0.0,0.0,0.0,4.0912,4.0912,4.0912,4.0912,4.0912,4.0912,4.0912,4.0912,4.0912,4.0912,4.0912,4.0912,4.0912,4.0912,4.0912,4.0912,4.0912,4.084,4.0745,4.0847,4.084,4.0745,4.0864,4.0912,4.0912,4.0912,4.0912,4.0912,4.0912,4.0912,4.0912,4.0912,4.0912,4.0912,4.0912,4.0912,4.0912,4.0912,4.2016,4.3189,4.3189,4.4199,4.5048,4.4436,4.4665,4.4807,4.4057,4.3414,4.2758,4.1952,4.1314,4.0912,4.0912,4.0912,4.0912,4.0912,4.0912,4.0912,4.0912,4.0912,4.0963,4.1072,4.1101,4.1723,4.3258,4.3379,4.397,4.5311,4.5397,4.5397,4.5397,4.5397,4.5397,4.5397,4.5397,4.5397,4.5397,4.5624,4.5835,4.6038,4.7193,4.8252,2.8325,0.0,3.5375,0.0,3.8769,3.996,0.0,0.0,0.0,0.0,0.0,0.0,0.0,0.0,0.0,0.0,0.0,0.0,0.0,0.0,0.0,0.0,0.0,0.0,0.0,0.0,0.0,0.0,0.0,0.0,4.0912,4.0912,4.0912,4.0912,4.0912,4.0912,4.0912,4.0912,4.0912,4.0912,4.0912,4.0912,4.0912,4.0912,4.0912,4.0912,4.0912,4.09,4.0859,4.0883,4.09,4.0888,4.0883,4.0912,4.0912,4.0912,4.0912,4.0912,4.0912,4.0912,4.0912,4.0912,4.0912,4.0912,4.0912,4.0912,4.0912,4.0912,4.2016,4.3189,4.3189,4.3828,4.4419,4.4328,4.3897,4.3276,4.247,4.2228,4.1935,4.1193,4.0981,4.0912,4.0912,4.0912,4.0912,4.0912,4.0912,4.0912,4.0912,4.0912,4.1153,4.178,4.1849,4.247,4.4018,4.4156,4.4505,4.5345,4.5397,4.5397,4.5397,4.5397,4.5397,4.5397,4.5397,4.5397,4.5397,4.5437,4.5922,4.6856,4.7269,4.8343,2.9769,3.2147,3.4656,0.0,3.8722,3.9713,4.004,0.0,0.0,0.0,0.0,0.0,0.0,0.0,0.0,0.0,0.0,0.0,0.0,0.0,0.0,0.0,0.0,0.0,0.0,0.0,0.0,0.0,0.0,4.0912,4.0912,4.0912,4.0912,4.0912,4.0912,4.0912,4.0912,4.0912,4.0912,4.0912,4.0912,4.0912,4.0912,4.0912,4.0912,4.0912,4.0912,4.0864,4.0793,4.0876,4.0864,4.0793,4.0876,4.0912,4.0912,4.0912,4.0912,4.0912,4.0912,4.0912,4.0912,4.0912,4.0912,4.0912,4.0912,4.0912,4.0912,4.0912,4.2016,4.3189,4.3189,4.3741,4.4207,4.3776,4.3086,4.2327,4.1538,4.1711,4.178,4.1038,4.0912,4.0912,4.0912,4.0912,4.0912,4.0912,4.0912,4.0912,4.0912,4.0912,4.1188,4.1918,4.2004,4.2625,4.4173,4.4311,4.4609,4.5345,4.5397,4.5397,4.5397,4.5397,4.5397,4.5397,4.5397,4.5397,4.5397,4.5845,4.6398,4.703,4.8159,4.9198,0.0,0.0,3.3782,3.7104,3.8611,3.9541,0.0,0.0,0.0,0.0,0.0,0.0,0.0,0.0,0.0,0.0,0.0,0.0,0.0,0.0,0.0,0.0,0.0,0.0,0.0,0.0,0.0,0.0,0.0,4.0912,4.0912,4.0912,4.0912,4.0912,4.0693,4.0693,4.0912,4.0912,4.0912,4.0912,4.0912,4.0912,4.0912,4.0847,4.0852,4.0852,4.0888,4.0852,4.0757,4.0864,4.084,4.0757,4.0864,4.0912,4.0912,4.0912,4.0912,4.0912,4.0912,4.0912,4.0912,4.0912,4.0912,4.0912,4.0912,4.0912,4.0946,4.1136,4.2154,4.3241,4.3431,4.3741,4.388,4.3327,4.2447,4.1573,4.1015,4.1331,4.1555,4.1015,4.0912,4.0912,4.0912,4.0912,4.0912,4.0912,4.0912,4.0912,4.0912,4.0912,4.1257,4.2194,4.2297,4.2918,4.4453,4.4591,4.482,4.5363,4.5397,4.5397,4.5397,4.5397,4.5397,4.5397,4.5397,4.5397,4.5397,4.6203,4.683,4.7326,4.8943,4.9956,0.0,3.1805,0.0,3.6762,3.8606,0.0,0.0,0.0,0.0,0.0,0.0,0.0,0.0,0.0,0.0,0.0,0.0,0.0,0.0,0.0,0.0,0.0,0.0,0.0,0.0,0.0,0.0,0.0,0.0,4.0912,4.0912,4.0912,4.0912,4.0912,4.0158,4.0124,4.0883,4.0912,4.0912,4.0912,4.0912,4.0912,4.09,4.0769,4.0709,4.0709,4.0852,4.09,4.09,4.09,4.09,4.09,4.09,4.0912,4.0912,4.0912,4.0912,4.0912,4.0912,4.0912,4.0912,4.0912,4.0912,4.0912,4.0912,4.0912,4.105,4.1745,4.2551,4.3362,4.4069,4.3741,4.3241,4.3207,4.205,4.0963,4.0912,4.0917,4.0963,4.0912,4.0912,4.0912,4.0912,4.0912,4.0912,4.0912,4.0912,4.0912,4.0912,4.0912,4.1481,4.2982,4.3138,4.3729,4.5221,4.5328,4.5363,4.5397,4.5397,4.5397,4.5397,4.5397,4.5397,4.5397,4.5397,4.5397,4.5397,4.6203,4.7107,4.8061,4.9175,5.0255,2.9412,0.0,0.0,3.4673,3.6812,3.8485,0.0,0.0,0.0,0.0,0.0,0.0,0.0,0.0,0.0,0.0,0.0,0.0,0.0,0.0,0.0,0.0,0.0,0.0,0.0,0.0,0.0,0.0,0.0,0.0,4.0912,4.0912,4.0912,4.0912,4.0124,3.9612,3.9434,3.9899,4.0124,4.0141,4.0641,4.0912,4.0912,4.0852,4.0829,4.0829,4.0888,4.0852,4.0781,4.0847,4.0912,4.0912,4.0912,4.0912,4.0912,4.0912,4.0912,4.0912,4.0912,4.0912,4.0912,4.0912,4.0912,4.0912,4.0912,4.0912,4.105,4.1797,4.2585,4.3258,4.3534,4.3396,4.2948,4.1964,4.1309,4.0912,4.0912,4.0912,4.0912,4.0912,4.0912,4.0912,4.0912,4.0912,4.0912,4.0912,4.0912,4.0912,4.0912,4.0912,4.1498,4.3034,4.3189,4.3798,4.5276,4.5397,4.5397,4.5397,4.5397,4.5397,4.5397,4.5397,4.5397,4.5397,4.5397,4.5397,4.5397,4.6203,4.7124,4.8131,4.9192,5.0273,2.8799,2.9696,0.0,0.0,0.0,3.6743,0.0,0.0,0.0,0.0,0.0,0.0,0.0,0.0,0.0,0.0,0.0,0.0,0.0,0.0,0.0,0.0,0.0,0.0,0.0,0.0,0.0,0.0,0.0,0.0,4.0503,4.0745,4.0658,4.0141,3.9848,3.9227,3.8243,3.9209,3.9698,3.971,4.052,4.0912,4.09,4.0799,4.0787,4.0829,4.0793,4.0769,4.0769,4.0847,4.0912,4.0912,4.0912,4.0912,4.0912,4.0912,4.0912,4.0912,4.0912,4.0912,4.0912,4.0912,4.0912,4.0912,4.0912,4.0912,4.1119,4.212,4.2792,4.3258,4.35,4.3189,4.2482,4.1205,4.0912,4.0912,4.0912,4.0912,4.0912,4.0912,4.0912,4.0912,4.0912,4.0912,4.0912,4.0912,4.0912,4.0912,4.0912,4.1119,4.1774,4.3051,4.3414,4.4074,4.5294,4.5397,4.5397,4.5397,4.5397,4.5397,4.5397,4.5397,4.5397,4.5397,4.5397,4.5535,4.5807,4.6341,4.707,4.8001,4.917,5.0325,0.0,0.0,0.0,0.0,0.0,0.0,0.0,0.0,0.0,0.0,0.0,0.0,0.0,0.0,0.0,0.0,0.0,0.0,0.0,0.0,0.0,0.0,0.0,0.0,0.0,0.0,0.0,0.0,0.0,4.0503,3.9733,4.0434,4.0158,3.8657,3.9267,3.8951,3.7502,3.8916,3.9664,3.971,4.0486,4.0877,4.09,4.0631,4.0571,4.0685,4.0571,4.0655,4.0883,4.0912,4.0912,4.0912,4.0912,4.0912,4.0912,4.0912,4.0912,4.0912,4.0912,4.0912,4.0912,4.0912,4.0912,4.0912,4.0912,4.0929,4.1257,4.2775,4.3224,4.3379,4.4087,4.3125,4.178,4.1067,4.0912,4.0912,4.0912,4.0912,4.0912,4.0912,4.0912,4.0912,4.0912,4.0912,4.0912,4.0912,4.0912,4.0912,4.0917,4.1538,4.228,4.3138,4.3845,4.4574,4.5328,4.5397,4.5397,4.5397,4.5397,4.5397,4.5397,4.5397,4.5414,4.5432,4.5432,4.5828,4.6634,4.66,4.6979,4.7769,4.9111,5.0434,2.754,0.0,0.0,0.0,0.0,0.0,0.0,0.0,0.0,0.0,0.0,0.0,0.0,0.0,0.0,0.0,0.0,0.0,0.0,0.0,0.0,0.0,0.0,0.0,0.0,0.0,0.0,0.0,3.9106,3.9365,3.9681,3.9905,3.9589,3.864,3.8278,3.7916,3.7502,3.7898,3.864,3.9698,3.9934,4.0348,4.0912,4.0823,4.0769,4.0697,4.0752,4.0781,4.0769,4.0864,4.0912,4.0912,4.0912,4.0912,4.0912,4.0912,4.0912,4.0912,4.0912,4.0912,4.0912,4.0912,4.0912,4.0912,4.0912,4.1274,4.19,4.2913,4.3586,4.3914,4.3586,4.2361,4.1141,4.0963,4.0912,4.0912,4.0912,4.0912,4.0912,4.0912,4.0912,4.0912,4.0912,4.0912,4.0912,4.0912,4.0912,4.109,4.1624,4.14,4.193,4.3793,4.369,4.4022,4.5294,4.5397,4.5397,4.5397,4.5397,4.5397,4.5397,4.5397,4.5673,4.6255,4.6272,4.6634,4.7393,4.6858,4.7255,4.8528,4.9866,5.0933,2.7755,2.8075,0.0,0.0,0.0,0.0,0.0,3.4887,0.0,0.0,0.0,0.0,0.0,0.0,0.0,0.0,0.0,0.0,0.0,0.0,0.0,0.0,0.0,0.0,0.0,0.0,0.0,3.8657,3.8899,3.9123,3.9232,3.9244,3.9037,3.8606,3.8174,3.795,3.795,3.795,3.8399,3.9244,3.9244,3.9658,4.04,4.0341,4.0495,4.0781,4.0805,4.0805,4.0793,4.0876,4.0912,4.0912,4.0912,4.0912,4.0912,4.0912,4.0912,4.0912,4.0912,4.0912,4.0912,4.0912,4.0912,4.0912,4.0912,4.1417,4.2159,4.2965,4.3724,4.4138,4.3379,4.2275,4.1279,4.0981,4.0912,4.0912,4.0912,4.0912,4.0912,4.0912,4.0912,4.0912,4.0912,4.0912,4.0912,4.0912,4.117,4.1504,4.1935,4.2176,4.2827,4.4156,4.4195,4.4475,4.5328,4.5397,4.5397,4.5397,4.5397,4.5397,4.5397,4.5707,4.6117,4.6583,4.6893,4.7427,4.8169,4.7427,4.7738,4.9021,5.0115,5.0959,2.8523,2.8592,0.0,0.0,0.0,0.0,3.4138,3.4828,0.0,0.0,0.0,0.0,0.0,0.0,0.0,0.0,0.0,0.0,0.0,0.0,0.0,0.0,0.0,0.0,0.0,3.9698,3.9399,3.8657,3.9278,3.9382,3.864,3.8606,3.8606,3.8606,3.8519,3.8554,3.8726,3.864,3.864,3.8726,3.864,3.8985,3.9698,3.9588,4.0012,4.0876,4.0769,4.0781,4.0888,4.0883,4.0912,4.0912,4.0912,4.0912,4.0912,4.0912,4.0912,4.0912,4.0912,4.0912,4.0912,4.0912,4.0912,4.0912,4.0912,4.1417,4.2176,4.3069,4.3793,4.4156,4.3483,4.2654,4.1831,4.1188,4.0963,4.0912,4.0912,4.0912,4.0912,4.0912,4.0912,4.0912,4.0912,4.0912,4.0912,4.0912,4.1464,4.19,4.1987,4.3207,4.4138,4.4397,4.4996,4.5466,4.5638,4.5569,4.5535,4.5535,4.5449,4.5432,4.5518,4.6221,4.6669,4.6841,4.7582,4.8289,4.893,4.8289,4.8474,4.944,5.0102,5.0688,0.0,0.0,0.0,0.0,0.0,0.0,0.0,3.249,0.0,0.0,0.0,0.0,0.0,0.0,0.0,0.0,0.0,0.0,0.0,0.0,0.0,0.0,0.0,0.0,0.0,3.9698,3.9399,3.8657,3.9278,3.9382,3.864,3.8606,3.8606,3.8606,3.8019,3.8278,3.9474,3.8899,3.8899,3.9474,3.8882,3.8985,3.9698,3.9675,4.0065,4.0745,4.0829,4.0817,4.0745,4.0864,4.0912,4.0912,4.0912,4.0912,4.0912,4.0912,4.0912,4.0912,4.0912,4.0912,4.0912,4.0912,4.0912,4.0912,4.0912,4.1417,4.228,4.369,4.419,4.4276,4.4121,4.3051,4.1952,4.1814,4.1331,4.0912,4.0912,4.0912,4.0912,4.0912,4.0912,4.0912,4.0912,4.0912,4.0912,4.0912,4.1021,4.1343,4.1918,4.2263,4.3147,4.4996,4.5311,4.5897,4.7151,4.6703,4.6358,4.6358,4.5759,4.569,4.6341,4.6514,4.7151,4.8358,4.9151,4.9631,4.9769,4.9631,4.9757,5.0189,5.0328,5.0578,0.0,0.0,0.0,3.111,0.0,0.0,0.0,0.0,3.3231,0.0,0.0,0.0,0.0,0.0,0.0,0.0,0.0,0.0,0.0,0.0,0.0,0.0,0.0,0.0,0.0,4.0296,3.9986,3.9209,3.9158,3.8985,3.8623,3.8243,3.8226,3.8588,3.7881,3.8036,3.914,3.8416,3.8243,3.8588,3.7829,3.8043,3.9158,3.9158,3.9761,4.0805,4.0876,4.0864,4.0805,4.0876,4.0912,4.0912,4.0912,4.0912,4.0912,4.0912,4.0912,4.0912,4.0912,4.0912,4.0912,4.0912,4.0912,4.0912,4.0912,4.1705,4.2913,4.4423,4.4854,4.4768,4.4397,4.3448,4.2499,4.209,4.1447,4.0912,4.0912,4.0912,4.0912,4.0912,4.0912,4.0912,4.0912,4.0912,4.0912,4.0912,4.155,4.205,4.2004,4.2992,4.4134,4.5276,4.5759,4.6462,4.76,4.7014,4.66,4.66,4.5841,4.5759,4.6565,4.6945,4.7858,4.9375,4.9789,5.0011,5.0011,5.0011,5.0066,5.0192,5.0192,5.0345,0.0,0.0,0.0,0.0,0.0,3.2662,0.0,0.0,0.0,3.4318,0.0,0.0,0.0,0.0,0.0,0.0,0.0,0.0,0.0,0.0,0.0,0.0,0.0,0.0,0.0,4.0549,4.0313,3.9968,3.9106,3.8657,3.8795,3.8105,3.7985,3.8588,3.7881,3.7847,3.8588,3.8002,3.764,3.7484,3.6846,3.718,3.8399,3.8537,3.9365,4.0676,4.0831,4.0912,4.0912,4.0912,4.0912,4.0912,4.0912,4.0912,4.0912,4.0912,4.0912,4.0912,4.0912,4.0912,4.0912,4.0912,4.0912,4.0912,4.0912,4.1981,4.3448,4.4647,4.5186,4.5238,4.4488,4.3741,4.3,4.2194,4.1447,4.0912,4.0912,4.0912,4.0912,4.0912,4.0912,4.0912,4.0912,4.0912,4.0912,4.0912,4.1964,4.2516,4.1866,4.3647,4.51,4.5363,4.6255,4.7117,4.7858,4.7238,4.6738,4.66,4.5841,4.5811,4.6772,4.7669,4.872,4.9993,5.0011,5.0011,5.0011,5.0011,5.0011,5.0011,5.0011,5.0123,0.0,0.0,0.0,0.0,3.3369,0.0,0.0,0.0,3.2766,3.2283,0.0,0.0,0.0,0.0,0.0,0.0,0.0,0.0,0.0,0.0,0.0,0.0,0.0,0.0,0.0,0.0,3.9382,4.067,3.9416,3.8899,3.9526,3.8882,3.8502,3.8606,3.7881,3.7847,3.8588,3.8519,3.814,3.7502,3.7409,3.745,3.764,3.8295,3.9054,3.9882,4.0589,4.0912,4.0912,4.0912,4.0912,4.0912,4.0912,4.0912,4.0912,4.0912,4.0912,4.0912,4.0912,4.0912,4.0912,4.0912,4.0912,4.0912,4.0912,4.1981,4.3224,4.3396,4.4389,4.5238,4.4488,4.3741,4.3,4.2194,4.1447,4.0912,4.0912,4.0912,4.0912,4.0912,4.0912,4.0912,4.0912,4.0912,4.0912,4.0912,4.105,4.1136,4.105,4.2447,4.3953,4.5259,4.669,4.7876,4.8603,4.7996,4.7307,4.6634,4.5841,4.6052,4.7514,4.8962,4.9806,5.0011,5.0011,5.0011,5.0011,5.0011,5.0011,5.0011,5.0011,5.0025,0.0,0.0,0.0,0.0,0.0,0.0,3.2662,0.0,3.23,0.0,0.0,0.0,0.0,0.0,0.0,0.0,0.0,0.0,0.0,0.0,0.0,0.0,0.0,0.0,0.0,0.0,0.0,0.0,0.0,3.9123,4.0331,3.9658,3.9037,3.8606,3.7881,3.7415,3.7277,3.7277,3.7111,3.6812,3.6812,3.7053,3.7502,3.7812,3.8606,3.9715,4.0055,4.0469,4.0912,4.0912,4.0912,4.0912,4.0912,4.0912,4.0912,4.0912,4.0912,4.0912,4.0912,4.0912,4.0912,4.0912,4.0912,4.0981,4.14,4.2327,4.3293,4.3724,4.4281,4.4682,4.438,4.3414,4.243,4.2073,4.1447,4.0912,4.0912,4.0912,4.0912,4.0912,4.0912,4.0912,4.0912,4.0912,4.0912,4.0912,4.1262,4.1383,4.0963,4.224,4.3603,4.4647,4.5721,4.6845,4.8065,4.7496,4.6927,4.6617,4.6272,4.6393,4.7031,4.8513,4.9306,4.9306,4.9755,5.0011,5.0011,5.0011,5.0011,5.0011,5.0011,4.9737,3.1955,0.0,0.0,0.0,0.0,0.0,0.0,0.0,0.0,0.0,0.0,0.0,0.0,0.0,0.0,0.0,0.0,0.0,0.0,0.0,0.0,0.0,0.0,0.0,0.0,0.0,0.0,0.0,0.0,0.0,4.0808,4.0141,3.9439,3.8916,3.7985,3.7226,3.6628,3.6404,3.6301,3.6301,3.6301,3.6622,3.7174,3.7398,3.8192,3.9416,3.9612,4.0158,4.0912,4.0912,4.0912,4.0912,4.0912,4.0912,4.0912,4.0912,4.0912,4.0912,4.0912,4.0912,4.0912,4.0912,4.0912,4.1038,4.178,4.2568,4.3345,4.4087,4.4311,4.4259,4.4052,4.2987,4.1952,4.1745,4.1291,4.0912,4.0912,4.0912,4.0912,4.0912,4.0912,4.0912,4.0912,4.0912,4.0912,4.0912,4.1348,4.1504,4.0981,4.205,4.3155,4.3914,4.4837,4.5845,4.6979,4.6772,4.6496,4.6289,4.6479,4.66,4.66,4.7824,4.8499,4.8499,4.9272,4.9669,4.9669,4.9893,4.989,4.9669,4.9669,4.9358,0.0,0.0,0.0,3.2007,0.0,0.0,0.0,0.0,3.2662,0.0,0.0,0.0,0.0,0.0,0.0,3.1714,0.0,0.0,0.0,0.0,0.0,0.0,0.0,0.0,0.0,0.0,0.0,0.0,0.0,0.0,4.0727,4.0141,3.9681,3.9664,3.8261,3.7495,3.745,3.6691,3.6301,3.6301,3.6301,3.6318,3.6353,3.7139,3.7916,3.8675,3.9399,4.0158,4.0912,4.0912,4.0912,4.0912,4.0912,4.0912,4.0912,4.0912,4.0912,4.0912,4.0912,4.0912,4.0912,4.0912,4.0912,4.1038,4.178,4.2568,4.3345,4.4087,4.4311,4.4138,4.3414,4.262,4.1814,4.1119,4.0929,4.0912,4.0912,4.0912,4.0912,4.0912,4.0912,4.0912,4.0912,4.0912,4.0912,4.0912,4.0929,4.0929,4.0912,4.1573,4.2361,4.3155,4.4527,4.5414,4.5466,4.6169,4.6272,4.5483,4.6169,4.66,4.66,4.7324,4.7738,4.7738,4.8462,4.8827,4.8827,4.9617,4.96,4.8827,4.8827,4.881,0.0,0.0,3.2714,3.1972,0.0,0.0,0.0,0.0,0.0,0.0,0.0,0.0,0.0,0.0,3.1516,3.1765,0.0,0.0,0.0,0.0,0.0,0.0,0.0,0.0,0.0,0.0,0.0,0.0,0.0,0.0,0.0,4.0641,4.0244,3.9715,3.8744,3.7985,3.7502,3.6708,3.6301,3.6301,3.6301,3.6301,3.6301,3.6577,3.7398,3.8606,3.8864,3.971,4.0912,4.0912,4.0912,4.0912,4.0912,4.0912,4.0912,4.0912,4.0912,4.0912,4.0912,4.0912,4.0912,4.0912,4.0912,4.1038,4.178,4.2568,4.3241,4.35,4.3569,4.3396,4.262,4.1843,4.121,4.0963,4.0912,4.0912,4.0912,4.0912,4.0912,4.0912,4.0912,4.0912,4.0912,4.0912,4.0912,4.0912,4.0912,4.0912,4.0912,4.1119,4.1555,4.2314,4.3332,4.4143,4.4643,4.5376,4.5703,4.5414,4.5656,4.5807,4.5807,4.6565,4.6962,4.6962,4.8186,4.8565,4.8065,4.9358,4.9582,4.8789,4.8307,4.7807,3.191,3.22,0.0,3.193,3.2162,0.0,3.1903,0.0,0.0,0.0,0.0,0.0,0.0,0.0,0.0,3.2145,3.1972,0.0,0.0,0.0,0.0,0.0,0.0,0.0,0.0,0.0,3.5956,3.8054,0.0,0.0,0.0,0.0,4.0658,4.0141,3.9123,3.8364,3.7898,3.6818,3.6301,3.6301,3.6301,3.6301,3.6301,3.6594,3.7415,3.8606,3.8882,3.9727,4.0912,4.0912,4.0912,4.0912,4.0912,4.0912,4.0912,4.0912,4.0912,4.0912,4.0912,4.0912,4.0912,4.0912,4.0912,4.1038,4.178,4.2349,4.2827,4.312,4.2982,4.2654,4.2125,4.1452,4.0912,4.0912,4.0912,4.0912,4.0912,4.0912,4.0912,4.0912,4.0912,4.0912,4.0912,4.0912,4.0912,4.0912,4.0912,4.0912,4.0912,4.0912,4.1072,4.1555,4.2568,4.3603,4.4609,4.5134,4.5397,4.5397,4.5397,4.5397,4.5397,4.591,4.6307,4.6583,4.7789,4.8169,4.7703,4.8962,4.9048,4.8013,4.7531,4.6893]}]]